<?xml version="1.0" encoding="UTF-8" standalone="no" ?>
<gpx xmlns="http://www.topografix.com/GPX/1/1" xmlns:xsi="http://www.w3.org/2001/XMLSchema-instance" xsi:schemaLocation="http://www.topografix.com/GPX/1/1 http://www.topografix.com/GPX/1/1/gpx.xsd" version="1.1" creator="VisuGPX - https://www.visugpx.com">
  <metadata>
    <name>Duranus</name>
    <desc><![CDATA[Montée sur sentier et descente technique sur la fin de la rando]]></desc>
  </metadata>
  <trk>
    <name><![CDATA[Duranus]]></name>
    <trkseg>
      <trkpt lat="43.89497" lon="7.25771">
        <ele>490</ele>
        <time>2011-11-19T09:09:51Z</time>
      </trkpt>
      <trkpt lat="43.89494" lon="7.2581">
        <ele>441</ele>
        <time>2011-11-19T09:09:52Z</time>
      </trkpt>
      <trkpt lat="43.89501" lon="7.25845">
        <ele>470</ele>
        <time>2011-11-19T09:10:02Z</time>
      </trkpt>
      <trkpt lat="43.89506" lon="7.25873">
        <ele>515</ele>
        <time>2011-11-19T09:10:13Z</time>
      </trkpt>
      <trkpt lat="43.89511" lon="7.25888">
        <ele>540</ele>
        <time>2011-11-19T09:10:23Z</time>
      </trkpt>
      <trkpt lat="43.89516" lon="7.25861">
        <ele>530</ele>
        <time>2011-11-19T09:10:33Z</time>
      </trkpt>
      <trkpt lat="43.89518" lon="7.25831">
        <ele>507</ele>
        <time>2011-11-19T09:10:44Z</time>
      </trkpt>
      <trkpt lat="43.89525" lon="7.25812">
        <ele>496</ele>
        <time>2011-11-19T09:10:54Z</time>
      </trkpt>
      <trkpt lat="43.89541" lon="7.25788">
        <ele>495</ele>
        <time>2011-11-19T09:11:05Z</time>
      </trkpt>
      <trkpt lat="43.89547" lon="7.25758">
        <ele>479</ele>
        <time>2011-11-19T09:11:16Z</time>
      </trkpt>
      <trkpt lat="43.89553" lon="7.2573">
        <ele>472</ele>
        <time>2011-11-19T09:11:26Z</time>
      </trkpt>
      <trkpt lat="43.89561" lon="7.25714">
        <ele>477</ele>
        <time>2011-11-19T09:11:36Z</time>
      </trkpt>
      <trkpt lat="43.89578" lon="7.25685">
        <ele>484</ele>
        <time>2011-11-19T09:11:47Z</time>
      </trkpt>
      <trkpt lat="43.89587" lon="7.2567">
        <ele>488</ele>
        <time>2011-11-19T09:11:57Z</time>
      </trkpt>
      <trkpt lat="43.89604" lon="7.2565">
        <ele>500</ele>
        <time>2011-11-19T09:12:08Z</time>
      </trkpt>
      <trkpt lat="43.89613" lon="7.25616">
        <ele>492</ele>
        <time>2011-11-19T09:12:19Z</time>
      </trkpt>
      <trkpt lat="43.89628" lon="7.2559">
        <ele>482</ele>
        <time>2011-11-19T09:12:29Z</time>
      </trkpt>
      <trkpt lat="43.89644" lon="7.25567">
        <ele>475</ele>
        <time>2011-11-19T09:12:39Z</time>
      </trkpt>
      <trkpt lat="43.89653" lon="7.25537">
        <ele>468</ele>
        <time>2011-11-19T09:12:49Z</time>
      </trkpt>
      <trkpt lat="43.89661" lon="7.25527">
        <ele>483</ele>
        <time>2011-11-19T09:13:00Z</time>
      </trkpt>
      <trkpt lat="43.89675" lon="7.25514">
        <ele>497</ele>
        <time>2011-11-19T09:13:10Z</time>
      </trkpt>
      <trkpt lat="43.89698" lon="7.25521">
        <ele>522</ele>
        <time>2011-11-19T09:13:21Z</time>
      </trkpt>
      <trkpt lat="43.89717" lon="7.2552">
        <ele>558</ele>
        <time>2011-11-19T09:13:31Z</time>
      </trkpt>
      <trkpt lat="43.8979" lon="7.25486">
        <ele>575</ele>
        <time>2011-11-19T09:13:32Z</time>
      </trkpt>
      <trkpt lat="43.89829" lon="7.25491">
        <ele>561</ele>
        <time>2011-11-19T09:13:43Z</time>
      </trkpt>
      <trkpt lat="43.89885" lon="7.25479">
        <ele>538</ele>
        <time>2011-11-19T09:13:53Z</time>
      </trkpt>
      <trkpt lat="43.89949" lon="7.25495">
        <ele>526</ele>
        <time>2011-11-19T09:14:03Z</time>
      </trkpt>
      <trkpt lat="43.89998" lon="7.25532">
        <ele>526</ele>
        <time>2011-11-19T09:14:13Z</time>
      </trkpt>
      <trkpt lat="43.90021" lon="7.2553">
        <ele>526</ele>
        <time>2011-11-19T09:14:23Z</time>
      </trkpt>
      <trkpt lat="43.90033" lon="7.25538">
        <ele>530</ele>
        <time>2011-11-19T09:14:33Z</time>
      </trkpt>
      <trkpt lat="43.90045" lon="7.25548">
        <ele>546</ele>
        <time>2011-11-19T09:14:43Z</time>
      </trkpt>
      <trkpt lat="43.90052" lon="7.25559">
        <ele>574</ele>
        <time>2011-11-19T09:14:54Z</time>
      </trkpt>
      <trkpt lat="43.90058" lon="7.25584">
        <ele>590</ele>
        <time>2011-11-19T09:15:04Z</time>
      </trkpt>
      <trkpt lat="43.90064" lon="7.256">
        <ele>587</ele>
        <time>2011-11-19T09:15:14Z</time>
      </trkpt>
      <trkpt lat="43.90066" lon="7.25616">
        <ele>567</ele>
        <time>2011-11-19T09:15:24Z</time>
      </trkpt>
      <trkpt lat="43.90068" lon="7.25636">
        <ele>537</ele>
        <time>2011-11-19T09:15:34Z</time>
      </trkpt>
      <trkpt lat="43.90068" lon="7.25658">
        <ele>524</ele>
        <time>2011-11-19T09:15:44Z</time>
      </trkpt>
      <trkpt lat="43.90065" lon="7.25673">
        <ele>514</ele>
        <time>2011-11-19T09:15:54Z</time>
      </trkpt>
      <trkpt lat="43.90053" lon="7.25678">
        <ele>504</ele>
        <time>2011-11-19T09:16:05Z</time>
      </trkpt>
      <trkpt lat="43.90041" lon="7.2568">
        <ele>485</ele>
        <time>2011-11-19T09:16:15Z</time>
      </trkpt>
      <trkpt lat="43.9003" lon="7.25694">
        <ele>477</ele>
        <time>2011-11-19T09:16:25Z</time>
      </trkpt>
      <trkpt lat="43.90028" lon="7.25718">
        <ele>492</ele>
        <time>2011-11-19T09:16:35Z</time>
      </trkpt>
      <trkpt lat="43.90028" lon="7.25743">
        <ele>518</ele>
        <time>2011-11-19T09:16:45Z</time>
      </trkpt>
      <trkpt lat="43.90025" lon="7.25761">
        <ele>535</ele>
        <time>2011-11-19T09:16:56Z</time>
      </trkpt>
      <trkpt lat="43.90014" lon="7.25772">
        <ele>533</ele>
        <time>2011-11-19T09:17:06Z</time>
      </trkpt>
      <trkpt lat="43.90008" lon="7.25784">
        <ele>525</ele>
        <time>2011-11-19T09:17:17Z</time>
      </trkpt>
      <trkpt lat="43.89996" lon="7.25796">
        <ele>516</ele>
        <time>2011-11-19T09:17:28Z</time>
      </trkpt>
      <trkpt lat="43.89981" lon="7.25804">
        <ele>514</ele>
        <time>2011-11-19T09:17:38Z</time>
      </trkpt>
      <trkpt lat="43.89969" lon="7.25811">
        <ele>510</ele>
        <time>2011-11-19T09:17:48Z</time>
      </trkpt>
      <trkpt lat="43.89962" lon="7.25827">
        <ele>509</ele>
        <time>2011-11-19T09:17:59Z</time>
      </trkpt>
      <trkpt lat="43.89958" lon="7.25846">
        <ele>509</ele>
        <time>2011-11-19T09:18:09Z</time>
      </trkpt>
      <trkpt lat="43.8995" lon="7.25865">
        <ele>513</ele>
        <time>2011-11-19T09:18:19Z</time>
      </trkpt>
      <trkpt lat="43.89944" lon="7.25882">
        <ele>526</ele>
        <time>2011-11-19T09:18:29Z</time>
      </trkpt>
      <trkpt lat="43.8994" lon="7.25906">
        <ele>566</ele>
        <time>2011-11-19T09:18:39Z</time>
      </trkpt>
      <trkpt lat="43.8994" lon="7.25927">
        <ele>617</ele>
        <time>2011-11-19T09:18:49Z</time>
      </trkpt>
      <trkpt lat="43.89941" lon="7.25945">
        <ele>652</ele>
        <time>2011-11-19T09:18:59Z</time>
      </trkpt>
      <trkpt lat="43.89949" lon="7.25965">
        <ele>682</ele>
        <time>2011-11-19T09:19:09Z</time>
      </trkpt>
      <trkpt lat="43.89954" lon="7.25981">
        <ele>699</ele>
        <time>2011-11-19T09:19:19Z</time>
      </trkpt>
      <trkpt lat="43.89959" lon="7.26002">
        <ele>709</ele>
        <time>2011-11-19T09:19:29Z</time>
      </trkpt>
      <trkpt lat="43.89971" lon="7.2602">
        <ele>714</ele>
        <time>2011-11-19T09:19:39Z</time>
      </trkpt>
      <trkpt lat="43.89986" lon="7.26034">
        <ele>703</ele>
        <time>2011-11-19T09:19:49Z</time>
      </trkpt>
      <trkpt lat="43.89989" lon="7.26041">
        <ele>665</ele>
        <time>2011-11-19T09:19:59Z</time>
      </trkpt>
      <trkpt lat="43.89983" lon="7.26025">
        <ele>616</ele>
        <time>2011-11-19T09:20:10Z</time>
      </trkpt>
      <trkpt lat="43.89974" lon="7.26012">
        <ele>606</ele>
        <time>2011-11-19T09:20:20Z</time>
      </trkpt>
      <trkpt lat="43.89968" lon="7.25994">
        <ele>595</ele>
        <time>2011-11-19T09:20:30Z</time>
      </trkpt>
      <trkpt lat="43.89952" lon="7.25985">
        <ele>607</ele>
        <time>2011-11-19T09:20:40Z</time>
      </trkpt>
      <trkpt lat="43.89938" lon="7.25967">
        <ele>637</ele>
        <time>2011-11-19T09:20:50Z</time>
      </trkpt>
      <trkpt lat="43.89924" lon="7.25953">
        <ele>646</ele>
        <time>2011-11-19T09:21:00Z</time>
      </trkpt>
      <trkpt lat="43.89915" lon="7.25927">
        <ele>652</ele>
        <time>2011-11-19T09:21:10Z</time>
      </trkpt>
      <trkpt lat="43.8991" lon="7.25902">
        <ele>655</ele>
        <time>2011-11-19T09:21:20Z</time>
      </trkpt>
      <trkpt lat="43.89911" lon="7.25878">
        <ele>641</ele>
        <time>2011-11-19T09:21:30Z</time>
      </trkpt>
      <trkpt lat="43.89922" lon="7.25847">
        <ele>613</ele>
        <time>2011-11-19T09:21:40Z</time>
      </trkpt>
      <trkpt lat="43.89921" lon="7.25814">
        <ele>589</ele>
        <time>2011-11-19T09:21:50Z</time>
      </trkpt>
      <trkpt lat="43.89914" lon="7.25796">
        <ele>579</ele>
        <time>2011-11-19T09:22:00Z</time>
      </trkpt>
      <trkpt lat="43.89905" lon="7.25801">
        <ele>579</ele>
        <time>2011-11-19T09:22:10Z</time>
      </trkpt>
      <trkpt lat="43.89903" lon="7.25799">
        <ele>579</ele>
        <time>2011-11-19T09:22:21Z</time>
      </trkpt>
      <trkpt lat="43.89901" lon="7.25798">
        <ele>577</ele>
        <time>2011-11-19T09:22:33Z</time>
      </trkpt>
      <trkpt lat="43.89902" lon="7.25797">
        <ele>576</ele>
        <time>2011-11-19T09:22:47Z</time>
      </trkpt>
      <trkpt lat="43.89911" lon="7.25803">
        <ele>582</ele>
        <time>2011-11-19T09:22:57Z</time>
      </trkpt>
      <trkpt lat="43.89916" lon="7.25821">
        <ele>592</ele>
        <time>2011-11-19T09:23:07Z</time>
      </trkpt>
      <trkpt lat="43.89905" lon="7.25846">
        <ele>601</ele>
        <time>2011-11-19T09:23:18Z</time>
      </trkpt>
      <trkpt lat="43.89895" lon="7.25868">
        <ele>601</ele>
        <time>2011-11-19T09:23:28Z</time>
      </trkpt>
      <trkpt lat="43.89893" lon="7.25886">
        <ele>600</ele>
        <time>2011-11-19T09:23:38Z</time>
      </trkpt>
      <trkpt lat="43.89891" lon="7.25906">
        <ele>600</ele>
        <time>2011-11-19T09:23:48Z</time>
      </trkpt>
      <trkpt lat="43.89891" lon="7.25934">
        <ele>600</ele>
        <time>2011-11-19T09:23:58Z</time>
      </trkpt>
      <trkpt lat="43.89895" lon="7.25952">
        <ele>600</ele>
        <time>2011-11-19T09:24:08Z</time>
      </trkpt>
      <trkpt lat="43.89895" lon="7.25975">
        <ele>600</ele>
        <time>2011-11-19T09:24:18Z</time>
      </trkpt>
      <trkpt lat="43.89898" lon="7.25992">
        <ele>598</ele>
        <time>2011-11-19T09:24:28Z</time>
      </trkpt>
      <trkpt lat="43.89905" lon="7.2601">
        <ele>598</ele>
        <time>2011-11-19T09:24:38Z</time>
      </trkpt>
      <trkpt lat="43.89914" lon="7.26029">
        <ele>598</ele>
        <time>2011-11-19T09:24:48Z</time>
      </trkpt>
      <trkpt lat="43.89925" lon="7.26044">
        <ele>595</ele>
        <time>2011-11-19T09:24:58Z</time>
      </trkpt>
      <trkpt lat="43.89927" lon="7.26052">
        <ele>599</ele>
        <time>2011-11-19T09:25:08Z</time>
      </trkpt>
      <trkpt lat="43.89918" lon="7.2606">
        <ele>604</ele>
        <time>2011-11-19T09:25:18Z</time>
      </trkpt>
      <trkpt lat="43.89906" lon="7.26068">
        <ele>605</ele>
        <time>2011-11-19T09:25:28Z</time>
      </trkpt>
      <trkpt lat="43.89898" lon="7.26079">
        <ele>605</ele>
        <time>2011-11-19T09:25:38Z</time>
      </trkpt>
      <trkpt lat="43.89895" lon="7.26093">
        <ele>609</ele>
        <time>2011-11-19T09:25:48Z</time>
      </trkpt>
      <trkpt lat="43.89892" lon="7.26111">
        <ele>610</ele>
        <time>2011-11-19T09:25:58Z</time>
      </trkpt>
      <trkpt lat="43.89883" lon="7.26124">
        <ele>614</ele>
        <time>2011-11-19T09:26:08Z</time>
      </trkpt>
      <trkpt lat="43.8987" lon="7.26135">
        <ele>614</ele>
        <time>2011-11-19T09:26:18Z</time>
      </trkpt>
      <trkpt lat="43.89858" lon="7.26142">
        <ele>607</ele>
        <time>2011-11-19T09:26:28Z</time>
      </trkpt>
      <trkpt lat="43.89856" lon="7.26152">
        <ele>600</ele>
        <time>2011-11-19T09:26:38Z</time>
      </trkpt>
      <trkpt lat="43.8985" lon="7.26172">
        <ele>599</ele>
        <time>2011-11-19T09:26:48Z</time>
      </trkpt>
      <trkpt lat="43.89838" lon="7.26182">
        <ele>608</ele>
        <time>2011-11-19T09:26:58Z</time>
      </trkpt>
      <trkpt lat="43.89824" lon="7.26184">
        <ele>606</ele>
        <time>2011-11-19T09:27:08Z</time>
      </trkpt>
      <trkpt lat="43.89818" lon="7.26199">
        <ele>606</ele>
        <time>2011-11-19T09:27:18Z</time>
      </trkpt>
      <trkpt lat="43.89813" lon="7.26219">
        <ele>617</ele>
        <time>2011-11-19T09:27:28Z</time>
      </trkpt>
      <trkpt lat="43.89801" lon="7.26227">
        <ele>623</ele>
        <time>2011-11-19T09:27:38Z</time>
      </trkpt>
      <trkpt lat="43.89795" lon="7.2624">
        <ele>628</ele>
        <time>2011-11-19T09:27:48Z</time>
      </trkpt>
      <trkpt lat="43.89792" lon="7.26251">
        <ele>638</ele>
        <time>2011-11-19T09:27:58Z</time>
      </trkpt>
      <trkpt lat="43.89789" lon="7.26262">
        <ele>648</ele>
        <time>2011-11-19T09:28:08Z</time>
      </trkpt>
      <trkpt lat="43.89784" lon="7.26273">
        <ele>650</ele>
        <time>2011-11-19T09:28:20Z</time>
      </trkpt>
      <trkpt lat="43.8978" lon="7.2628">
        <ele>652</ele>
        <time>2011-11-19T09:28:30Z</time>
      </trkpt>
      <trkpt lat="43.8978" lon="7.26283">
        <ele>645</ele>
        <time>2011-11-19T09:28:49Z</time>
      </trkpt>
      <trkpt lat="43.8978" lon="7.26284">
        <ele>643</ele>
        <time>2011-11-19T09:29:01Z</time>
      </trkpt>
      <trkpt lat="43.89778" lon="7.26288">
        <ele>633</ele>
        <time>2011-11-19T09:29:13Z</time>
      </trkpt>
      <trkpt lat="43.89777" lon="7.26291">
        <ele>624</ele>
        <time>2011-11-19T09:29:23Z</time>
      </trkpt>
      <trkpt lat="43.8978" lon="7.26299">
        <ele>624</ele>
        <time>2011-11-19T09:29:33Z</time>
      </trkpt>
      <trkpt lat="43.89781" lon="7.26316">
        <ele>632</ele>
        <time>2011-11-19T09:29:43Z</time>
      </trkpt>
      <trkpt lat="43.8978" lon="7.26338">
        <ele>640</ele>
        <time>2011-11-19T09:29:53Z</time>
      </trkpt>
      <trkpt lat="43.89772" lon="7.26352">
        <ele>644</ele>
        <time>2011-11-19T09:30:04Z</time>
      </trkpt>
      <trkpt lat="43.89759" lon="7.26362">
        <ele>644</ele>
        <time>2011-11-19T09:30:14Z</time>
      </trkpt>
      <trkpt lat="43.89753" lon="7.26379">
        <ele>644</ele>
        <time>2011-11-19T09:30:25Z</time>
      </trkpt>
      <trkpt lat="43.89747" lon="7.26397">
        <ele>651</ele>
        <time>2011-11-19T09:30:35Z</time>
      </trkpt>
      <trkpt lat="43.89741" lon="7.26415">
        <ele>651</ele>
        <time>2011-11-19T09:30:45Z</time>
      </trkpt>
      <trkpt lat="43.89735" lon="7.2643">
        <ele>660</ele>
        <time>2011-11-19T09:30:56Z</time>
      </trkpt>
      <trkpt lat="43.89732" lon="7.26446">
        <ele>670</ele>
        <time>2011-11-19T09:31:06Z</time>
      </trkpt>
      <trkpt lat="43.89729" lon="7.26464">
        <ele>677</ele>
        <time>2011-11-19T09:31:16Z</time>
      </trkpt>
      <trkpt lat="43.89724" lon="7.26489">
        <ele>678</ele>
        <time>2011-11-19T09:31:26Z</time>
      </trkpt>
      <trkpt lat="43.89721" lon="7.26509">
        <ele>664</ele>
        <time>2011-11-19T09:31:36Z</time>
      </trkpt>
      <trkpt lat="43.89716" lon="7.2653">
        <ele>655</ele>
        <time>2011-11-19T09:31:46Z</time>
      </trkpt>
      <trkpt lat="43.89709" lon="7.26545">
        <ele>655</ele>
        <time>2011-11-19T09:31:57Z</time>
      </trkpt>
      <trkpt lat="43.89699" lon="7.26559">
        <ele>660</ele>
        <time>2011-11-19T09:32:07Z</time>
      </trkpt>
      <trkpt lat="43.89689" lon="7.26572">
        <ele>661</ele>
        <time>2011-11-19T09:32:18Z</time>
      </trkpt>
      <trkpt lat="43.89681" lon="7.26585">
        <ele>668</ele>
        <time>2011-11-19T09:32:28Z</time>
      </trkpt>
      <trkpt lat="43.89673" lon="7.26601">
        <ele>674</ele>
        <time>2011-11-19T09:32:38Z</time>
      </trkpt>
      <trkpt lat="43.89666" lon="7.26618">
        <ele>674</ele>
        <time>2011-11-19T09:32:48Z</time>
      </trkpt>
      <trkpt lat="43.89657" lon="7.26631">
        <ele>680</ele>
        <time>2011-11-19T09:32:58Z</time>
      </trkpt>
      <trkpt lat="43.8965" lon="7.26647">
        <ele>686</ele>
        <time>2011-11-19T09:33:09Z</time>
      </trkpt>
      <trkpt lat="43.89647" lon="7.26662">
        <ele>689</ele>
        <time>2011-11-19T09:33:19Z</time>
      </trkpt>
      <trkpt lat="43.89645" lon="7.2668">
        <ele>689</ele>
        <time>2011-11-19T09:33:29Z</time>
      </trkpt>
      <trkpt lat="43.89641" lon="7.26698">
        <ele>691</ele>
        <time>2011-11-19T09:33:39Z</time>
      </trkpt>
      <trkpt lat="43.89641" lon="7.26719">
        <ele>691</ele>
        <time>2011-11-19T09:33:49Z</time>
      </trkpt>
      <trkpt lat="43.89641" lon="7.26737">
        <ele>693</ele>
        <time>2011-11-19T09:33:59Z</time>
      </trkpt>
      <trkpt lat="43.89639" lon="7.26752">
        <ele>699</ele>
        <time>2011-11-19T09:34:09Z</time>
      </trkpt>
      <trkpt lat="43.89633" lon="7.26773">
        <ele>701</ele>
        <time>2011-11-19T09:34:19Z</time>
      </trkpt>
      <trkpt lat="43.89625" lon="7.26793">
        <ele>695</ele>
        <time>2011-11-19T09:34:29Z</time>
      </trkpt>
      <trkpt lat="43.89622" lon="7.26812">
        <ele>695</ele>
        <time>2011-11-19T09:34:39Z</time>
      </trkpt>
      <trkpt lat="43.8962" lon="7.26828">
        <ele>702</ele>
        <time>2011-11-19T09:34:49Z</time>
      </trkpt>
      <trkpt lat="43.89614" lon="7.2685">
        <ele>706</ele>
        <time>2011-11-19T09:34:59Z</time>
      </trkpt>
      <trkpt lat="43.89608" lon="7.26868">
        <ele>706</ele>
        <time>2011-11-19T09:35:09Z</time>
      </trkpt>
      <trkpt lat="43.89603" lon="7.26886">
        <ele>706</ele>
        <time>2011-11-19T09:35:19Z</time>
      </trkpt>
      <trkpt lat="43.89597" lon="7.26898">
        <ele>706</ele>
        <time>2011-11-19T09:35:31Z</time>
      </trkpt>
      <trkpt lat="43.89605" lon="7.26884">
        <ele>709</ele>
        <time>2011-11-19T09:35:41Z</time>
      </trkpt>
      <trkpt lat="43.89609" lon="7.26866">
        <ele>713</ele>
        <time>2011-11-19T09:35:51Z</time>
      </trkpt>
      <trkpt lat="43.89611" lon="7.26845">
        <ele>715</ele>
        <time>2011-11-19T09:36:01Z</time>
      </trkpt>
      <trkpt lat="43.89614" lon="7.26825">
        <ele>716</ele>
        <time>2011-11-19T09:36:11Z</time>
      </trkpt>
      <trkpt lat="43.89614" lon="7.26807">
        <ele>716</ele>
        <time>2011-11-19T09:36:21Z</time>
      </trkpt>
      <trkpt lat="43.89616" lon="7.26786">
        <ele>716</ele>
        <time>2011-11-19T09:36:31Z</time>
      </trkpt>
      <trkpt lat="43.89615" lon="7.26765">
        <ele>716</ele>
        <time>2011-11-19T09:36:41Z</time>
      </trkpt>
      <trkpt lat="43.89615" lon="7.26747">
        <ele>723</ele>
        <time>2011-11-19T09:36:51Z</time>
      </trkpt>
      <trkpt lat="43.89614" lon="7.26728">
        <ele>729</ele>
        <time>2011-11-19T09:37:01Z</time>
      </trkpt>
      <trkpt lat="43.89612" lon="7.26708">
        <ele>733</ele>
        <time>2011-11-19T09:37:11Z</time>
      </trkpt>
      <trkpt lat="43.89612" lon="7.26689">
        <ele>733</ele>
        <time>2011-11-19T09:37:21Z</time>
      </trkpt>
      <trkpt lat="43.89607" lon="7.2667">
        <ele>733</ele>
        <time>2011-11-19T09:37:31Z</time>
      </trkpt>
      <trkpt lat="43.89609" lon="7.26651">
        <ele>733</ele>
        <time>2011-11-19T09:37:41Z</time>
      </trkpt>
      <trkpt lat="43.89612" lon="7.26629">
        <ele>733</ele>
        <time>2011-11-19T09:37:51Z</time>
      </trkpt>
      <trkpt lat="43.89613" lon="7.26609">
        <ele>733</ele>
        <time>2011-11-19T09:38:01Z</time>
      </trkpt>
      <trkpt lat="43.89614" lon="7.26587">
        <ele>733</ele>
        <time>2011-11-19T09:38:11Z</time>
      </trkpt>
      <trkpt lat="43.89613" lon="7.26567">
        <ele>735</ele>
        <time>2011-11-19T09:38:21Z</time>
      </trkpt>
      <trkpt lat="43.89617" lon="7.26549">
        <ele>742</ele>
        <time>2011-11-19T09:38:31Z</time>
      </trkpt>
      <trkpt lat="43.89618" lon="7.26529">
        <ele>746</ele>
        <time>2011-11-19T09:38:41Z</time>
      </trkpt>
      <trkpt lat="43.89622" lon="7.26508">
        <ele>746</ele>
        <time>2011-11-19T09:38:51Z</time>
      </trkpt>
      <trkpt lat="43.89626" lon="7.26487">
        <ele>745</ele>
        <time>2011-11-19T09:39:01Z</time>
      </trkpt>
      <trkpt lat="43.89629" lon="7.26466">
        <ele>742</ele>
        <time>2011-11-19T09:39:11Z</time>
      </trkpt>
      <trkpt lat="43.89619" lon="7.26458">
        <ele>738</ele>
        <time>2011-11-19T09:39:22Z</time>
      </trkpt>
      <trkpt lat="43.89618" lon="7.26472">
        <ele>737</ele>
        <time>2011-11-19T09:39:32Z</time>
      </trkpt>
      <trkpt lat="43.89612" lon="7.26492">
        <ele>737</ele>
        <time>2011-11-19T09:39:42Z</time>
      </trkpt>
      <trkpt lat="43.89603" lon="7.26506">
        <ele>737</ele>
        <time>2011-11-19T09:39:52Z</time>
      </trkpt>
      <trkpt lat="43.89584" lon="7.26517">
        <ele>737</ele>
        <time>2011-11-19T09:40:02Z</time>
      </trkpt>
      <trkpt lat="43.89578" lon="7.26541">
        <ele>737</ele>
        <time>2011-11-19T09:40:12Z</time>
      </trkpt>
      <trkpt lat="43.89582" lon="7.26562">
        <ele>737</ele>
        <time>2011-11-19T09:40:22Z</time>
      </trkpt>
      <trkpt lat="43.89588" lon="7.26583">
        <ele>737</ele>
        <time>2011-11-19T09:40:32Z</time>
      </trkpt>
      <trkpt lat="43.89585" lon="7.26604">
        <ele>737</ele>
        <time>2011-11-19T09:40:42Z</time>
      </trkpt>
      <trkpt lat="43.89578" lon="7.26623">
        <ele>738</ele>
        <time>2011-11-19T09:40:52Z</time>
      </trkpt>
      <trkpt lat="43.89573" lon="7.26644">
        <ele>739</ele>
        <time>2011-11-19T09:41:03Z</time>
      </trkpt>
      <trkpt lat="43.89569" lon="7.26664">
        <ele>742</ele>
        <time>2011-11-19T09:41:13Z</time>
      </trkpt>
      <trkpt lat="43.89568" lon="7.26683">
        <ele>744</ele>
        <time>2011-11-19T09:41:23Z</time>
      </trkpt>
      <trkpt lat="43.89568" lon="7.26704">
        <ele>745</ele>
        <time>2011-11-19T09:41:33Z</time>
      </trkpt>
      <trkpt lat="43.89567" lon="7.26719">
        <ele>745</ele>
        <time>2011-11-19T09:41:45Z</time>
      </trkpt>
      <trkpt lat="43.89566" lon="7.26721">
        <ele>745</ele>
        <time>2011-11-19T09:41:56Z</time>
      </trkpt>
      <trkpt lat="43.89566" lon="7.26723">
        <ele>747</ele>
        <time>2011-11-19T09:41:58Z</time>
      </trkpt>
      <trkpt lat="43.89564" lon="7.26743">
        <ele>748</ele>
        <time>2011-11-19T09:42:08Z</time>
      </trkpt>
      <trkpt lat="43.89562" lon="7.26772">
        <ele>748</ele>
        <time>2011-11-19T09:42:18Z</time>
      </trkpt>
      <trkpt lat="43.89561" lon="7.26798">
        <ele>751</ele>
        <time>2011-11-19T09:42:28Z</time>
      </trkpt>
      <trkpt lat="43.89557" lon="7.2682">
        <ele>755</ele>
        <time>2011-11-19T09:42:38Z</time>
      </trkpt>
      <trkpt lat="43.8955" lon="7.26843">
        <ele>758</ele>
        <time>2011-11-19T09:42:48Z</time>
      </trkpt>
      <trkpt lat="43.89542" lon="7.26888">
        <ele>758</ele>
        <time>2011-11-19T09:42:58Z</time>
      </trkpt>
      <trkpt lat="43.8954" lon="7.26909">
        <ele>761</ele>
        <time>2011-11-19T09:43:08Z</time>
      </trkpt>
      <trkpt lat="43.89537" lon="7.26926">
        <ele>765</ele>
        <time>2011-11-19T09:43:18Z</time>
      </trkpt>
      <trkpt lat="43.89529" lon="7.26941">
        <ele>769</ele>
        <time>2011-11-19T09:43:28Z</time>
      </trkpt>
      <trkpt lat="43.89521" lon="7.26955">
        <ele>772</ele>
        <time>2011-11-19T09:43:38Z</time>
      </trkpt>
      <trkpt lat="43.89513" lon="7.2697">
        <ele>775</ele>
        <time>2011-11-19T09:43:48Z</time>
      </trkpt>
      <trkpt lat="43.89506" lon="7.26979">
        <ele>777</ele>
        <time>2011-11-19T09:43:59Z</time>
      </trkpt>
      <trkpt lat="43.89504" lon="7.26982">
        <ele>775</ele>
        <time>2011-11-19T09:44:09Z</time>
      </trkpt>
      <trkpt lat="43.89503" lon="7.26983">
        <ele>772</ele>
        <time>2011-11-19T09:44:19Z</time>
      </trkpt>
      <trkpt lat="43.89499" lon="7.2699">
        <ele>772</ele>
        <time>2011-11-19T09:44:29Z</time>
      </trkpt>
      <trkpt lat="43.89494" lon="7.26999">
        <ele>772</ele>
        <time>2011-11-19T09:44:39Z</time>
      </trkpt>
      <trkpt lat="43.8949" lon="7.27009">
        <ele>772</ele>
        <time>2011-11-19T09:44:49Z</time>
      </trkpt>
      <trkpt lat="43.89487" lon="7.27015">
        <ele>772</ele>
        <time>2011-11-19T09:44:59Z</time>
      </trkpt>
      <trkpt lat="43.89485" lon="7.27021">
        <ele>772</ele>
        <time>2011-11-19T09:45:09Z</time>
      </trkpt>
      <trkpt lat="43.89481" lon="7.27026">
        <ele>772</ele>
        <time>2011-11-19T09:45:19Z</time>
      </trkpt>
      <trkpt lat="43.89481" lon="7.2703">
        <ele>770</ele>
        <time>2011-11-19T09:45:36Z</time>
      </trkpt>
      <trkpt lat="43.89476" lon="7.27049">
        <ele>770</ele>
        <time>2011-11-19T09:45:46Z</time>
      </trkpt>
      <trkpt lat="43.89475" lon="7.27069">
        <ele>772</ele>
        <time>2011-11-19T09:45:56Z</time>
      </trkpt>
      <trkpt lat="43.8947" lon="7.27093">
        <ele>774</ele>
        <time>2011-11-19T09:46:06Z</time>
      </trkpt>
      <trkpt lat="43.89457" lon="7.27114">
        <ele>778</ele>
        <time>2011-11-19T09:46:17Z</time>
      </trkpt>
      <trkpt lat="43.89443" lon="7.27132">
        <ele>780</ele>
        <time>2011-11-19T09:46:27Z</time>
      </trkpt>
      <trkpt lat="43.89437" lon="7.27161">
        <ele>781</ele>
        <time>2011-11-19T09:46:37Z</time>
      </trkpt>
      <trkpt lat="43.8944" lon="7.27189">
        <ele>781</ele>
        <time>2011-11-19T09:46:47Z</time>
      </trkpt>
      <trkpt lat="43.89437" lon="7.27214">
        <ele>781</ele>
        <time>2011-11-19T09:46:57Z</time>
      </trkpt>
      <trkpt lat="43.89428" lon="7.27233">
        <ele>781</ele>
        <time>2011-11-19T09:47:07Z</time>
      </trkpt>
      <trkpt lat="43.89415" lon="7.27247">
        <ele>783</ele>
        <time>2011-11-19T09:47:17Z</time>
      </trkpt>
      <trkpt lat="43.89414" lon="7.27266">
        <ele>787</ele>
        <time>2011-11-19T09:47:27Z</time>
      </trkpt>
      <trkpt lat="43.89415" lon="7.27291">
        <ele>787</ele>
        <time>2011-11-19T09:47:37Z</time>
      </trkpt>
      <trkpt lat="43.89416" lon="7.27313">
        <ele>782</ele>
        <time>2011-11-19T09:47:47Z</time>
      </trkpt>
      <trkpt lat="43.8942" lon="7.27332">
        <ele>782</ele>
        <time>2011-11-19T09:47:57Z</time>
      </trkpt>
      <trkpt lat="43.89424" lon="7.27352">
        <ele>783</ele>
        <time>2011-11-19T09:48:07Z</time>
      </trkpt>
      <trkpt lat="43.89426" lon="7.27375">
        <ele>784</ele>
        <time>2011-11-19T09:48:17Z</time>
      </trkpt>
      <trkpt lat="43.89432" lon="7.27399">
        <ele>785</ele>
        <time>2011-11-19T09:48:28Z</time>
      </trkpt>
      <trkpt lat="43.89442" lon="7.27417">
        <ele>783</ele>
        <time>2011-11-19T09:48:38Z</time>
      </trkpt>
      <trkpt lat="43.89446" lon="7.27436">
        <ele>779</ele>
        <time>2011-11-19T09:48:48Z</time>
      </trkpt>
      <trkpt lat="43.89443" lon="7.27455">
        <ele>782</ele>
        <time>2011-11-19T09:48:58Z</time>
      </trkpt>
      <trkpt lat="43.89437" lon="7.27474">
        <ele>790</ele>
        <time>2011-11-19T09:49:08Z</time>
      </trkpt>
      <trkpt lat="43.89436" lon="7.27494">
        <ele>795</ele>
        <time>2011-11-19T09:49:18Z</time>
      </trkpt>
      <trkpt lat="43.89437" lon="7.27513">
        <ele>799</ele>
        <time>2011-11-19T09:49:28Z</time>
      </trkpt>
      <trkpt lat="43.89435" lon="7.27517">
        <ele>801</ele>
        <time>2011-11-19T09:49:41Z</time>
      </trkpt>
      <trkpt lat="43.89433" lon="7.27517">
        <ele>801</ele>
        <time>2011-11-19T09:49:54Z</time>
      </trkpt>
      <trkpt lat="43.89431" lon="7.27518">
        <ele>799</ele>
        <time>2011-11-19T09:50:06Z</time>
      </trkpt>
      <trkpt lat="43.89426" lon="7.27528">
        <ele>799</ele>
        <time>2011-11-19T09:50:17Z</time>
      </trkpt>
      <trkpt lat="43.89422" lon="7.27529">
        <ele>799</ele>
        <time>2011-11-19T09:50:27Z</time>
      </trkpt>
      <trkpt lat="43.89417" lon="7.27531">
        <ele>802</ele>
        <time>2011-11-19T09:50:38Z</time>
      </trkpt>
      <trkpt lat="43.89409" lon="7.27536">
        <ele>804</ele>
        <time>2011-11-19T09:50:48Z</time>
      </trkpt>
      <trkpt lat="43.89401" lon="7.27543">
        <ele>804</ele>
        <time>2011-11-19T09:50:58Z</time>
      </trkpt>
      <trkpt lat="43.89397" lon="7.27553">
        <ele>806</ele>
        <time>2011-11-19T09:51:08Z</time>
      </trkpt>
      <trkpt lat="43.89401" lon="7.27563">
        <ele>808</ele>
        <time>2011-11-19T09:51:18Z</time>
      </trkpt>
      <trkpt lat="43.89407" lon="7.27573">
        <ele>809</ele>
        <time>2011-11-19T09:51:28Z</time>
      </trkpt>
      <trkpt lat="43.89413" lon="7.27581">
        <ele>809</ele>
        <time>2011-11-19T09:51:38Z</time>
      </trkpt>
      <trkpt lat="43.89419" lon="7.27589">
        <ele>809</ele>
        <time>2011-11-19T09:51:48Z</time>
      </trkpt>
      <trkpt lat="43.89424" lon="7.276">
        <ele>811</ele>
        <time>2011-11-19T09:51:58Z</time>
      </trkpt>
      <trkpt lat="43.89429" lon="7.27611">
        <ele>812</ele>
        <time>2011-11-19T09:52:08Z</time>
      </trkpt>
      <trkpt lat="43.89435" lon="7.27621">
        <ele>814</ele>
        <time>2011-11-19T09:52:18Z</time>
      </trkpt>
      <trkpt lat="43.89438" lon="7.27631">
        <ele>819</ele>
        <time>2011-11-19T09:52:28Z</time>
      </trkpt>
      <trkpt lat="43.89439" lon="7.27642">
        <ele>822</ele>
        <time>2011-11-19T09:52:38Z</time>
      </trkpt>
      <trkpt lat="43.89442" lon="7.27643">
        <ele>824</ele>
        <time>2011-11-19T09:52:48Z</time>
      </trkpt>
      <trkpt lat="43.89443" lon="7.27644">
        <ele>825</ele>
        <time>2011-11-19T09:52:58Z</time>
      </trkpt>
      <trkpt lat="43.89445" lon="7.27666">
        <ele>825</ele>
        <time>2011-11-19T09:53:08Z</time>
      </trkpt>
      <trkpt lat="43.89446" lon="7.27689">
        <ele>825</ele>
        <time>2011-11-19T09:53:18Z</time>
      </trkpt>
      <trkpt lat="43.89438" lon="7.27709">
        <ele>827</ele>
        <time>2011-11-19T09:53:28Z</time>
      </trkpt>
      <trkpt lat="43.89428" lon="7.27728">
        <ele>829</ele>
        <time>2011-11-19T09:53:38Z</time>
      </trkpt>
      <trkpt lat="43.8942" lon="7.27744">
        <ele>831</ele>
        <time>2011-11-19T09:53:48Z</time>
      </trkpt>
      <trkpt lat="43.89411" lon="7.27758">
        <ele>833</ele>
        <time>2011-11-19T09:53:59Z</time>
      </trkpt>
      <trkpt lat="43.8941" lon="7.2776">
        <ele>833</ele>
        <time>2011-11-19T09:54:02Z</time>
      </trkpt>
      <trkpt lat="43.89407" lon="7.2776">
        <ele>833</ele>
        <time>2011-11-19T09:54:12Z</time>
      </trkpt>
      <trkpt lat="43.89405" lon="7.27759">
        <ele>833</ele>
        <time>2011-11-19T09:54:26Z</time>
      </trkpt>
      <trkpt lat="43.89403" lon="7.27758">
        <ele>833</ele>
        <time>2011-11-19T09:54:43Z</time>
      </trkpt>
      <trkpt lat="43.89399" lon="7.27762">
        <ele>827</ele>
        <time>2011-11-19T09:54:53Z</time>
      </trkpt>
      <trkpt lat="43.894" lon="7.27765">
        <ele>825</ele>
        <time>2011-11-19T09:55:08Z</time>
      </trkpt>
      <trkpt lat="43.89403" lon="7.27764">
        <ele>825</ele>
        <time>2011-11-19T09:55:18Z</time>
      </trkpt>
      <trkpt lat="43.89403" lon="7.27763">
        <ele>829</ele>
        <time>2011-11-19T09:55:43Z</time>
      </trkpt>
      <trkpt lat="43.89403" lon="7.27764">
        <ele>828</ele>
        <time>2011-11-19T09:56:06Z</time>
      </trkpt>
      <trkpt lat="43.89418" lon="7.27777">
        <ele>828</ele>
        <time>2011-11-19T09:56:16Z</time>
      </trkpt>
      <trkpt lat="43.89436" lon="7.27785">
        <ele>828</ele>
        <time>2011-11-19T09:56:27Z</time>
      </trkpt>
      <trkpt lat="43.89449" lon="7.27799">
        <ele>828</ele>
        <time>2011-11-19T09:56:37Z</time>
      </trkpt>
      <trkpt lat="43.89445" lon="7.2782">
        <ele>830</ele>
        <time>2011-11-19T09:56:48Z</time>
      </trkpt>
      <trkpt lat="43.89436" lon="7.27842">
        <ele>831</ele>
        <time>2011-11-19T09:56:59Z</time>
      </trkpt>
      <trkpt lat="43.89429" lon="7.27861">
        <ele>831</ele>
        <time>2011-11-19T09:57:09Z</time>
      </trkpt>
      <trkpt lat="43.89432" lon="7.27883">
        <ele>834</ele>
        <time>2011-11-19T09:57:20Z</time>
      </trkpt>
      <trkpt lat="43.89441" lon="7.27909">
        <ele>836</ele>
        <time>2011-11-19T09:57:30Z</time>
      </trkpt>
      <trkpt lat="43.89438" lon="7.2794">
        <ele>837</ele>
        <time>2011-11-19T09:57:41Z</time>
      </trkpt>
      <trkpt lat="43.89432" lon="7.27972">
        <ele>837</ele>
        <time>2011-11-19T09:57:52Z</time>
      </trkpt>
      <trkpt lat="43.89426" lon="7.28">
        <ele>837</ele>
        <time>2011-11-19T09:58:02Z</time>
      </trkpt>
      <trkpt lat="43.89419" lon="7.28029">
        <ele>837</ele>
        <time>2011-11-19T09:58:12Z</time>
      </trkpt>
      <trkpt lat="43.8941" lon="7.28056">
        <ele>838</ele>
        <time>2011-11-19T09:58:22Z</time>
      </trkpt>
      <trkpt lat="43.89404" lon="7.28079">
        <ele>839</ele>
        <time>2011-11-19T09:58:32Z</time>
      </trkpt>
      <trkpt lat="43.894" lon="7.28101">
        <ele>841</ele>
        <time>2011-11-19T09:58:43Z</time>
      </trkpt>
      <trkpt lat="43.89405" lon="7.28121">
        <ele>842</ele>
        <time>2011-11-19T09:58:53Z</time>
      </trkpt>
      <trkpt lat="43.89399" lon="7.28139">
        <ele>844</ele>
        <time>2011-11-19T09:59:03Z</time>
      </trkpt>
      <trkpt lat="43.89389" lon="7.28155">
        <ele>844</ele>
        <time>2011-11-19T09:59:13Z</time>
      </trkpt>
      <trkpt lat="43.89385" lon="7.28176">
        <ele>845</ele>
        <time>2011-11-19T09:59:23Z</time>
      </trkpt>
      <trkpt lat="43.89384" lon="7.28194">
        <ele>847</ele>
        <time>2011-11-19T09:59:33Z</time>
      </trkpt>
      <trkpt lat="43.89379" lon="7.28227">
        <ele>849</ele>
        <time>2011-11-19T09:59:43Z</time>
      </trkpt>
      <trkpt lat="43.89366" lon="7.28281">
        <ele>849</ele>
        <time>2011-11-19T09:59:53Z</time>
      </trkpt>
      <trkpt lat="43.89358" lon="7.28307">
        <ele>849</ele>
        <time>2011-11-19T10:00:03Z</time>
      </trkpt>
      <trkpt lat="43.89347" lon="7.28318">
        <ele>850</ele>
        <time>2011-11-19T10:00:13Z</time>
      </trkpt>
      <trkpt lat="43.89331" lon="7.28318">
        <ele>853</ele>
        <time>2011-11-19T10:00:23Z</time>
      </trkpt>
      <trkpt lat="43.89319" lon="7.28325">
        <ele>855</ele>
        <time>2011-11-19T10:00:33Z</time>
      </trkpt>
      <trkpt lat="43.89311" lon="7.28342">
        <ele>857</ele>
        <time>2011-11-19T10:00:43Z</time>
      </trkpt>
      <trkpt lat="43.89298" lon="7.28348">
        <ele>860</ele>
        <time>2011-11-19T10:00:53Z</time>
      </trkpt>
      <trkpt lat="43.89283" lon="7.28343">
        <ele>862</ele>
        <time>2011-11-19T10:01:04Z</time>
      </trkpt>
      <trkpt lat="43.8927" lon="7.28338">
        <ele>862</ele>
        <time>2011-11-19T10:01:14Z</time>
      </trkpt>
      <trkpt lat="43.89258" lon="7.28334">
        <ele>863</ele>
        <time>2011-11-19T10:01:24Z</time>
      </trkpt>
      <trkpt lat="43.89246" lon="7.28332">
        <ele>866</ele>
        <time>2011-11-19T10:01:34Z</time>
      </trkpt>
      <trkpt lat="43.89234" lon="7.28337">
        <ele>870</ele>
        <time>2011-11-19T10:01:44Z</time>
      </trkpt>
      <trkpt lat="43.89222" lon="7.28346">
        <ele>871</ele>
        <time>2011-11-19T10:01:55Z</time>
      </trkpt>
      <trkpt lat="43.8921" lon="7.28354">
        <ele>872</ele>
        <time>2011-11-19T10:02:06Z</time>
      </trkpt>
      <trkpt lat="43.89199" lon="7.28363">
        <ele>872</ele>
        <time>2011-11-19T10:02:16Z</time>
      </trkpt>
      <trkpt lat="43.89188" lon="7.28378">
        <ele>872</ele>
        <time>2011-11-19T10:02:27Z</time>
      </trkpt>
      <trkpt lat="43.8918" lon="7.28391">
        <ele>872</ele>
        <time>2011-11-19T10:02:37Z</time>
      </trkpt>
      <trkpt lat="43.89171" lon="7.28408">
        <ele>872</ele>
        <time>2011-11-19T10:02:48Z</time>
      </trkpt>
      <trkpt lat="43.89162" lon="7.28422">
        <ele>872</ele>
        <time>2011-11-19T10:02:59Z</time>
      </trkpt>
      <trkpt lat="43.89151" lon="7.28429">
        <ele>872</ele>
        <time>2011-11-19T10:03:09Z</time>
      </trkpt>
      <trkpt lat="43.89139" lon="7.28435">
        <ele>872</ele>
        <time>2011-11-19T10:03:19Z</time>
      </trkpt>
      <trkpt lat="43.8913" lon="7.28438">
        <ele>872</ele>
        <time>2011-11-19T10:03:31Z</time>
      </trkpt>
      <trkpt lat="43.8913" lon="7.28435">
        <ele>872</ele>
        <time>2011-11-19T10:03:50Z</time>
      </trkpt>
      <trkpt lat="43.89131" lon="7.28432">
        <ele>873</ele>
        <time>2011-11-19T10:04:07Z</time>
      </trkpt>
      <trkpt lat="43.89126" lon="7.28429">
        <ele>879</ele>
        <time>2011-11-19T10:04:17Z</time>
      </trkpt>
      <trkpt lat="43.89119" lon="7.28437">
        <ele>880</ele>
        <time>2011-11-19T10:04:29Z</time>
      </trkpt>
      <trkpt lat="43.89111" lon="7.28446">
        <ele>880</ele>
        <time>2011-11-19T10:04:40Z</time>
      </trkpt>
      <trkpt lat="43.89105" lon="7.28455">
        <ele>880</ele>
        <time>2011-11-19T10:04:50Z</time>
      </trkpt>
      <trkpt lat="43.89102" lon="7.2845">
        <ele>887</ele>
        <time>2011-11-19T10:05:01Z</time>
      </trkpt>
      <trkpt lat="43.89095" lon="7.2846">
        <ele>888</ele>
        <time>2011-11-19T10:05:11Z</time>
      </trkpt>
      <trkpt lat="43.89089" lon="7.28461">
        <ele>888</ele>
        <time>2011-11-19T10:05:21Z</time>
      </trkpt>
      <trkpt lat="43.89078" lon="7.28465">
        <ele>891</ele>
        <time>2011-11-19T10:05:31Z</time>
      </trkpt>
      <trkpt lat="43.89067" lon="7.28468">
        <ele>891</ele>
        <time>2011-11-19T10:05:42Z</time>
      </trkpt>
      <trkpt lat="43.89058" lon="7.28478">
        <ele>891</ele>
        <time>2011-11-19T10:05:52Z</time>
      </trkpt>
      <trkpt lat="43.89046" lon="7.28469">
        <ele>889</ele>
        <time>2011-11-19T10:06:02Z</time>
      </trkpt>
      <trkpt lat="43.89035" lon="7.28469">
        <ele>893</ele>
        <time>2011-11-19T10:06:12Z</time>
      </trkpt>
      <trkpt lat="43.89026" lon="7.28462">
        <ele>894</ele>
        <time>2011-11-19T10:06:22Z</time>
      </trkpt>
      <trkpt lat="43.89019" lon="7.28458">
        <ele>898</ele>
        <time>2011-11-19T10:06:32Z</time>
      </trkpt>
      <trkpt lat="43.8901" lon="7.28444">
        <ele>900</ele>
        <time>2011-11-19T10:06:43Z</time>
      </trkpt>
      <trkpt lat="43.89006" lon="7.28434">
        <ele>904</ele>
        <time>2011-11-19T10:06:53Z</time>
      </trkpt>
      <trkpt lat="43.89008" lon="7.28439">
        <ele>904</ele>
        <time>2011-11-19T10:07:03Z</time>
      </trkpt>
      <trkpt lat="43.8901" lon="7.28446">
        <ele>904</ele>
        <time>2011-11-19T10:07:14Z</time>
      </trkpt>
      <trkpt lat="43.8901" lon="7.28452">
        <ele>904</ele>
        <time>2011-11-19T10:07:25Z</time>
      </trkpt>
      <trkpt lat="43.89011" lon="7.28461">
        <ele>904</ele>
        <time>2011-11-19T10:07:35Z</time>
      </trkpt>
      <trkpt lat="43.89012" lon="7.28472">
        <ele>904</ele>
        <time>2011-11-19T10:07:45Z</time>
      </trkpt>
      <trkpt lat="43.89015" lon="7.28486">
        <ele>904</ele>
        <time>2011-11-19T10:07:56Z</time>
      </trkpt>
      <trkpt lat="43.89017" lon="7.28501">
        <ele>904</ele>
        <time>2011-11-19T10:08:07Z</time>
      </trkpt>
      <trkpt lat="43.89029" lon="7.285">
        <ele>909</ele>
        <time>2011-11-19T10:08:17Z</time>
      </trkpt>
      <trkpt lat="43.89043" lon="7.28496">
        <ele>919</ele>
        <time>2011-11-19T10:08:27Z</time>
      </trkpt>
      <trkpt lat="43.8905" lon="7.2849">
        <ele>926</ele>
        <time>2011-11-19T10:08:37Z</time>
      </trkpt>
      <trkpt lat="43.8906" lon="7.28493">
        <ele>927</ele>
        <time>2011-11-19T10:08:48Z</time>
      </trkpt>
      <trkpt lat="43.89068" lon="7.28498">
        <ele>927</ele>
        <time>2011-11-19T10:08:58Z</time>
      </trkpt>
      <trkpt lat="43.89077" lon="7.28497">
        <ele>928</ele>
        <time>2011-11-19T10:09:08Z</time>
      </trkpt>
      <trkpt lat="43.89074" lon="7.28508">
        <ele>932</ele>
        <time>2011-11-19T10:09:19Z</time>
      </trkpt>
      <trkpt lat="43.89069" lon="7.28514">
        <ele>932</ele>
        <time>2011-11-19T10:09:30Z</time>
      </trkpt>
      <trkpt lat="43.89061" lon="7.28516">
        <ele>932</ele>
        <time>2011-11-19T10:09:40Z</time>
      </trkpt>
      <trkpt lat="43.89054" lon="7.28523">
        <ele>932</ele>
        <time>2011-11-19T10:09:50Z</time>
      </trkpt>
      <trkpt lat="43.89047" lon="7.28526">
        <ele>932</ele>
        <time>2011-11-19T10:10:00Z</time>
      </trkpt>
      <trkpt lat="43.89038" lon="7.2853">
        <ele>932</ele>
        <time>2011-11-19T10:10:10Z</time>
      </trkpt>
      <trkpt lat="43.89027" lon="7.28533">
        <ele>934</ele>
        <time>2011-11-19T10:10:21Z</time>
      </trkpt>
      <trkpt lat="43.89015" lon="7.28534">
        <ele>934</ele>
        <time>2011-11-19T10:10:32Z</time>
      </trkpt>
      <trkpt lat="43.89007" lon="7.28534">
        <ele>935</ele>
        <time>2011-11-19T10:10:42Z</time>
      </trkpt>
      <trkpt lat="43.88999" lon="7.28534">
        <ele>938</ele>
        <time>2011-11-19T10:10:52Z</time>
      </trkpt>
      <trkpt lat="43.88989" lon="7.28534">
        <ele>939</ele>
        <time>2011-11-19T10:11:03Z</time>
      </trkpt>
      <trkpt lat="43.88981" lon="7.28533">
        <ele>942</ele>
        <time>2011-11-19T10:11:14Z</time>
      </trkpt>
      <trkpt lat="43.88973" lon="7.2853">
        <ele>945</ele>
        <time>2011-11-19T10:11:24Z</time>
      </trkpt>
      <trkpt lat="43.88977" lon="7.2852">
        <ele>945</ele>
        <time>2011-11-19T10:11:34Z</time>
      </trkpt>
      <trkpt lat="43.88985" lon="7.2851">
        <ele>944</ele>
        <time>2011-11-19T10:11:44Z</time>
      </trkpt>
      <trkpt lat="43.88991" lon="7.28499">
        <ele>944</ele>
        <time>2011-11-19T10:11:55Z</time>
      </trkpt>
      <trkpt lat="43.88984" lon="7.285">
        <ele>947</ele>
        <time>2011-11-19T10:12:06Z</time>
      </trkpt>
      <trkpt lat="43.88979" lon="7.28508">
        <ele>952</ele>
        <time>2011-11-19T10:12:18Z</time>
      </trkpt>
      <trkpt lat="43.88969" lon="7.28513">
        <ele>956</ele>
        <time>2011-11-19T10:12:28Z</time>
      </trkpt>
      <trkpt lat="43.88962" lon="7.28516">
        <ele>959</ele>
        <time>2011-11-19T10:12:38Z</time>
      </trkpt>
      <trkpt lat="43.88949" lon="7.28519">
        <ele>964</ele>
        <time>2011-11-19T10:12:54Z</time>
      </trkpt>
      <trkpt lat="43.88935" lon="7.28531">
        <ele>961</ele>
        <time>2011-11-19T10:13:05Z</time>
      </trkpt>
      <trkpt lat="43.88934" lon="7.28545">
        <ele>955</ele>
        <time>2011-11-19T10:13:15Z</time>
      </trkpt>
      <trkpt lat="43.88936" lon="7.28558">
        <ele>953</ele>
        <time>2011-11-19T10:13:25Z</time>
      </trkpt>
      <trkpt lat="43.88938" lon="7.28572">
        <ele>953</ele>
        <time>2011-11-19T10:13:35Z</time>
      </trkpt>
      <trkpt lat="43.8894" lon="7.2858">
        <ele>953</ele>
        <time>2011-11-19T10:13:45Z</time>
      </trkpt>
      <trkpt lat="43.88948" lon="7.28593">
        <ele>951</ele>
        <time>2011-11-19T10:13:55Z</time>
      </trkpt>
      <trkpt lat="43.88962" lon="7.28607">
        <ele>951</ele>
        <time>2011-11-19T10:14:05Z</time>
      </trkpt>
      <trkpt lat="43.88976" lon="7.28619">
        <ele>951</ele>
        <time>2011-11-19T10:14:15Z</time>
      </trkpt>
      <trkpt lat="43.88993" lon="7.28622">
        <ele>951</ele>
        <time>2011-11-19T10:14:25Z</time>
      </trkpt>
      <trkpt lat="43.89" lon="7.28632">
        <ele>951</ele>
        <time>2011-11-19T10:14:35Z</time>
      </trkpt>
      <trkpt lat="43.88986" lon="7.28634">
        <ele>953</ele>
        <time>2011-11-19T10:14:45Z</time>
      </trkpt>
      <trkpt lat="43.88971" lon="7.2863">
        <ele>955</ele>
        <time>2011-11-19T10:14:55Z</time>
      </trkpt>
      <trkpt lat="43.88957" lon="7.28622">
        <ele>958</ele>
        <time>2011-11-19T10:15:05Z</time>
      </trkpt>
      <trkpt lat="43.88944" lon="7.28614">
        <ele>962</ele>
        <time>2011-11-19T10:15:15Z</time>
      </trkpt>
      <trkpt lat="43.88929" lon="7.28605">
        <ele>965</ele>
        <time>2011-11-19T10:15:25Z</time>
      </trkpt>
      <trkpt lat="43.88927" lon="7.28614">
        <ele>966</ele>
        <time>2011-11-19T10:15:35Z</time>
      </trkpt>
      <trkpt lat="43.8894" lon="7.28619">
        <ele>969</ele>
        <time>2011-11-19T10:15:45Z</time>
      </trkpt>
      <trkpt lat="43.88952" lon="7.28635">
        <ele>969</ele>
        <time>2011-11-19T10:15:55Z</time>
      </trkpt>
      <trkpt lat="43.88962" lon="7.28654">
        <ele>969</ele>
        <time>2011-11-19T10:16:05Z</time>
      </trkpt>
      <trkpt lat="43.88972" lon="7.2867">
        <ele>969</ele>
        <time>2011-11-19T10:16:15Z</time>
      </trkpt>
      <trkpt lat="43.88986" lon="7.28681">
        <ele>969</ele>
        <time>2011-11-19T10:16:26Z</time>
      </trkpt>
      <trkpt lat="43.88987" lon="7.28684">
        <ele>969</ele>
        <time>2011-11-19T10:16:51Z</time>
      </trkpt>
      <trkpt lat="43.88987" lon="7.28683">
        <ele>971</ele>
        <time>2011-11-19T10:17:01Z</time>
      </trkpt>
      <trkpt lat="43.88988" lon="7.28685">
        <ele>971</ele>
        <time>2011-11-19T10:17:11Z</time>
      </trkpt>
      <trkpt lat="43.88988" lon="7.28685">
        <ele>971</ele>
        <time>2011-11-19T10:17:30Z</time>
      </trkpt>
      <trkpt lat="43.88988" lon="7.28683">
        <ele>972</ele>
        <time>2011-11-19T10:17:44Z</time>
      </trkpt>
      <trkpt lat="43.8899" lon="7.28685">
        <ele>972</ele>
        <time>2011-11-19T10:18:01Z</time>
      </trkpt>
      <trkpt lat="43.8899" lon="7.28683">
        <ele>972</ele>
        <time>2011-11-19T10:18:18Z</time>
      </trkpt>
      <trkpt lat="43.8899" lon="7.28678">
        <ele>976</ele>
        <time>2011-11-19T10:18:37Z</time>
      </trkpt>
      <trkpt lat="43.88989" lon="7.28678">
        <ele>976</ele>
        <time>2011-11-19T10:18:55Z</time>
      </trkpt>
      <trkpt lat="43.8899" lon="7.28681">
        <ele>968</ele>
        <time>2011-11-19T10:19:09Z</time>
      </trkpt>
      <trkpt lat="43.88993" lon="7.28682">
        <ele>962</ele>
        <time>2011-11-19T10:19:27Z</time>
      </trkpt>
      <trkpt lat="43.88993" lon="7.28681">
        <ele>963</ele>
        <time>2011-11-19T10:19:42Z</time>
      </trkpt>
      <trkpt lat="43.88989" lon="7.28678">
        <ele>969</ele>
        <time>2011-11-19T10:19:55Z</time>
      </trkpt>
      <trkpt lat="43.88988" lon="7.28681">
        <ele>973</ele>
        <time>2011-11-19T10:20:05Z</time>
      </trkpt>
      <trkpt lat="43.88988" lon="7.28685">
        <ele>973</ele>
        <time>2011-11-19T10:20:15Z</time>
      </trkpt>
      <trkpt lat="43.88987" lon="7.28685">
        <ele>973</ele>
        <time>2011-11-19T10:20:27Z</time>
      </trkpt>
      <trkpt lat="43.88983" lon="7.28683">
        <ele>973</ele>
        <time>2011-11-19T10:20:39Z</time>
      </trkpt>
      <trkpt lat="43.8898" lon="7.28681">
        <ele>973</ele>
        <time>2011-11-19T10:20:53Z</time>
      </trkpt>
      <trkpt lat="43.88985" lon="7.28681">
        <ele>973</ele>
        <time>2011-11-19T10:21:17Z</time>
      </trkpt>
      <trkpt lat="43.88985" lon="7.2868">
        <ele>973</ele>
        <time>2011-11-19T10:21:36Z</time>
      </trkpt>
      <trkpt lat="43.88986" lon="7.28681">
        <ele>973</ele>
        <time>2011-11-19T10:21:51Z</time>
      </trkpt>
      <trkpt lat="43.88988" lon="7.28682">
        <ele>973</ele>
        <time>2011-11-19T10:22:02Z</time>
      </trkpt>
      <trkpt lat="43.88989" lon="7.28682">
        <ele>973</ele>
        <time>2011-11-19T10:22:12Z</time>
      </trkpt>
      <trkpt lat="43.8899" lon="7.28683">
        <ele>971</ele>
        <time>2011-11-19T10:22:24Z</time>
      </trkpt>
      <trkpt lat="43.88992" lon="7.28684">
        <ele>969</ele>
        <time>2011-11-19T10:22:42Z</time>
      </trkpt>
      <trkpt lat="43.88993" lon="7.28684">
        <ele>968</ele>
        <time>2011-11-19T10:22:53Z</time>
      </trkpt>
      <trkpt lat="43.88994" lon="7.28683">
        <ele>968</ele>
        <time>2011-11-19T10:22:54Z</time>
      </trkpt>
      <trkpt lat="43.89014" lon="7.28675">
        <ele>968</ele>
        <time>2011-11-19T10:23:04Z</time>
      </trkpt>
      <trkpt lat="43.8904" lon="7.28702">
        <ele>965</ele>
        <time>2011-11-19T10:23:14Z</time>
      </trkpt>
      <trkpt lat="43.89066" lon="7.28728">
        <ele>960</ele>
        <time>2011-11-19T10:23:24Z</time>
      </trkpt>
      <trkpt lat="43.89075" lon="7.28739">
        <ele>955</ele>
        <time>2011-11-19T10:23:34Z</time>
      </trkpt>
      <trkpt lat="43.89055" lon="7.2873">
        <ele>951</ele>
        <time>2011-11-19T10:23:44Z</time>
      </trkpt>
      <trkpt lat="43.8907" lon="7.28749">
        <ele>950</ele>
        <time>2011-11-19T10:23:54Z</time>
      </trkpt>
      <trkpt lat="43.89101" lon="7.28769">
        <ele>948</ele>
        <time>2011-11-19T10:24:04Z</time>
      </trkpt>
      <trkpt lat="43.8912" lon="7.28793">
        <ele>944</ele>
        <time>2011-11-19T10:24:14Z</time>
      </trkpt>
      <trkpt lat="43.89138" lon="7.28809">
        <ele>942</ele>
        <time>2011-11-19T10:24:24Z</time>
      </trkpt>
      <trkpt lat="43.89153" lon="7.28835">
        <ele>937</ele>
        <time>2011-11-19T10:24:34Z</time>
      </trkpt>
      <trkpt lat="43.89172" lon="7.28877">
        <ele>936</ele>
        <time>2011-11-19T10:24:44Z</time>
      </trkpt>
      <trkpt lat="43.89207" lon="7.28901">
        <ele>934</ele>
        <time>2011-11-19T10:24:54Z</time>
      </trkpt>
      <trkpt lat="43.89232" lon="7.28916">
        <ele>933</ele>
        <time>2011-11-19T10:25:04Z</time>
      </trkpt>
      <trkpt lat="43.89238" lon="7.28925">
        <ele>933</ele>
        <time>2011-11-19T10:25:15Z</time>
      </trkpt>
      <trkpt lat="43.89229" lon="7.28934">
        <ele>939</ele>
        <time>2011-11-19T10:25:25Z</time>
      </trkpt>
      <trkpt lat="43.89194" lon="7.28955">
        <ele>964</ele>
        <time>2011-11-19T10:25:35Z</time>
      </trkpt>
      <trkpt lat="43.89188" lon="7.28969">
        <ele>992</ele>
        <time>2011-11-19T10:25:45Z</time>
      </trkpt>
      <trkpt lat="43.89202" lon="7.28976">
        <ele>998</ele>
        <time>2011-11-19T10:25:55Z</time>
      </trkpt>
      <trkpt lat="43.89236" lon="7.28975">
        <ele>980</ele>
        <time>2011-11-19T10:26:05Z</time>
      </trkpt>
      <trkpt lat="43.89238" lon="7.28979">
        <ele>955</ele>
        <time>2011-11-19T10:26:16Z</time>
      </trkpt>
      <trkpt lat="43.89243" lon="7.28995">
        <ele>949</ele>
        <time>2011-11-19T10:26:26Z</time>
      </trkpt>
      <trkpt lat="43.89242" lon="7.2902">
        <ele>946</ele>
        <time>2011-11-19T10:26:36Z</time>
      </trkpt>
      <trkpt lat="43.89254" lon="7.2905">
        <ele>940</ele>
        <time>2011-11-19T10:26:46Z</time>
      </trkpt>
      <trkpt lat="43.89263" lon="7.29083">
        <ele>936</ele>
        <time>2011-11-19T10:26:56Z</time>
      </trkpt>
      <trkpt lat="43.89288" lon="7.29112">
        <ele>930</ele>
        <time>2011-11-19T10:27:06Z</time>
      </trkpt>
      <trkpt lat="43.89308" lon="7.29144">
        <ele>924</ele>
        <time>2011-11-19T10:27:16Z</time>
      </trkpt>
      <trkpt lat="43.89343" lon="7.29176">
        <ele>918</ele>
        <time>2011-11-19T10:27:26Z</time>
      </trkpt>
      <trkpt lat="43.8938" lon="7.29217">
        <ele>909</ele>
        <time>2011-11-19T10:27:36Z</time>
      </trkpt>
      <trkpt lat="43.89408" lon="7.29252">
        <ele>906</ele>
        <time>2011-11-19T10:27:46Z</time>
      </trkpt>
      <trkpt lat="43.89445" lon="7.29279">
        <ele>903</ele>
        <time>2011-11-19T10:27:56Z</time>
      </trkpt>
      <trkpt lat="43.8949" lon="7.29287">
        <ele>900</ele>
        <time>2011-11-19T10:28:06Z</time>
      </trkpt>
      <trkpt lat="43.89511" lon="7.29278">
        <ele>900</ele>
        <time>2011-11-19T10:28:16Z</time>
      </trkpt>
      <trkpt lat="43.89518" lon="7.29295">
        <ele>900</ele>
        <time>2011-11-19T10:28:26Z</time>
      </trkpt>
      <trkpt lat="43.89529" lon="7.29319">
        <ele>900</ele>
        <time>2011-11-19T10:28:36Z</time>
      </trkpt>
      <trkpt lat="43.89549" lon="7.29348">
        <ele>900</ele>
        <time>2011-11-19T10:28:46Z</time>
      </trkpt>
      <trkpt lat="43.89556" lon="7.29385">
        <ele>898</ele>
        <time>2011-11-19T10:28:56Z</time>
      </trkpt>
      <trkpt lat="43.89548" lon="7.29421">
        <ele>898</ele>
        <time>2011-11-19T10:29:06Z</time>
      </trkpt>
      <trkpt lat="43.89558" lon="7.29462">
        <ele>898</ele>
        <time>2011-11-19T10:29:16Z</time>
      </trkpt>
      <trkpt lat="43.89571" lon="7.29491">
        <ele>898</ele>
        <time>2011-11-19T10:29:26Z</time>
      </trkpt>
      <trkpt lat="43.89568" lon="7.29514">
        <ele>898</ele>
        <time>2011-11-19T10:29:36Z</time>
      </trkpt>
      <trkpt lat="43.89562" lon="7.29538">
        <ele>901</ele>
        <time>2011-11-19T10:29:46Z</time>
      </trkpt>
      <trkpt lat="43.8955" lon="7.29554">
        <ele>905</ele>
        <time>2011-11-19T10:29:56Z</time>
      </trkpt>
      <trkpt lat="43.89547" lon="7.29581">
        <ele>908</ele>
        <time>2011-11-19T10:30:06Z</time>
      </trkpt>
      <trkpt lat="43.89533" lon="7.29598">
        <ele>909</ele>
        <time>2011-11-19T10:30:16Z</time>
      </trkpt>
      <trkpt lat="43.89521" lon="7.29621">
        <ele>910</ele>
        <time>2011-11-19T10:30:26Z</time>
      </trkpt>
      <trkpt lat="43.89491" lon="7.2964">
        <ele>910</ele>
        <time>2011-11-19T10:30:36Z</time>
      </trkpt>
      <trkpt lat="43.8946" lon="7.29661">
        <ele>910</ele>
        <time>2011-11-19T10:30:46Z</time>
      </trkpt>
      <trkpt lat="43.8943" lon="7.29676">
        <ele>905</ele>
        <time>2011-11-19T10:30:56Z</time>
      </trkpt>
      <trkpt lat="43.89399" lon="7.29682">
        <ele>896</ele>
        <time>2011-11-19T10:31:06Z</time>
      </trkpt>
      <trkpt lat="43.89361" lon="7.29697">
        <ele>889</ele>
        <time>2011-11-19T10:31:16Z</time>
      </trkpt>
      <trkpt lat="43.89355" lon="7.29697">
        <ele>884</ele>
        <time>2011-11-19T10:31:27Z</time>
      </trkpt>
      <trkpt lat="43.89355" lon="7.29693">
        <ele>879</ele>
        <time>2011-11-19T10:31:37Z</time>
      </trkpt>
      <trkpt lat="43.89356" lon="7.29698">
        <ele>876</ele>
        <time>2011-11-19T10:31:49Z</time>
      </trkpt>
      <trkpt lat="43.89348" lon="7.29703">
        <ele>876</ele>
        <time>2011-11-19T10:31:59Z</time>
      </trkpt>
      <trkpt lat="43.89313" lon="7.29706">
        <ele>874</ele>
        <time>2011-11-19T10:32:10Z</time>
      </trkpt>
      <trkpt lat="43.89286" lon="7.29714">
        <ele>872</ele>
        <time>2011-11-19T10:32:20Z</time>
      </trkpt>
      <trkpt lat="43.89239" lon="7.29735">
        <ele>866</ele>
        <time>2011-11-19T10:32:30Z</time>
      </trkpt>
      <trkpt lat="43.89206" lon="7.29768">
        <ele>859</ele>
        <time>2011-11-19T10:32:40Z</time>
      </trkpt>
      <trkpt lat="43.89202" lon="7.29816">
        <ele>852</ele>
        <time>2011-11-19T10:32:50Z</time>
      </trkpt>
      <trkpt lat="43.89188" lon="7.29771">
        <ele>848</ele>
        <time>2011-11-19T10:33:00Z</time>
      </trkpt>
      <trkpt lat="43.89181" lon="7.29719">
        <ele>841</ele>
        <time>2011-11-19T10:33:10Z</time>
      </trkpt>
      <trkpt lat="43.89213" lon="7.29677">
        <ele>837</ele>
        <time>2011-11-19T10:33:20Z</time>
      </trkpt>
      <trkpt lat="43.89238" lon="7.29647">
        <ele>835</ele>
        <time>2011-11-19T10:33:30Z</time>
      </trkpt>
      <trkpt lat="43.89265" lon="7.2962">
        <ele>832</ele>
        <time>2011-11-19T10:33:40Z</time>
      </trkpt>
      <trkpt lat="43.89279" lon="7.29609">
        <ele>825</ele>
        <time>2011-11-19T10:33:50Z</time>
      </trkpt>
      <trkpt lat="43.89247" lon="7.29621">
        <ele>818</ele>
        <time>2011-11-19T10:34:00Z</time>
      </trkpt>
      <trkpt lat="43.89211" lon="7.29625">
        <ele>812</ele>
        <time>2011-11-19T10:34:10Z</time>
      </trkpt>
      <trkpt lat="43.8917" lon="7.29633">
        <ele>804</ele>
        <time>2011-11-19T10:34:20Z</time>
      </trkpt>
      <trkpt lat="43.89127" lon="7.29645">
        <ele>796</ele>
        <time>2011-11-19T10:34:30Z</time>
      </trkpt>
      <trkpt lat="43.89093" lon="7.2966">
        <ele>789</ele>
        <time>2011-11-19T10:34:40Z</time>
      </trkpt>
      <trkpt lat="43.89084" lon="7.29699">
        <ele>784</ele>
        <time>2011-11-19T10:34:50Z</time>
      </trkpt>
      <trkpt lat="43.89083" lon="7.29758">
        <ele>778</ele>
        <time>2011-11-19T10:35:01Z</time>
      </trkpt>
      <trkpt lat="43.89085" lon="7.29809">
        <ele>774</ele>
        <time>2011-11-19T10:35:11Z</time>
      </trkpt>
      <trkpt lat="43.89056" lon="7.29838">
        <ele>769</ele>
        <time>2011-11-19T10:35:21Z</time>
      </trkpt>
      <trkpt lat="43.89039" lon="7.29901">
        <ele>767</ele>
        <time>2011-11-19T10:35:31Z</time>
      </trkpt>
      <trkpt lat="43.89021" lon="7.29962">
        <ele>766</ele>
        <time>2011-11-19T10:35:41Z</time>
      </trkpt>
      <trkpt lat="43.89004" lon="7.30027">
        <ele>764</ele>
        <time>2011-11-19T10:35:51Z</time>
      </trkpt>
      <trkpt lat="43.88998" lon="7.30082">
        <ele>764</ele>
        <time>2011-11-19T10:36:01Z</time>
      </trkpt>
      <trkpt lat="43.88991" lon="7.30122">
        <ele>764</ele>
        <time>2011-11-19T10:36:11Z</time>
      </trkpt>
      <trkpt lat="43.88996" lon="7.30166">
        <ele>764</ele>
        <time>2011-11-19T10:36:21Z</time>
      </trkpt>
      <trkpt lat="43.89003" lon="7.30209">
        <ele>758</ele>
        <time>2011-11-19T10:36:31Z</time>
      </trkpt>
      <trkpt lat="43.88977" lon="7.30236">
        <ele>752</ele>
        <time>2011-11-19T10:36:41Z</time>
      </trkpt>
      <trkpt lat="43.88952" lon="7.30274">
        <ele>745</ele>
        <time>2011-11-19T10:36:51Z</time>
      </trkpt>
      <trkpt lat="43.88941" lon="7.30302">
        <ele>739</ele>
        <time>2011-11-19T10:37:01Z</time>
      </trkpt>
      <trkpt lat="43.88952" lon="7.30323">
        <ele>736</ele>
        <time>2011-11-19T10:37:11Z</time>
      </trkpt>
      <trkpt lat="43.88968" lon="7.30337">
        <ele>736</ele>
        <time>2011-11-19T10:37:21Z</time>
      </trkpt>
      <trkpt lat="43.89" lon="7.30377">
        <ele>731</ele>
        <time>2011-11-19T10:37:32Z</time>
      </trkpt>
      <trkpt lat="43.88998" lon="7.30396">
        <ele>722</ele>
        <time>2011-11-19T10:37:42Z</time>
      </trkpt>
      <trkpt lat="43.88999" lon="7.30396">
        <ele>719</ele>
        <time>2011-11-19T10:37:54Z</time>
      </trkpt>
      <trkpt lat="43.88997" lon="7.30399">
        <ele>714</ele>
        <time>2011-11-19T10:38:04Z</time>
      </trkpt>
      <trkpt lat="43.89003" lon="7.30415">
        <ele>712</ele>
        <time>2011-11-19T10:38:14Z</time>
      </trkpt>
      <trkpt lat="43.89004" lon="7.30421">
        <ele>711</ele>
        <time>2011-11-19T10:38:24Z</time>
      </trkpt>
      <trkpt lat="43.89021" lon="7.30448">
        <ele>711</ele>
        <time>2011-11-19T10:38:34Z</time>
      </trkpt>
      <trkpt lat="43.89036" lon="7.30486">
        <ele>711</ele>
        <time>2011-11-19T10:38:44Z</time>
      </trkpt>
      <trkpt lat="43.89041" lon="7.30519">
        <ele>712</ele>
        <time>2011-11-19T10:38:54Z</time>
      </trkpt>
      <trkpt lat="43.89041" lon="7.30546">
        <ele>714</ele>
        <time>2011-11-19T10:39:08Z</time>
      </trkpt>
      <trkpt lat="43.89042" lon="7.30544">
        <ele>713</ele>
        <time>2011-11-19T10:39:22Z</time>
      </trkpt>
      <trkpt lat="43.89043" lon="7.30543">
        <ele>707</ele>
        <time>2011-11-19T10:39:44Z</time>
      </trkpt>
      <trkpt lat="43.89043" lon="7.30541">
        <ele>706</ele>
        <time>2011-11-19T10:39:57Z</time>
      </trkpt>
      <trkpt lat="43.89042" lon="7.3054">
        <ele>706</ele>
        <time>2011-11-19T10:40:07Z</time>
      </trkpt>
      <trkpt lat="43.89043" lon="7.30541">
        <ele>706</ele>
        <time>2011-11-19T10:40:20Z</time>
      </trkpt>
      <trkpt lat="43.89044" lon="7.30545">
        <ele>706</ele>
        <time>2011-11-19T10:40:33Z</time>
      </trkpt>
      <trkpt lat="43.89044" lon="7.30548">
        <ele>704</ele>
        <time>2011-11-19T10:40:56Z</time>
      </trkpt>
      <trkpt lat="43.89041" lon="7.30575">
        <ele>704</ele>
        <time>2011-11-19T10:41:06Z</time>
      </trkpt>
      <trkpt lat="43.89031" lon="7.306">
        <ele>704</ele>
        <time>2011-11-19T10:41:17Z</time>
      </trkpt>
      <trkpt lat="43.89029" lon="7.30583">
        <ele>698</ele>
        <time>2011-11-19T10:41:31Z</time>
      </trkpt>
      <trkpt lat="43.89013" lon="7.30619">
        <ele>694</ele>
        <time>2011-11-19T10:41:42Z</time>
      </trkpt>
      <trkpt lat="43.89003" lon="7.30667">
        <ele>689</ele>
        <time>2011-11-19T10:41:53Z</time>
      </trkpt>
      <trkpt lat="43.89015" lon="7.30686">
        <ele>688</ele>
        <time>2011-11-19T10:42:03Z</time>
      </trkpt>
      <trkpt lat="43.89018" lon="7.30692">
        <ele>688</ele>
        <time>2011-11-19T10:42:17Z</time>
      </trkpt>
      <trkpt lat="43.89042" lon="7.30694">
        <ele>688</ele>
        <time>2011-11-19T10:42:27Z</time>
      </trkpt>
      <trkpt lat="43.89048" lon="7.30699">
        <ele>682</ele>
        <time>2011-11-19T10:42:38Z</time>
      </trkpt>
      <trkpt lat="43.89022" lon="7.3073">
        <ele>674</ele>
        <time>2011-11-19T10:42:48Z</time>
      </trkpt>
      <trkpt lat="43.89032" lon="7.30745">
        <ele>668</ele>
        <time>2011-11-19T10:42:58Z</time>
      </trkpt>
      <trkpt lat="43.89025" lon="7.30749">
        <ele>664</ele>
        <time>2011-11-19T10:43:09Z</time>
      </trkpt>
      <trkpt lat="43.88995" lon="7.30725">
        <ele>662</ele>
        <time>2011-11-19T10:43:19Z</time>
      </trkpt>
      <trkpt lat="43.89004" lon="7.3074">
        <ele>659</ele>
        <time>2011-11-19T10:43:29Z</time>
      </trkpt>
      <trkpt lat="43.89024" lon="7.30789">
        <ele>654</ele>
        <time>2011-11-19T10:43:39Z</time>
      </trkpt>
      <trkpt lat="43.89049" lon="7.30778">
        <ele>647</ele>
        <time>2011-11-19T10:43:49Z</time>
      </trkpt>
      <trkpt lat="43.89047" lon="7.30801">
        <ele>641</ele>
        <time>2011-11-19T10:44:00Z</time>
      </trkpt>
      <trkpt lat="43.89015" lon="7.3081">
        <ele>636</ele>
        <time>2011-11-19T10:44:10Z</time>
      </trkpt>
      <trkpt lat="43.88992" lon="7.30772">
        <ele>628</ele>
        <time>2011-11-19T10:44:25Z</time>
      </trkpt>
      <trkpt lat="43.88996" lon="7.30796">
        <ele>624</ele>
        <time>2011-11-19T10:44:35Z</time>
      </trkpt>
      <trkpt lat="43.88995" lon="7.30809">
        <ele>624</ele>
        <time>2011-11-19T10:44:45Z</time>
      </trkpt>
      <trkpt lat="43.88982" lon="7.30793">
        <ele>620</ele>
        <time>2011-11-19T10:44:55Z</time>
      </trkpt>
      <trkpt lat="43.88986" lon="7.30825">
        <ele>615</ele>
        <time>2011-11-19T10:45:06Z</time>
      </trkpt>
      <trkpt lat="43.88987" lon="7.30823">
        <ele>610</ele>
        <time>2011-11-19T10:45:16Z</time>
      </trkpt>
      <trkpt lat="43.88987" lon="7.3082">
        <ele>610</ele>
        <time>2011-11-19T10:45:32Z</time>
      </trkpt>
      <trkpt lat="43.88975" lon="7.30798">
        <ele>607</ele>
        <time>2011-11-19T10:45:42Z</time>
      </trkpt>
      <trkpt lat="43.88976" lon="7.30825">
        <ele>603</ele>
        <time>2011-11-19T10:45:53Z</time>
      </trkpt>
      <trkpt lat="43.88966" lon="7.30809">
        <ele>598</ele>
        <time>2011-11-19T10:46:03Z</time>
      </trkpt>
      <trkpt lat="43.88952" lon="7.30778">
        <ele>597</ele>
        <time>2011-11-19T10:46:13Z</time>
      </trkpt>
      <trkpt lat="43.88938" lon="7.30781">
        <ele>597</ele>
        <time>2011-11-19T10:46:23Z</time>
      </trkpt>
      <trkpt lat="43.88935" lon="7.30783">
        <ele>597</ele>
        <time>2011-11-19T10:46:34Z</time>
      </trkpt>
      <trkpt lat="43.88933" lon="7.30776">
        <ele>597</ele>
        <time>2011-11-19T10:46:45Z</time>
      </trkpt>
      <trkpt lat="43.88932" lon="7.30774">
        <ele>596</ele>
        <time>2011-11-19T10:47:07Z</time>
      </trkpt>
      <trkpt lat="43.88933" lon="7.30776">
        <ele>591</ele>
        <time>2011-11-19T10:47:19Z</time>
      </trkpt>
      <trkpt lat="43.88938" lon="7.30785">
        <ele>589</ele>
        <time>2011-11-19T10:47:29Z</time>
      </trkpt>
      <trkpt lat="43.88956" lon="7.3084">
        <ele>589</ele>
        <time>2011-11-19T10:47:39Z</time>
      </trkpt>
      <trkpt lat="43.89005" lon="7.30881">
        <ele>589</ele>
        <time>2011-11-19T10:47:49Z</time>
      </trkpt>
      <trkpt lat="43.89057" lon="7.30882">
        <ele>593</ele>
        <time>2011-11-19T10:47:59Z</time>
      </trkpt>
      <trkpt lat="43.89088" lon="7.30902">
        <ele>596</ele>
        <time>2011-11-19T10:48:09Z</time>
      </trkpt>
      <trkpt lat="43.89071" lon="7.30934">
        <ele>597</ele>
        <time>2011-11-19T10:48:19Z</time>
      </trkpt>
      <trkpt lat="43.89041" lon="7.30944">
        <ele>597</ele>
        <time>2011-11-19T10:48:29Z</time>
      </trkpt>
      <trkpt lat="43.89012" lon="7.30948">
        <ele>597</ele>
        <time>2011-11-19T10:48:39Z</time>
      </trkpt>
      <trkpt lat="43.88996" lon="7.30974">
        <ele>599</ele>
        <time>2011-11-19T10:48:49Z</time>
      </trkpt>
      <trkpt lat="43.88979" lon="7.30994">
        <ele>604</ele>
        <time>2011-11-19T10:48:59Z</time>
      </trkpt>
      <trkpt lat="43.88964" lon="7.31014">
        <ele>607</ele>
        <time>2011-11-19T10:49:09Z</time>
      </trkpt>
      <trkpt lat="43.88955" lon="7.31038">
        <ele>607</ele>
        <time>2011-11-19T10:49:19Z</time>
      </trkpt>
      <trkpt lat="43.88945" lon="7.31053">
        <ele>610</ele>
        <time>2011-11-19T10:49:29Z</time>
      </trkpt>
      <trkpt lat="43.88935" lon="7.31052">
        <ele>622</ele>
        <time>2011-11-19T10:49:39Z</time>
      </trkpt>
      <trkpt lat="43.88928" lon="7.31045">
        <ele>633</ele>
        <time>2011-11-19T10:49:50Z</time>
      </trkpt>
      <trkpt lat="43.8893" lon="7.31059">
        <ele>624</ele>
        <time>2011-11-19T10:50:04Z</time>
      </trkpt>
      <trkpt lat="43.88935" lon="7.31059">
        <ele>620</ele>
        <time>2011-11-19T10:50:14Z</time>
      </trkpt>
      <trkpt lat="43.88935" lon="7.31062">
        <ele>627</ele>
        <time>2011-11-19T10:50:26Z</time>
      </trkpt>
      <trkpt lat="43.88931" lon="7.31057">
        <ele>626</ele>
        <time>2011-11-19T10:50:39Z</time>
      </trkpt>
      <trkpt lat="43.88927" lon="7.3105">
        <ele>626</ele>
        <time>2011-11-19T10:50:49Z</time>
      </trkpt>
      <trkpt lat="43.88924" lon="7.31047">
        <ele>626</ele>
        <time>2011-11-19T10:51:12Z</time>
      </trkpt>
      <trkpt lat="43.88929" lon="7.31058">
        <ele>626</ele>
        <time>2011-11-19T10:51:22Z</time>
      </trkpt>
      <trkpt lat="43.88929" lon="7.3106">
        <ele>622</ele>
        <time>2011-11-19T10:51:34Z</time>
      </trkpt>
      <trkpt lat="43.88928" lon="7.31055">
        <ele>618</ele>
        <time>2011-11-19T10:51:45Z</time>
      </trkpt>
      <trkpt lat="43.88933" lon="7.31056">
        <ele>620</ele>
        <time>2011-11-19T10:51:55Z</time>
      </trkpt>
      <trkpt lat="43.88937" lon="7.31056">
        <ele>627</ele>
        <time>2011-11-19T10:52:05Z</time>
      </trkpt>
      <trkpt lat="43.88939" lon="7.31059">
        <ele>627</ele>
        <time>2011-11-19T10:52:16Z</time>
      </trkpt>
      <trkpt lat="43.88925" lon="7.31066">
        <ele>620</ele>
        <time>2011-11-19T10:52:26Z</time>
      </trkpt>
      <trkpt lat="43.88907" lon="7.31079">
        <ele>609</ele>
        <time>2011-11-19T10:52:36Z</time>
      </trkpt>
      <trkpt lat="43.88892" lon="7.3109">
        <ele>608</ele>
        <time>2011-11-19T10:52:46Z</time>
      </trkpt>
      <trkpt lat="43.8888" lon="7.31107">
        <ele>616</ele>
        <time>2011-11-19T10:52:58Z</time>
      </trkpt>
      <trkpt lat="43.88876" lon="7.311">
        <ele>618</ele>
        <time>2011-11-19T10:53:08Z</time>
      </trkpt>
      <trkpt lat="43.88873" lon="7.31112">
        <ele>611</ele>
        <time>2011-11-19T10:53:18Z</time>
      </trkpt>
      <trkpt lat="43.88855" lon="7.31125">
        <ele>614</ele>
        <time>2011-11-19T10:53:28Z</time>
      </trkpt>
      <trkpt lat="43.88843" lon="7.31126">
        <ele>625</ele>
        <time>2011-11-19T10:53:38Z</time>
      </trkpt>
      <trkpt lat="43.8883" lon="7.31133">
        <ele>645</ele>
        <time>2011-11-19T10:53:48Z</time>
      </trkpt>
      <trkpt lat="43.88823" lon="7.31147">
        <ele>663</ele>
        <time>2011-11-19T10:53:58Z</time>
      </trkpt>
      <trkpt lat="43.88835" lon="7.31174">
        <ele>665</ele>
        <time>2011-11-19T10:54:08Z</time>
      </trkpt>
      <trkpt lat="43.88857" lon="7.31169">
        <ele>654</ele>
        <time>2011-11-19T10:54:18Z</time>
      </trkpt>
      <trkpt lat="43.88884" lon="7.31161">
        <ele>629</ele>
        <time>2011-11-19T10:54:28Z</time>
      </trkpt>
      <trkpt lat="43.88903" lon="7.31136">
        <ele>608</ele>
        <time>2011-11-19T10:54:38Z</time>
      </trkpt>
      <trkpt lat="43.88915" lon="7.31114">
        <ele>610</ele>
        <time>2011-11-19T10:54:48Z</time>
      </trkpt>
      <trkpt lat="43.88934" lon="7.311">
        <ele>620</ele>
        <time>2011-11-19T10:54:58Z</time>
      </trkpt>
      <trkpt lat="43.88955" lon="7.31088">
        <ele>627</ele>
        <time>2011-11-19T10:55:08Z</time>
      </trkpt>
      <trkpt lat="43.88973" lon="7.31069">
        <ele>630</ele>
        <time>2011-11-19T10:55:18Z</time>
      </trkpt>
      <trkpt lat="43.88991" lon="7.31048">
        <ele>632</ele>
        <time>2011-11-19T10:55:28Z</time>
      </trkpt>
      <trkpt lat="43.8901" lon="7.31031">
        <ele>635</ele>
        <time>2011-11-19T10:55:38Z</time>
      </trkpt>
      <trkpt lat="43.89031" lon="7.31019">
        <ele>635</ele>
        <time>2011-11-19T10:55:48Z</time>
      </trkpt>
      <trkpt lat="43.89052" lon="7.31012">
        <ele>637</ele>
        <time>2011-11-19T10:55:58Z</time>
      </trkpt>
      <trkpt lat="43.89073" lon="7.31012">
        <ele>638</ele>
        <time>2011-11-19T10:56:08Z</time>
      </trkpt>
      <trkpt lat="43.89091" lon="7.31016">
        <ele>640</ele>
        <time>2011-11-19T10:56:18Z</time>
      </trkpt>
      <trkpt lat="43.89109" lon="7.3102">
        <ele>640</ele>
        <time>2011-11-19T10:56:28Z</time>
      </trkpt>
      <trkpt lat="43.89125" lon="7.31003">
        <ele>640</ele>
        <time>2011-11-19T10:56:38Z</time>
      </trkpt>
      <trkpt lat="43.8914" lon="7.30985">
        <ele>639</ele>
        <time>2011-11-19T10:56:48Z</time>
      </trkpt>
      <trkpt lat="43.89153" lon="7.30964">
        <ele>629</ele>
        <time>2011-11-19T10:56:58Z</time>
      </trkpt>
      <trkpt lat="43.89156" lon="7.30968">
        <ele>628</ele>
        <time>2011-11-19T10:57:08Z</time>
      </trkpt>
      <trkpt lat="43.89146" lon="7.3099">
        <ele>632</ele>
        <time>2011-11-19T10:57:18Z</time>
      </trkpt>
      <trkpt lat="43.89141" lon="7.31011">
        <ele>636</ele>
        <time>2011-11-19T10:57:28Z</time>
      </trkpt>
      <trkpt lat="43.89134" lon="7.31028">
        <ele>641</ele>
        <time>2011-11-19T10:57:38Z</time>
      </trkpt>
      <trkpt lat="43.89119" lon="7.31033">
        <ele>650</ele>
        <time>2011-11-19T10:57:48Z</time>
      </trkpt>
      <trkpt lat="43.89101" lon="7.31031">
        <ele>658</ele>
        <time>2011-11-19T10:57:58Z</time>
      </trkpt>
      <trkpt lat="43.89086" lon="7.31038">
        <ele>659</ele>
        <time>2011-11-19T10:58:08Z</time>
      </trkpt>
      <trkpt lat="43.89071" lon="7.31046">
        <ele>659</ele>
        <time>2011-11-19T10:58:18Z</time>
      </trkpt>
      <trkpt lat="43.89056" lon="7.31056">
        <ele>659</ele>
        <time>2011-11-19T10:58:28Z</time>
      </trkpt>
      <trkpt lat="43.8904" lon="7.31067">
        <ele>660</ele>
        <time>2011-11-19T10:58:39Z</time>
      </trkpt>
      <trkpt lat="43.89026" lon="7.31078">
        <ele>661</ele>
        <time>2011-11-19T10:58:49Z</time>
      </trkpt>
      <trkpt lat="43.89015" lon="7.31095">
        <ele>663</ele>
        <time>2011-11-19T10:58:59Z</time>
      </trkpt>
      <trkpt lat="43.89005" lon="7.31114">
        <ele>663</ele>
        <time>2011-11-19T10:59:09Z</time>
      </trkpt>
      <trkpt lat="43.88998" lon="7.31132">
        <ele>665</ele>
        <time>2011-11-19T10:59:19Z</time>
      </trkpt>
      <trkpt lat="43.88987" lon="7.3115">
        <ele>665</ele>
        <time>2011-11-19T10:59:29Z</time>
      </trkpt>
      <trkpt lat="43.88975" lon="7.31163">
        <ele>665</ele>
        <time>2011-11-19T10:59:39Z</time>
      </trkpt>
      <trkpt lat="43.88965" lon="7.3118">
        <ele>667</ele>
        <time>2011-11-19T10:59:49Z</time>
      </trkpt>
      <trkpt lat="43.88954" lon="7.312">
        <ele>669</ele>
        <time>2011-11-19T10:59:59Z</time>
      </trkpt>
      <trkpt lat="43.88939" lon="7.31217">
        <ele>670</ele>
        <time>2011-11-19T11:00:09Z</time>
      </trkpt>
      <trkpt lat="43.8894" lon="7.31236">
        <ele>670</ele>
        <time>2011-11-19T11:00:19Z</time>
      </trkpt>
      <trkpt lat="43.88952" lon="7.31222">
        <ele>670</ele>
        <time>2011-11-19T11:00:29Z</time>
      </trkpt>
      <trkpt lat="43.88965" lon="7.31208">
        <ele>670</ele>
        <time>2011-11-19T11:00:39Z</time>
      </trkpt>
      <trkpt lat="43.88977" lon="7.31195">
        <ele>671</ele>
        <time>2011-11-19T11:00:49Z</time>
      </trkpt>
      <trkpt lat="43.8899" lon="7.31182">
        <ele>672</ele>
        <time>2011-11-19T11:00:59Z</time>
      </trkpt>
      <trkpt lat="43.89001" lon="7.31167">
        <ele>677</ele>
        <time>2011-11-19T11:01:09Z</time>
      </trkpt>
      <trkpt lat="43.89014" lon="7.31152">
        <ele>682</ele>
        <time>2011-11-19T11:01:20Z</time>
      </trkpt>
      <trkpt lat="43.89028" lon="7.31139">
        <ele>684</ele>
        <time>2011-11-19T11:01:30Z</time>
      </trkpt>
      <trkpt lat="43.89043" lon="7.31128">
        <ele>684</ele>
        <time>2011-11-19T11:01:40Z</time>
      </trkpt>
      <trkpt lat="43.89058" lon="7.31119">
        <ele>685</ele>
        <time>2011-11-19T11:01:50Z</time>
      </trkpt>
      <trkpt lat="43.89073" lon="7.31114">
        <ele>687</ele>
        <time>2011-11-19T11:02:00Z</time>
      </trkpt>
      <trkpt lat="43.89088" lon="7.31108">
        <ele>689</ele>
        <time>2011-11-19T11:02:10Z</time>
      </trkpt>
      <trkpt lat="43.89105" lon="7.31108">
        <ele>692</ele>
        <time>2011-11-19T11:02:21Z</time>
      </trkpt>
      <trkpt lat="43.89121" lon="7.31111">
        <ele>693</ele>
        <time>2011-11-19T11:02:31Z</time>
      </trkpt>
      <trkpt lat="43.89137" lon="7.31113">
        <ele>693</ele>
        <time>2011-11-19T11:02:41Z</time>
      </trkpt>
      <trkpt lat="43.89152" lon="7.3111">
        <ele>693</ele>
        <time>2011-11-19T11:02:51Z</time>
      </trkpt>
      <trkpt lat="43.89166" lon="7.31102">
        <ele>694</ele>
        <time>2011-11-19T11:03:01Z</time>
      </trkpt>
      <trkpt lat="43.89177" lon="7.31088">
        <ele>696</ele>
        <time>2011-11-19T11:03:11Z</time>
      </trkpt>
      <trkpt lat="43.89188" lon="7.31071">
        <ele>697</ele>
        <time>2011-11-19T11:03:21Z</time>
      </trkpt>
      <trkpt lat="43.89198" lon="7.31054">
        <ele>697</ele>
        <time>2011-11-19T11:03:31Z</time>
      </trkpt>
      <trkpt lat="43.8921" lon="7.31037">
        <ele>687</ele>
        <time>2011-11-19T11:03:41Z</time>
      </trkpt>
      <trkpt lat="43.89217" lon="7.31016">
        <ele>676</ele>
        <time>2011-11-19T11:03:51Z</time>
      </trkpt>
      <trkpt lat="43.89221" lon="7.30993">
        <ele>676</ele>
        <time>2011-11-19T11:04:01Z</time>
      </trkpt>
      <trkpt lat="43.89228" lon="7.30974">
        <ele>686</ele>
        <time>2011-11-19T11:04:11Z</time>
      </trkpt>
      <trkpt lat="43.89229" lon="7.30987">
        <ele>696</ele>
        <time>2011-11-19T11:04:21Z</time>
      </trkpt>
      <trkpt lat="43.89216" lon="7.31003">
        <ele>701</ele>
        <time>2011-11-19T11:04:31Z</time>
      </trkpt>
      <trkpt lat="43.8921" lon="7.31023">
        <ele>701</ele>
        <time>2011-11-19T11:04:41Z</time>
      </trkpt>
      <trkpt lat="43.89207" lon="7.31043">
        <ele>703</ele>
        <time>2011-11-19T11:04:51Z</time>
      </trkpt>
      <trkpt lat="43.89205" lon="7.31063">
        <ele>705</ele>
        <time>2011-11-19T11:05:01Z</time>
      </trkpt>
      <trkpt lat="43.89201" lon="7.31085">
        <ele>708</ele>
        <time>2011-11-19T11:05:11Z</time>
      </trkpt>
      <trkpt lat="43.89194" lon="7.31103">
        <ele>713</ele>
        <time>2011-11-19T11:05:21Z</time>
      </trkpt>
      <trkpt lat="43.89183" lon="7.31116">
        <ele>723</ele>
        <time>2011-11-19T11:05:31Z</time>
      </trkpt>
      <trkpt lat="43.89166" lon="7.31119">
        <ele>733</ele>
        <time>2011-11-19T11:05:41Z</time>
      </trkpt>
      <trkpt lat="43.8915" lon="7.31126">
        <ele>743</ele>
        <time>2011-11-19T11:05:51Z</time>
      </trkpt>
      <trkpt lat="43.89136" lon="7.31136">
        <ele>748</ele>
        <time>2011-11-19T11:06:01Z</time>
      </trkpt>
      <trkpt lat="43.89119" lon="7.31142">
        <ele>748</ele>
        <time>2011-11-19T11:06:11Z</time>
      </trkpt>
      <trkpt lat="43.89102" lon="7.31146">
        <ele>750</ele>
        <time>2011-11-19T11:06:21Z</time>
      </trkpt>
      <trkpt lat="43.89089" lon="7.31159">
        <ele>750</ele>
        <time>2011-11-19T11:06:31Z</time>
      </trkpt>
      <trkpt lat="43.89076" lon="7.31175">
        <ele>750</ele>
        <time>2011-11-19T11:06:41Z</time>
      </trkpt>
      <trkpt lat="43.89062" lon="7.31187">
        <ele>749</ele>
        <time>2011-11-19T11:06:51Z</time>
      </trkpt>
      <trkpt lat="43.89046" lon="7.31196">
        <ele>749</ele>
        <time>2011-11-19T11:07:01Z</time>
      </trkpt>
      <trkpt lat="43.89034" lon="7.31211">
        <ele>749</ele>
        <time>2011-11-19T11:07:11Z</time>
      </trkpt>
      <trkpt lat="43.89022" lon="7.31225">
        <ele>747</ele>
        <time>2011-11-19T11:07:21Z</time>
      </trkpt>
      <trkpt lat="43.89015" lon="7.31245">
        <ele>745</ele>
        <time>2011-11-19T11:07:31Z</time>
      </trkpt>
      <trkpt lat="43.89014" lon="7.31266">
        <ele>744</ele>
        <time>2011-11-19T11:07:41Z</time>
      </trkpt>
      <trkpt lat="43.89007" lon="7.31285">
        <ele>744</ele>
        <time>2011-11-19T11:07:51Z</time>
      </trkpt>
      <trkpt lat="43.89009" lon="7.31307">
        <ele>744</ele>
        <time>2011-11-19T11:08:01Z</time>
      </trkpt>
      <trkpt lat="43.89019" lon="7.31323">
        <ele>744</ele>
        <time>2011-11-19T11:08:11Z</time>
      </trkpt>
      <trkpt lat="43.89032" lon="7.31339">
        <ele>743</ele>
        <time>2011-11-19T11:08:21Z</time>
      </trkpt>
      <trkpt lat="43.89045" lon="7.31353">
        <ele>743</ele>
        <time>2011-11-19T11:08:31Z</time>
      </trkpt>
      <trkpt lat="43.89059" lon="7.31364">
        <ele>743</ele>
        <time>2011-11-19T11:08:41Z</time>
      </trkpt>
      <trkpt lat="43.89073" lon="7.31374">
        <ele>743</ele>
        <time>2011-11-19T11:08:51Z</time>
      </trkpt>
      <trkpt lat="43.89087" lon="7.31384">
        <ele>743</ele>
        <time>2011-11-19T11:09:01Z</time>
      </trkpt>
      <trkpt lat="43.89095" lon="7.31373">
        <ele>745</ele>
        <time>2011-11-19T11:09:11Z</time>
      </trkpt>
      <trkpt lat="43.89086" lon="7.31361">
        <ele>743</ele>
        <time>2011-11-19T11:09:22Z</time>
      </trkpt>
      <trkpt lat="43.89075" lon="7.31347">
        <ele>740</ele>
        <time>2011-11-19T11:09:33Z</time>
      </trkpt>
      <trkpt lat="43.89064" lon="7.31331">
        <ele>739</ele>
        <time>2011-11-19T11:09:43Z</time>
      </trkpt>
      <trkpt lat="43.89054" lon="7.31314">
        <ele>739</ele>
        <time>2011-11-19T11:09:53Z</time>
      </trkpt>
      <trkpt lat="43.89044" lon="7.31292">
        <ele>738</ele>
        <time>2011-11-19T11:10:03Z</time>
      </trkpt>
      <trkpt lat="43.89043" lon="7.31271">
        <ele>739</ele>
        <time>2011-11-19T11:10:14Z</time>
      </trkpt>
      <trkpt lat="43.89049" lon="7.31288">
        <ele>745</ele>
        <time>2011-11-19T11:10:24Z</time>
      </trkpt>
      <trkpt lat="43.89057" lon="7.31306">
        <ele>748</ele>
        <time>2011-11-19T11:10:34Z</time>
      </trkpt>
      <trkpt lat="43.89067" lon="7.31323">
        <ele>751</ele>
        <time>2011-11-19T11:10:44Z</time>
      </trkpt>
      <trkpt lat="43.8908" lon="7.31337">
        <ele>754</ele>
        <time>2011-11-19T11:10:54Z</time>
      </trkpt>
      <trkpt lat="43.89094" lon="7.3135">
        <ele>756</ele>
        <time>2011-11-19T11:11:04Z</time>
      </trkpt>
      <trkpt lat="43.89108" lon="7.31362">
        <ele>759</ele>
        <time>2011-11-19T11:11:14Z</time>
      </trkpt>
      <trkpt lat="43.89122" lon="7.31372">
        <ele>762</ele>
        <time>2011-11-19T11:11:24Z</time>
      </trkpt>
      <trkpt lat="43.89137" lon="7.31381">
        <ele>765</ele>
        <time>2011-11-19T11:11:34Z</time>
      </trkpt>
      <trkpt lat="43.89151" lon="7.31392">
        <ele>767</ele>
        <time>2011-11-19T11:11:44Z</time>
      </trkpt>
      <trkpt lat="43.89162" lon="7.31409">
        <ele>769</ele>
        <time>2011-11-19T11:11:54Z</time>
      </trkpt>
      <trkpt lat="43.89173" lon="7.31426">
        <ele>771</ele>
        <time>2011-11-19T11:12:04Z</time>
      </trkpt>
      <trkpt lat="43.89184" lon="7.31442">
        <ele>772</ele>
        <time>2011-11-19T11:12:14Z</time>
      </trkpt>
      <trkpt lat="43.89187" lon="7.31463">
        <ele>772</ele>
        <time>2011-11-19T11:12:24Z</time>
      </trkpt>
      <trkpt lat="43.89187" lon="7.31487">
        <ele>774</ele>
        <time>2011-11-19T11:12:35Z</time>
      </trkpt>
      <trkpt lat="43.89193" lon="7.31506">
        <ele>776</ele>
        <time>2011-11-19T11:12:45Z</time>
      </trkpt>
      <trkpt lat="43.89204" lon="7.31521">
        <ele>776</ele>
        <time>2011-11-19T11:12:56Z</time>
      </trkpt>
      <trkpt lat="43.89217" lon="7.31526">
        <ele>778</ele>
        <time>2011-11-19T11:13:06Z</time>
      </trkpt>
      <trkpt lat="43.89229" lon="7.31523">
        <ele>779</ele>
        <time>2011-11-19T11:13:16Z</time>
      </trkpt>
      <trkpt lat="43.8924" lon="7.31511">
        <ele>780</ele>
        <time>2011-11-19T11:13:26Z</time>
      </trkpt>
      <trkpt lat="43.89253" lon="7.31503">
        <ele>783</ele>
        <time>2011-11-19T11:13:36Z</time>
      </trkpt>
      <trkpt lat="43.89266" lon="7.31501">
        <ele>786</ele>
        <time>2011-11-19T11:13:46Z</time>
      </trkpt>
      <trkpt lat="43.89277" lon="7.31512">
        <ele>788</ele>
        <time>2011-11-19T11:13:56Z</time>
      </trkpt>
      <trkpt lat="43.89279" lon="7.31528">
        <ele>791</ele>
        <time>2011-11-19T11:14:06Z</time>
      </trkpt>
      <trkpt lat="43.89276" lon="7.31546">
        <ele>794</ele>
        <time>2011-11-19T11:14:16Z</time>
      </trkpt>
      <trkpt lat="43.89272" lon="7.31557">
        <ele>797</ele>
        <time>2011-11-19T11:14:26Z</time>
      </trkpt>
      <trkpt lat="43.89272" lon="7.31561">
        <ele>797</ele>
        <time>2011-11-19T11:14:40Z</time>
      </trkpt>
      <trkpt lat="43.89266" lon="7.31577">
        <ele>797</ele>
        <time>2011-11-19T11:14:50Z</time>
      </trkpt>
      <trkpt lat="43.89264" lon="7.31597">
        <ele>800</ele>
        <time>2011-11-19T11:15:00Z</time>
      </trkpt>
      <trkpt lat="43.89261" lon="7.31617">
        <ele>800</ele>
        <time>2011-11-19T11:15:10Z</time>
      </trkpt>
      <trkpt lat="43.89252" lon="7.31632">
        <ele>803</ele>
        <time>2011-11-19T11:15:20Z</time>
      </trkpt>
      <trkpt lat="43.89243" lon="7.31648">
        <ele>804</ele>
        <time>2011-11-19T11:15:30Z</time>
      </trkpt>
      <trkpt lat="43.89234" lon="7.31667">
        <ele>804</ele>
        <time>2011-11-19T11:15:41Z</time>
      </trkpt>
      <trkpt lat="43.89231" lon="7.31686">
        <ele>804</ele>
        <time>2011-11-19T11:15:51Z</time>
      </trkpt>
      <trkpt lat="43.89227" lon="7.31703">
        <ele>804</ele>
        <time>2011-11-19T11:16:01Z</time>
      </trkpt>
      <trkpt lat="43.89221" lon="7.31719">
        <ele>808</ele>
        <time>2011-11-19T11:16:11Z</time>
      </trkpt>
      <trkpt lat="43.8921" lon="7.31729">
        <ele>815</ele>
        <time>2011-11-19T11:16:21Z</time>
      </trkpt>
      <trkpt lat="43.89202" lon="7.31745">
        <ele>824</ele>
        <time>2011-11-19T11:16:32Z</time>
      </trkpt>
      <trkpt lat="43.89188" lon="7.31748">
        <ele>832</ele>
        <time>2011-11-19T11:16:42Z</time>
      </trkpt>
      <trkpt lat="43.8917" lon="7.31745">
        <ele>842</ele>
        <time>2011-11-19T11:16:52Z</time>
      </trkpt>
      <trkpt lat="43.89152" lon="7.31748">
        <ele>853</ele>
        <time>2011-11-19T11:17:03Z</time>
      </trkpt>
      <trkpt lat="43.89151" lon="7.31774">
        <ele>854</ele>
        <time>2011-11-19T11:17:14Z</time>
      </trkpt>
      <trkpt lat="43.89154" lon="7.31756">
        <ele>852</ele>
        <time>2011-11-19T11:17:24Z</time>
      </trkpt>
      <trkpt lat="43.89153" lon="7.31735">
        <ele>852</ele>
        <time>2011-11-19T11:17:34Z</time>
      </trkpt>
      <trkpt lat="43.89151" lon="7.31716">
        <ele>852</ele>
        <time>2011-11-19T11:17:44Z</time>
      </trkpt>
      <trkpt lat="43.89145" lon="7.31697">
        <ele>852</ele>
        <time>2011-11-19T11:17:54Z</time>
      </trkpt>
      <trkpt lat="43.89126" lon="7.31684">
        <ele>851</ele>
        <time>2011-11-19T11:18:04Z</time>
      </trkpt>
      <trkpt lat="43.89107" lon="7.31678">
        <ele>851</ele>
        <time>2011-11-19T11:18:14Z</time>
      </trkpt>
      <trkpt lat="43.89092" lon="7.31665">
        <ele>851</ele>
        <time>2011-11-19T11:18:24Z</time>
      </trkpt>
      <trkpt lat="43.89074" lon="7.31665">
        <ele>846</ele>
        <time>2011-11-19T11:18:34Z</time>
      </trkpt>
      <trkpt lat="43.89054" lon="7.31671">
        <ele>836</ele>
        <time>2011-11-19T11:18:44Z</time>
      </trkpt>
      <trkpt lat="43.89037" lon="7.31675">
        <ele>837</ele>
        <time>2011-11-19T11:18:54Z</time>
      </trkpt>
      <trkpt lat="43.89024" lon="7.31681">
        <ele>837</ele>
        <time>2011-11-19T11:19:04Z</time>
      </trkpt>
      <trkpt lat="43.89008" lon="7.31681">
        <ele>837</ele>
        <time>2011-11-19T11:19:14Z</time>
      </trkpt>
      <trkpt lat="43.88993" lon="7.3169">
        <ele>835</ele>
        <time>2011-11-19T11:19:24Z</time>
      </trkpt>
      <trkpt lat="43.88977" lon="7.31696">
        <ele>835</ele>
        <time>2011-11-19T11:19:34Z</time>
      </trkpt>
      <trkpt lat="43.8896" lon="7.31702">
        <ele>835</ele>
        <time>2011-11-19T11:19:45Z</time>
      </trkpt>
      <trkpt lat="43.88942" lon="7.31695">
        <ele>835</ele>
        <time>2011-11-19T11:19:55Z</time>
      </trkpt>
      <trkpt lat="43.88925" lon="7.31688">
        <ele>838</ele>
        <time>2011-11-19T11:20:05Z</time>
      </trkpt>
      <trkpt lat="43.88908" lon="7.31685">
        <ele>839</ele>
        <time>2011-11-19T11:20:15Z</time>
      </trkpt>
      <trkpt lat="43.88891" lon="7.31683">
        <ele>839</ele>
        <time>2011-11-19T11:20:25Z</time>
      </trkpt>
      <trkpt lat="43.88875" lon="7.31691">
        <ele>842</ele>
        <time>2011-11-19T11:20:35Z</time>
      </trkpt>
      <trkpt lat="43.88859" lon="7.31701">
        <ele>845</ele>
        <time>2011-11-19T11:20:46Z</time>
      </trkpt>
      <trkpt lat="43.88842" lon="7.31704">
        <ele>845</ele>
        <time>2011-11-19T11:20:56Z</time>
      </trkpt>
      <trkpt lat="43.88825" lon="7.31705">
        <ele>850</ele>
        <time>2011-11-19T11:21:06Z</time>
      </trkpt>
      <trkpt lat="43.8881" lon="7.31709">
        <ele>853</ele>
        <time>2011-11-19T11:21:17Z</time>
      </trkpt>
      <trkpt lat="43.88796" lon="7.31707">
        <ele>855</ele>
        <time>2011-11-19T11:21:27Z</time>
      </trkpt>
      <trkpt lat="43.88782" lon="7.31703">
        <ele>857</ele>
        <time>2011-11-19T11:21:37Z</time>
      </trkpt>
      <trkpt lat="43.88767" lon="7.31699">
        <ele>858</ele>
        <time>2011-11-19T11:21:47Z</time>
      </trkpt>
      <trkpt lat="43.88751" lon="7.31689">
        <ele>861</ele>
        <time>2011-11-19T11:21:58Z</time>
      </trkpt>
      <trkpt lat="43.88744" lon="7.31672">
        <ele>865</ele>
        <time>2011-11-19T11:22:08Z</time>
      </trkpt>
      <trkpt lat="43.88736" lon="7.31652">
        <ele>870</ele>
        <time>2011-11-19T11:22:18Z</time>
      </trkpt>
      <trkpt lat="43.88726" lon="7.31634">
        <ele>874</ele>
        <time>2011-11-19T11:22:28Z</time>
      </trkpt>
      <trkpt lat="43.88718" lon="7.31616">
        <ele>875</ele>
        <time>2011-11-19T11:22:38Z</time>
      </trkpt>
      <trkpt lat="43.88712" lon="7.31598">
        <ele>876</ele>
        <time>2011-11-19T11:22:48Z</time>
      </trkpt>
      <trkpt lat="43.88704" lon="7.31578">
        <ele>876</ele>
        <time>2011-11-19T11:22:58Z</time>
      </trkpt>
      <trkpt lat="43.88695" lon="7.31558">
        <ele>868</ele>
        <time>2011-11-19T11:23:08Z</time>
      </trkpt>
      <trkpt lat="43.88681" lon="7.31557">
        <ele>868</ele>
        <time>2011-11-19T11:23:18Z</time>
      </trkpt>
      <trkpt lat="43.88675" lon="7.31558">
        <ele>868</ele>
        <time>2011-11-19T11:23:30Z</time>
      </trkpt>
      <trkpt lat="43.88673" lon="7.31555">
        <ele>868</ele>
        <time>2011-11-19T11:23:42Z</time>
      </trkpt>
      <trkpt lat="43.88672" lon="7.31554">
        <ele>867</ele>
        <time>2011-11-19T11:23:56Z</time>
      </trkpt>
      <trkpt lat="43.88671" lon="7.31556">
        <ele>865</ele>
        <time>2011-11-19T11:24:06Z</time>
      </trkpt>
      <trkpt lat="43.88671" lon="7.31558">
        <ele>862</ele>
        <time>2011-11-19T11:24:29Z</time>
      </trkpt>
      <trkpt lat="43.88669" lon="7.31554">
        <ele>862</ele>
        <time>2011-11-19T11:24:40Z</time>
      </trkpt>
      <trkpt lat="43.88668" lon="7.31552">
        <ele>862</ele>
        <time>2011-11-19T11:24:51Z</time>
      </trkpt>
      <trkpt lat="43.88666" lon="7.31552">
        <ele>862</ele>
        <time>2011-11-19T11:25:14Z</time>
      </trkpt>
      <trkpt lat="43.88665" lon="7.31553">
        <ele>864</ele>
        <time>2011-11-19T11:25:36Z</time>
      </trkpt>
      <trkpt lat="43.88664" lon="7.31552">
        <ele>867</ele>
        <time>2011-11-19T11:25:38Z</time>
      </trkpt>
      <trkpt lat="43.88666" lon="7.31564">
        <ele>867</ele>
        <time>2011-11-19T11:25:48Z</time>
      </trkpt>
      <trkpt lat="43.88674" lon="7.31584">
        <ele>867</ele>
        <time>2011-11-19T11:25:58Z</time>
      </trkpt>
      <trkpt lat="43.88684" lon="7.31605">
        <ele>869</ele>
        <time>2011-11-19T11:26:09Z</time>
      </trkpt>
      <trkpt lat="43.88689" lon="7.31628">
        <ele>871</ele>
        <time>2011-11-19T11:26:20Z</time>
      </trkpt>
      <trkpt lat="43.88689" lon="7.31652">
        <ele>871</ele>
        <time>2011-11-19T11:26:31Z</time>
      </trkpt>
      <trkpt lat="43.88691" lon="7.31672">
        <ele>873</ele>
        <time>2011-11-19T11:26:41Z</time>
      </trkpt>
      <trkpt lat="43.88694" lon="7.31692">
        <ele>876</ele>
        <time>2011-11-19T11:26:51Z</time>
      </trkpt>
      <trkpt lat="43.88702" lon="7.3171">
        <ele>878</ele>
        <time>2011-11-19T11:27:01Z</time>
      </trkpt>
      <trkpt lat="43.88713" lon="7.31725">
        <ele>880</ele>
        <time>2011-11-19T11:27:11Z</time>
      </trkpt>
      <trkpt lat="43.88724" lon="7.31741">
        <ele>881</ele>
        <time>2011-11-19T11:27:21Z</time>
      </trkpt>
      <trkpt lat="43.88733" lon="7.31756">
        <ele>884</ele>
        <time>2011-11-19T11:27:31Z</time>
      </trkpt>
      <trkpt lat="43.88742" lon="7.31773">
        <ele>886</ele>
        <time>2011-11-19T11:27:41Z</time>
      </trkpt>
      <trkpt lat="43.88749" lon="7.31791">
        <ele>886</ele>
        <time>2011-11-19T11:27:51Z</time>
      </trkpt>
      <trkpt lat="43.88756" lon="7.31808">
        <ele>886</ele>
        <time>2011-11-19T11:28:01Z</time>
      </trkpt>
      <trkpt lat="43.88761" lon="7.31827">
        <ele>890</ele>
        <time>2011-11-19T11:28:11Z</time>
      </trkpt>
      <trkpt lat="43.88766" lon="7.31847">
        <ele>891</ele>
        <time>2011-11-19T11:28:21Z</time>
      </trkpt>
      <trkpt lat="43.8877" lon="7.31868">
        <ele>891</ele>
        <time>2011-11-19T11:28:31Z</time>
      </trkpt>
      <trkpt lat="43.88776" lon="7.31888">
        <ele>891</ele>
        <time>2011-11-19T11:28:41Z</time>
      </trkpt>
      <trkpt lat="43.8878" lon="7.31908">
        <ele>891</ele>
        <time>2011-11-19T11:28:51Z</time>
      </trkpt>
      <trkpt lat="43.88784" lon="7.31928">
        <ele>893</ele>
        <time>2011-11-19T11:29:01Z</time>
      </trkpt>
      <trkpt lat="43.88783" lon="7.31951">
        <ele>895</ele>
        <time>2011-11-19T11:29:12Z</time>
      </trkpt>
      <trkpt lat="43.88781" lon="7.31972">
        <ele>897</ele>
        <time>2011-11-19T11:29:22Z</time>
      </trkpt>
      <trkpt lat="43.88784" lon="7.31992">
        <ele>900</ele>
        <time>2011-11-19T11:29:32Z</time>
      </trkpt>
      <trkpt lat="43.88792" lon="7.32009">
        <ele>901</ele>
        <time>2011-11-19T11:29:42Z</time>
      </trkpt>
      <trkpt lat="43.88801" lon="7.32027">
        <ele>902</ele>
        <time>2011-11-19T11:29:52Z</time>
      </trkpt>
      <trkpt lat="43.88804" lon="7.32046">
        <ele>903</ele>
        <time>2011-11-19T11:30:02Z</time>
      </trkpt>
      <trkpt lat="43.88797" lon="7.32064">
        <ele>905</ele>
        <time>2011-11-19T11:30:12Z</time>
      </trkpt>
      <trkpt lat="43.88785" lon="7.32079">
        <ele>905</ele>
        <time>2011-11-19T11:30:22Z</time>
      </trkpt>
      <trkpt lat="43.88775" lon="7.32094">
        <ele>906</ele>
        <time>2011-11-19T11:30:32Z</time>
      </trkpt>
      <trkpt lat="43.88765" lon="7.32113">
        <ele>907</ele>
        <time>2011-11-19T11:30:43Z</time>
      </trkpt>
      <trkpt lat="43.88752" lon="7.32123">
        <ele>908</ele>
        <time>2011-11-19T11:30:53Z</time>
      </trkpt>
      <trkpt lat="43.88739" lon="7.32121">
        <ele>909</ele>
        <time>2011-11-19T11:31:03Z</time>
      </trkpt>
      <trkpt lat="43.88729" lon="7.32107">
        <ele>914</ele>
        <time>2011-11-19T11:31:13Z</time>
      </trkpt>
      <trkpt lat="43.88718" lon="7.32095">
        <ele>916</ele>
        <time>2011-11-19T11:31:23Z</time>
      </trkpt>
      <trkpt lat="43.88702" lon="7.32086">
        <ele>919</ele>
        <time>2011-11-19T11:31:34Z</time>
      </trkpt>
      <trkpt lat="43.88686" lon="7.32084">
        <ele>919</ele>
        <time>2011-11-19T11:31:44Z</time>
      </trkpt>
      <trkpt lat="43.8867" lon="7.32083">
        <ele>919</ele>
        <time>2011-11-19T11:31:54Z</time>
      </trkpt>
      <trkpt lat="43.88655" lon="7.32091">
        <ele>920</ele>
        <time>2011-11-19T11:32:04Z</time>
      </trkpt>
      <trkpt lat="43.8864" lon="7.32104">
        <ele>920</ele>
        <time>2011-11-19T11:32:14Z</time>
      </trkpt>
      <trkpt lat="43.88626" lon="7.32117">
        <ele>921</ele>
        <time>2011-11-19T11:32:24Z</time>
      </trkpt>
      <trkpt lat="43.88612" lon="7.32131">
        <ele>922</ele>
        <time>2011-11-19T11:32:35Z</time>
      </trkpt>
      <trkpt lat="43.88598" lon="7.32144">
        <ele>923</ele>
        <time>2011-11-19T11:32:46Z</time>
      </trkpt>
      <trkpt lat="43.88584" lon="7.32156">
        <ele>924</ele>
        <time>2011-11-19T11:32:56Z</time>
      </trkpt>
      <trkpt lat="43.88571" lon="7.32173">
        <ele>926</ele>
        <time>2011-11-19T11:33:07Z</time>
      </trkpt>
      <trkpt lat="43.88563" lon="7.32193">
        <ele>927</ele>
        <time>2011-11-19T11:33:17Z</time>
      </trkpt>
      <trkpt lat="43.88559" lon="7.32216">
        <ele>929</ele>
        <time>2011-11-19T11:33:27Z</time>
      </trkpt>
      <trkpt lat="43.88555" lon="7.32238">
        <ele>930</ele>
        <time>2011-11-19T11:33:37Z</time>
      </trkpt>
      <trkpt lat="43.88553" lon="7.32259">
        <ele>932</ele>
        <time>2011-11-19T11:33:47Z</time>
      </trkpt>
      <trkpt lat="43.8855" lon="7.3228">
        <ele>934</ele>
        <time>2011-11-19T11:33:57Z</time>
      </trkpt>
      <trkpt lat="43.8855" lon="7.32301">
        <ele>936</ele>
        <time>2011-11-19T11:34:07Z</time>
      </trkpt>
      <trkpt lat="43.88551" lon="7.32324">
        <ele>937</ele>
        <time>2011-11-19T11:34:17Z</time>
      </trkpt>
      <trkpt lat="43.88553" lon="7.32346">
        <ele>938</ele>
        <time>2011-11-19T11:34:27Z</time>
      </trkpt>
      <trkpt lat="43.88554" lon="7.32366">
        <ele>940</ele>
        <time>2011-11-19T11:34:37Z</time>
      </trkpt>
      <trkpt lat="43.88558" lon="7.32388">
        <ele>941</ele>
        <time>2011-11-19T11:34:47Z</time>
      </trkpt>
      <trkpt lat="43.88561" lon="7.32409">
        <ele>943</ele>
        <time>2011-11-19T11:34:57Z</time>
      </trkpt>
      <trkpt lat="43.88564" lon="7.3243">
        <ele>945</ele>
        <time>2011-11-19T11:35:07Z</time>
      </trkpt>
      <trkpt lat="43.88563" lon="7.32452">
        <ele>947</ele>
        <time>2011-11-19T11:35:17Z</time>
      </trkpt>
      <trkpt lat="43.88561" lon="7.32474">
        <ele>949</ele>
        <time>2011-11-19T11:35:27Z</time>
      </trkpt>
      <trkpt lat="43.88558" lon="7.32496">
        <ele>950</ele>
        <time>2011-11-19T11:35:37Z</time>
      </trkpt>
      <trkpt lat="43.88555" lon="7.32516">
        <ele>952</ele>
        <time>2011-11-19T11:35:47Z</time>
      </trkpt>
      <trkpt lat="43.88552" lon="7.32536">
        <ele>953</ele>
        <time>2011-11-19T11:35:57Z</time>
      </trkpt>
      <trkpt lat="43.8855" lon="7.32556">
        <ele>955</ele>
        <time>2011-11-19T11:36:07Z</time>
      </trkpt>
      <trkpt lat="43.88547" lon="7.32578">
        <ele>956</ele>
        <time>2011-11-19T11:36:17Z</time>
      </trkpt>
      <trkpt lat="43.88544" lon="7.32601">
        <ele>958</ele>
        <time>2011-11-19T11:36:28Z</time>
      </trkpt>
      <trkpt lat="43.88541" lon="7.32624">
        <ele>960</ele>
        <time>2011-11-19T11:36:39Z</time>
      </trkpt>
      <trkpt lat="43.88538" lon="7.32644">
        <ele>961</ele>
        <time>2011-11-19T11:36:49Z</time>
      </trkpt>
      <trkpt lat="43.88529" lon="7.32665">
        <ele>963</ele>
        <time>2011-11-19T11:37:00Z</time>
      </trkpt>
      <trkpt lat="43.88521" lon="7.32683">
        <ele>963</ele>
        <time>2011-11-19T11:37:10Z</time>
      </trkpt>
      <trkpt lat="43.88511" lon="7.32697">
        <ele>965</ele>
        <time>2011-11-19T11:37:20Z</time>
      </trkpt>
      <trkpt lat="43.88507" lon="7.32717">
        <ele>967</ele>
        <time>2011-11-19T11:37:30Z</time>
      </trkpt>
      <trkpt lat="43.88508" lon="7.32738">
        <ele>969</ele>
        <time>2011-11-19T11:37:40Z</time>
      </trkpt>
      <trkpt lat="43.88512" lon="7.32759">
        <ele>969</ele>
        <time>2011-11-19T11:37:50Z</time>
      </trkpt>
      <trkpt lat="43.88517" lon="7.32781">
        <ele>970</ele>
        <time>2011-11-19T11:38:00Z</time>
      </trkpt>
      <trkpt lat="43.88524" lon="7.32805">
        <ele>971</ele>
        <time>2011-11-19T11:38:10Z</time>
      </trkpt>
      <trkpt lat="43.88528" lon="7.32828">
        <ele>975</ele>
        <time>2011-11-19T11:38:20Z</time>
      </trkpt>
      <trkpt lat="43.88531" lon="7.3285">
        <ele>976</ele>
        <time>2011-11-19T11:38:30Z</time>
      </trkpt>
      <trkpt lat="43.88537" lon="7.32871">
        <ele>976</ele>
        <time>2011-11-19T11:38:40Z</time>
      </trkpt>
      <trkpt lat="43.88548" lon="7.32892">
        <ele>976</ele>
        <time>2011-11-19T11:38:50Z</time>
      </trkpt>
      <trkpt lat="43.88556" lon="7.32913">
        <ele>978</ele>
        <time>2011-11-19T11:39:00Z</time>
      </trkpt>
      <trkpt lat="43.88557" lon="7.32923">
        <ele>980</ele>
        <time>2011-11-19T11:39:11Z</time>
      </trkpt>
      <trkpt lat="43.88558" lon="7.32925">
        <ele>982</ele>
        <time>2011-11-19T11:39:25Z</time>
      </trkpt>
      <trkpt lat="43.88558" lon="7.32927">
        <ele>981</ele>
        <time>2011-11-19T11:39:49Z</time>
      </trkpt>
      <trkpt lat="43.8856" lon="7.32925">
        <ele>980</ele>
        <time>2011-11-19T11:40:00Z</time>
      </trkpt>
      <trkpt lat="43.8856" lon="7.32925">
        <ele>977</ele>
        <time>2011-11-19T11:40:13Z</time>
      </trkpt>
      <trkpt lat="43.8856" lon="7.32923">
        <ele>975</ele>
        <time>2011-11-19T11:40:29Z</time>
      </trkpt>
      <trkpt lat="43.8856" lon="7.32922">
        <ele>975</ele>
        <time>2011-11-19T11:40:40Z</time>
      </trkpt>
      <trkpt lat="43.88563" lon="7.32922">
        <ele>975</ele>
        <time>2011-11-19T11:40:55Z</time>
      </trkpt>
      <trkpt lat="43.88562" lon="7.3292">
        <ele>975</ele>
        <time>2011-11-19T11:41:11Z</time>
      </trkpt>
      <trkpt lat="43.8856" lon="7.32918">
        <ele>975</ele>
        <time>2011-11-19T11:41:14Z</time>
      </trkpt>
      <trkpt lat="43.8856" lon="7.32918">
        <ele>974</ele>
        <time>2011-11-19T11:41:22Z</time>
      </trkpt>
      <trkpt lat="43.8856" lon="7.32919">
        <ele>973</ele>
        <time>2011-11-19T11:41:31Z</time>
      </trkpt>
      <trkpt lat="43.88563" lon="7.32931">
        <ele>973</ele>
        <time>2011-11-19T11:41:42Z</time>
      </trkpt>
      <trkpt lat="43.88572" lon="7.3295">
        <ele>973</ele>
        <time>2011-11-19T11:41:52Z</time>
      </trkpt>
      <trkpt lat="43.88583" lon="7.32968">
        <ele>976</ele>
        <time>2011-11-19T11:42:02Z</time>
      </trkpt>
      <trkpt lat="43.88597" lon="7.32982">
        <ele>979</ele>
        <time>2011-11-19T11:42:12Z</time>
      </trkpt>
      <trkpt lat="43.88613" lon="7.3299">
        <ele>979</ele>
        <time>2011-11-19T11:42:22Z</time>
      </trkpt>
      <trkpt lat="43.88631" lon="7.32997">
        <ele>981</ele>
        <time>2011-11-19T11:42:32Z</time>
      </trkpt>
      <trkpt lat="43.8865" lon="7.33005">
        <ele>986</ele>
        <time>2011-11-19T11:42:43Z</time>
      </trkpt>
      <trkpt lat="43.88671" lon="7.33008">
        <ele>988</ele>
        <time>2011-11-19T11:42:54Z</time>
      </trkpt>
      <trkpt lat="43.88691" lon="7.33011">
        <ele>990</ele>
        <time>2011-11-19T11:43:04Z</time>
      </trkpt>
      <trkpt lat="43.88712" lon="7.33012">
        <ele>991</ele>
        <time>2011-11-19T11:43:14Z</time>
      </trkpt>
      <trkpt lat="43.88735" lon="7.33013">
        <ele>991</ele>
        <time>2011-11-19T11:43:24Z</time>
      </trkpt>
      <trkpt lat="43.88759" lon="7.33016">
        <ele>992</ele>
        <time>2011-11-19T11:43:35Z</time>
      </trkpt>
      <trkpt lat="43.88784" lon="7.33019">
        <ele>992</ele>
        <time>2011-11-19T11:43:46Z</time>
      </trkpt>
      <trkpt lat="43.88806" lon="7.33021">
        <ele>992</ele>
        <time>2011-11-19T11:43:56Z</time>
      </trkpt>
      <trkpt lat="43.88825" lon="7.33024">
        <ele>994</ele>
        <time>2011-11-19T11:44:06Z</time>
      </trkpt>
      <trkpt lat="43.88842" lon="7.33031">
        <ele>997</ele>
        <time>2011-11-19T11:44:16Z</time>
      </trkpt>
      <trkpt lat="43.88859" lon="7.33044">
        <ele>1000</ele>
        <time>2011-11-19T11:44:27Z</time>
      </trkpt>
      <trkpt lat="43.88876" lon="7.33061">
        <ele>1002</ele>
        <time>2011-11-19T11:44:37Z</time>
      </trkpt>
      <trkpt lat="43.88891" lon="7.3308">
        <ele>1006</ele>
        <time>2011-11-19T11:44:47Z</time>
      </trkpt>
      <trkpt lat="43.88906" lon="7.33099">
        <ele>1007</ele>
        <time>2011-11-19T11:44:57Z</time>
      </trkpt>
      <trkpt lat="43.8892" lon="7.33119">
        <ele>1003</ele>
        <time>2011-11-19T11:45:07Z</time>
      </trkpt>
      <trkpt lat="43.88936" lon="7.33137">
        <ele>1003</ele>
        <time>2011-11-19T11:45:17Z</time>
      </trkpt>
      <trkpt lat="43.88953" lon="7.33153">
        <ele>1003</ele>
        <time>2011-11-19T11:45:27Z</time>
      </trkpt>
      <trkpt lat="43.8897" lon="7.33165">
        <ele>1006</ele>
        <time>2011-11-19T11:45:37Z</time>
      </trkpt>
      <trkpt lat="43.8899" lon="7.33177">
        <ele>1006</ele>
        <time>2011-11-19T11:45:47Z</time>
      </trkpt>
      <trkpt lat="43.8901" lon="7.33189">
        <ele>1005</ele>
        <time>2011-11-19T11:45:57Z</time>
      </trkpt>
      <trkpt lat="43.8903" lon="7.33205">
        <ele>1007</ele>
        <time>2011-11-19T11:46:07Z</time>
      </trkpt>
      <trkpt lat="43.89051" lon="7.33222">
        <ele>1006</ele>
        <time>2011-11-19T11:46:17Z</time>
      </trkpt>
      <trkpt lat="43.89066" lon="7.33246">
        <ele>1003</ele>
        <time>2011-11-19T11:46:27Z</time>
      </trkpt>
      <trkpt lat="43.8908" lon="7.3327">
        <ele>1003</ele>
        <time>2011-11-19T11:46:37Z</time>
      </trkpt>
      <trkpt lat="43.89091" lon="7.33295">
        <ele>1003</ele>
        <time>2011-11-19T11:46:47Z</time>
      </trkpt>
      <trkpt lat="43.89104" lon="7.33321">
        <ele>1004</ele>
        <time>2011-11-19T11:46:57Z</time>
      </trkpt>
      <trkpt lat="43.89117" lon="7.33353">
        <ele>1011</ele>
        <time>2011-11-19T11:47:07Z</time>
      </trkpt>
      <trkpt lat="43.89134" lon="7.33395">
        <ele>1013</ele>
        <time>2011-11-19T11:47:17Z</time>
      </trkpt>
      <trkpt lat="43.89157" lon="7.33447">
        <ele>1014</ele>
        <time>2011-11-19T11:47:27Z</time>
      </trkpt>
      <trkpt lat="43.89183" lon="7.33499">
        <ele>1014</ele>
        <time>2011-11-19T11:47:37Z</time>
      </trkpt>
      <trkpt lat="43.8923" lon="7.33518">
        <ele>1014</ele>
        <time>2011-11-19T11:47:47Z</time>
      </trkpt>
      <trkpt lat="43.89252" lon="7.33579">
        <ele>1009</ele>
        <time>2011-11-19T11:47:58Z</time>
      </trkpt>
      <trkpt lat="43.89278" lon="7.33629">
        <ele>1006</ele>
        <time>2011-11-19T11:48:08Z</time>
      </trkpt>
      <trkpt lat="43.89324" lon="7.33647">
        <ele>1006</ele>
        <time>2011-11-19T11:48:18Z</time>
      </trkpt>
      <trkpt lat="43.89374" lon="7.33643">
        <ele>1006</ele>
        <time>2011-11-19T11:48:28Z</time>
      </trkpt>
      <trkpt lat="43.89419" lon="7.33691">
        <ele>1013</ele>
        <time>2011-11-19T11:48:39Z</time>
      </trkpt>
      <trkpt lat="43.89461" lon="7.33736">
        <ele>1016</ele>
        <time>2011-11-19T11:48:49Z</time>
      </trkpt>
      <trkpt lat="43.89502" lon="7.33785">
        <ele>1022</ele>
        <time>2011-11-19T11:48:59Z</time>
      </trkpt>
      <trkpt lat="43.8955" lon="7.33817">
        <ele>1024</ele>
        <time>2011-11-19T11:49:09Z</time>
      </trkpt>
      <trkpt lat="43.89603" lon="7.33829">
        <ele>1014</ele>
        <time>2011-11-19T11:49:19Z</time>
      </trkpt>
      <trkpt lat="43.89598" lon="7.33882">
        <ele>1003</ele>
        <time>2011-11-19T11:49:29Z</time>
      </trkpt>
      <trkpt lat="43.89599" lon="7.33919">
        <ele>1001</ele>
        <time>2011-11-19T11:49:39Z</time>
      </trkpt>
      <trkpt lat="43.89606" lon="7.33948">
        <ele>1001</ele>
        <time>2011-11-19T11:49:49Z</time>
      </trkpt>
      <trkpt lat="43.89613" lon="7.33979">
        <ele>1001</ele>
        <time>2011-11-19T11:49:59Z</time>
      </trkpt>
      <trkpt lat="43.89634" lon="7.33995">
        <ele>1001</ele>
        <time>2011-11-19T11:50:09Z</time>
      </trkpt>
      <trkpt lat="43.8966" lon="7.3399">
        <ele>1000</ele>
        <time>2011-11-19T11:50:19Z</time>
      </trkpt>
      <trkpt lat="43.89678" lon="7.33962">
        <ele>1000</ele>
        <time>2011-11-19T11:50:29Z</time>
      </trkpt>
      <trkpt lat="43.89709" lon="7.33934">
        <ele>1000</ele>
        <time>2011-11-19T11:50:40Z</time>
      </trkpt>
      <trkpt lat="43.89729" lon="7.33967">
        <ele>1000</ele>
        <time>2011-11-19T11:50:50Z</time>
      </trkpt>
      <trkpt lat="43.89731" lon="7.3402">
        <ele>1002</ele>
        <time>2011-11-19T11:51:00Z</time>
      </trkpt>
      <trkpt lat="43.89762" lon="7.34062">
        <ele>1002</ele>
        <time>2011-11-19T11:51:10Z</time>
      </trkpt>
      <trkpt lat="43.89799" lon="7.34029">
        <ele>1002</ele>
        <time>2011-11-19T11:51:20Z</time>
      </trkpt>
      <trkpt lat="43.89836" lon="7.34055">
        <ele>1002</ele>
        <time>2011-11-19T11:51:30Z</time>
      </trkpt>
      <trkpt lat="43.89872" lon="7.34078">
        <ele>1002</ele>
        <time>2011-11-19T11:51:40Z</time>
      </trkpt>
      <trkpt lat="43.89904" lon="7.34098">
        <ele>1002</ele>
        <time>2011-11-19T11:51:50Z</time>
      </trkpt>
      <trkpt lat="43.89931" lon="7.34111">
        <ele>1002</ele>
        <time>2011-11-19T11:52:00Z</time>
      </trkpt>
      <trkpt lat="43.89932" lon="7.34111">
        <ele>1000</ele>
        <time>2011-11-19T11:52:10Z</time>
      </trkpt>
      <trkpt lat="43.89936" lon="7.34111">
        <ele>1000</ele>
        <time>2011-11-19T11:52:20Z</time>
      </trkpt>
      <trkpt lat="43.89951" lon="7.34119">
        <ele>998</ele>
        <time>2011-11-19T11:52:30Z</time>
      </trkpt>
      <trkpt lat="43.89967" lon="7.34126">
        <ele>998</ele>
        <time>2011-11-19T11:52:40Z</time>
      </trkpt>
      <trkpt lat="43.89983" lon="7.34133">
        <ele>1002</ele>
        <time>2011-11-19T11:52:50Z</time>
      </trkpt>
      <trkpt lat="43.89999" lon="7.34142">
        <ele>1004</ele>
        <time>2011-11-19T11:53:00Z</time>
      </trkpt>
      <trkpt lat="43.90015" lon="7.34152">
        <ele>1004</ele>
        <time>2011-11-19T11:53:10Z</time>
      </trkpt>
      <trkpt lat="43.90029" lon="7.34159">
        <ele>1009</ele>
        <time>2011-11-19T11:53:20Z</time>
      </trkpt>
      <trkpt lat="43.90045" lon="7.34168">
        <ele>1017</ele>
        <time>2011-11-19T11:53:30Z</time>
      </trkpt>
      <trkpt lat="43.90063" lon="7.34169">
        <ele>1017</ele>
        <time>2011-11-19T11:53:40Z</time>
      </trkpt>
      <trkpt lat="43.90079" lon="7.34156">
        <ele>1016</ele>
        <time>2011-11-19T11:53:50Z</time>
      </trkpt>
      <trkpt lat="43.90088" lon="7.34137">
        <ele>1017</ele>
        <time>2011-11-19T11:54:00Z</time>
      </trkpt>
      <trkpt lat="43.9009" lon="7.34111">
        <ele>1022</ele>
        <time>2011-11-19T11:54:10Z</time>
      </trkpt>
      <trkpt lat="43.9009" lon="7.3408">
        <ele>1022</ele>
        <time>2011-11-19T11:54:21Z</time>
      </trkpt>
      <trkpt lat="43.90089" lon="7.34053">
        <ele>1022</ele>
        <time>2011-11-19T11:54:31Z</time>
      </trkpt>
      <trkpt lat="43.90087" lon="7.34025">
        <ele>1024</ele>
        <time>2011-11-19T11:54:41Z</time>
      </trkpt>
      <trkpt lat="43.90085" lon="7.33996">
        <ele>1024</ele>
        <time>2011-11-19T11:54:51Z</time>
      </trkpt>
      <trkpt lat="43.90079" lon="7.3397">
        <ele>1027</ele>
        <time>2011-11-19T11:55:01Z</time>
      </trkpt>
      <trkpt lat="43.90084" lon="7.33943">
        <ele>1027</ele>
        <time>2011-11-19T11:55:11Z</time>
      </trkpt>
      <trkpt lat="43.90099" lon="7.33925">
        <ele>1027</ele>
        <time>2011-11-19T11:55:21Z</time>
      </trkpt>
      <trkpt lat="43.90106" lon="7.33899">
        <ele>1027</ele>
        <time>2011-11-19T11:55:31Z</time>
      </trkpt>
      <trkpt lat="43.90109" lon="7.33872">
        <ele>1029</ele>
        <time>2011-11-19T11:55:41Z</time>
      </trkpt>
      <trkpt lat="43.90116" lon="7.33847">
        <ele>1031</ele>
        <time>2011-11-19T11:55:51Z</time>
      </trkpt>
      <trkpt lat="43.90131" lon="7.3383">
        <ele>1032</ele>
        <time>2011-11-19T11:56:01Z</time>
      </trkpt>
      <trkpt lat="43.90151" lon="7.33821">
        <ele>1033</ele>
        <time>2011-11-19T11:56:11Z</time>
      </trkpt>
      <trkpt lat="43.9017" lon="7.33812">
        <ele>1034</ele>
        <time>2011-11-19T11:56:21Z</time>
      </trkpt>
      <trkpt lat="43.90187" lon="7.33804">
        <ele>1035</ele>
        <time>2011-11-19T11:56:31Z</time>
      </trkpt>
      <trkpt lat="43.90211" lon="7.33805">
        <ele>1036</ele>
        <time>2011-11-19T11:56:41Z</time>
      </trkpt>
      <trkpt lat="43.90238" lon="7.33809">
        <ele>1038</ele>
        <time>2011-11-19T11:56:51Z</time>
      </trkpt>
      <trkpt lat="43.90266" lon="7.33809">
        <ele>1038</ele>
        <time>2011-11-19T11:57:01Z</time>
      </trkpt>
      <trkpt lat="43.90295" lon="7.33818">
        <ele>1039</ele>
        <time>2011-11-19T11:57:11Z</time>
      </trkpt>
      <trkpt lat="43.90303" lon="7.33856">
        <ele>1040</ele>
        <time>2011-11-19T11:57:21Z</time>
      </trkpt>
      <trkpt lat="43.90309" lon="7.339">
        <ele>1042</ele>
        <time>2011-11-19T11:57:31Z</time>
      </trkpt>
      <trkpt lat="43.90329" lon="7.33946">
        <ele>1042</ele>
        <time>2011-11-19T11:57:42Z</time>
      </trkpt>
      <trkpt lat="43.90367" lon="7.33916">
        <ele>1042</ele>
        <time>2011-11-19T11:57:52Z</time>
      </trkpt>
      <trkpt lat="43.90414" lon="7.33901">
        <ele>1042</ele>
        <time>2011-11-19T11:58:02Z</time>
      </trkpt>
      <trkpt lat="43.90458" lon="7.33927">
        <ele>1042</ele>
        <time>2011-11-19T11:58:12Z</time>
      </trkpt>
      <trkpt lat="43.90486" lon="7.33995">
        <ele>1041</ele>
        <time>2011-11-19T11:58:22Z</time>
      </trkpt>
      <trkpt lat="43.90538" lon="7.33973">
        <ele>1041</ele>
        <time>2011-11-19T11:58:32Z</time>
      </trkpt>
      <trkpt lat="43.90562" lon="7.3393">
        <ele>1041</ele>
        <time>2011-11-19T11:58:42Z</time>
      </trkpt>
      <trkpt lat="43.90572" lon="7.339">
        <ele>1041</ele>
        <time>2011-11-19T11:58:52Z</time>
      </trkpt>
      <trkpt lat="43.90587" lon="7.33885">
        <ele>1041</ele>
        <time>2011-11-19T11:59:02Z</time>
      </trkpt>
      <trkpt lat="43.90606" lon="7.33885">
        <ele>1043</ele>
        <time>2011-11-19T11:59:12Z</time>
      </trkpt>
      <trkpt lat="43.90624" lon="7.33879">
        <ele>1043</ele>
        <time>2011-11-19T11:59:22Z</time>
      </trkpt>
      <trkpt lat="43.90637" lon="7.33861">
        <ele>1045</ele>
        <time>2011-11-19T11:59:32Z</time>
      </trkpt>
      <trkpt lat="43.90645" lon="7.33838">
        <ele>1050</ele>
        <time>2011-11-19T11:59:42Z</time>
      </trkpt>
      <trkpt lat="43.90647" lon="7.33813">
        <ele>1054</ele>
        <time>2011-11-19T11:59:52Z</time>
      </trkpt>
      <trkpt lat="43.90644" lon="7.3379">
        <ele>1057</ele>
        <time>2011-11-19T12:00:02Z</time>
      </trkpt>
      <trkpt lat="43.90644" lon="7.33764">
        <ele>1058</ele>
        <time>2011-11-19T12:00:12Z</time>
      </trkpt>
      <trkpt lat="43.90645" lon="7.33741">
        <ele>1058</ele>
        <time>2011-11-19T12:00:22Z</time>
      </trkpt>
      <trkpt lat="43.9065" lon="7.33719">
        <ele>1058</ele>
        <time>2011-11-19T12:00:32Z</time>
      </trkpt>
      <trkpt lat="43.90658" lon="7.33698">
        <ele>1058</ele>
        <time>2011-11-19T12:00:42Z</time>
      </trkpt>
      <trkpt lat="43.90666" lon="7.33677">
        <ele>1060</ele>
        <time>2011-11-19T12:00:52Z</time>
      </trkpt>
      <trkpt lat="43.90672" lon="7.33655">
        <ele>1062</ele>
        <time>2011-11-19T12:01:02Z</time>
      </trkpt>
      <trkpt lat="43.90672" lon="7.33631">
        <ele>1063</ele>
        <time>2011-11-19T12:01:12Z</time>
      </trkpt>
      <trkpt lat="43.90674" lon="7.33608">
        <ele>1063</ele>
        <time>2011-11-19T12:01:22Z</time>
      </trkpt>
      <trkpt lat="43.90684" lon="7.3359">
        <ele>1063</ele>
        <time>2011-11-19T12:01:32Z</time>
      </trkpt>
      <trkpt lat="43.90686" lon="7.33568">
        <ele>1066</ele>
        <time>2011-11-19T12:01:42Z</time>
      </trkpt>
      <trkpt lat="43.90676" lon="7.33548">
        <ele>1070</ele>
        <time>2011-11-19T12:01:52Z</time>
      </trkpt>
      <trkpt lat="43.90673" lon="7.33522">
        <ele>1071</ele>
        <time>2011-11-19T12:02:02Z</time>
      </trkpt>
      <trkpt lat="43.90676" lon="7.33488">
        <ele>1071</ele>
        <time>2011-11-19T12:02:13Z</time>
      </trkpt>
      <trkpt lat="43.90671" lon="7.3345">
        <ele>1070</ele>
        <time>2011-11-19T12:02:23Z</time>
      </trkpt>
      <trkpt lat="43.90681" lon="7.33408">
        <ele>1070</ele>
        <time>2011-11-19T12:02:33Z</time>
      </trkpt>
      <trkpt lat="43.907" lon="7.33386">
        <ele>1070</ele>
        <time>2011-11-19T12:02:43Z</time>
      </trkpt>
      <trkpt lat="43.90736" lon="7.33398">
        <ele>1069</ele>
        <time>2011-11-19T12:02:53Z</time>
      </trkpt>
      <trkpt lat="43.90761" lon="7.33365">
        <ele>1066</ele>
        <time>2011-11-19T12:03:03Z</time>
      </trkpt>
      <trkpt lat="43.90752" lon="7.3333">
        <ele>1066</ele>
        <time>2011-11-19T12:03:13Z</time>
      </trkpt>
      <trkpt lat="43.90753" lon="7.33305">
        <ele>1066</ele>
        <time>2011-11-19T12:03:23Z</time>
      </trkpt>
      <trkpt lat="43.90752" lon="7.33301">
        <ele>1066</ele>
        <time>2011-11-19T12:03:35Z</time>
      </trkpt>
      <trkpt lat="43.90752" lon="7.33298">
        <ele>1067</ele>
        <time>2011-11-19T12:03:45Z</time>
      </trkpt>
      <trkpt lat="43.90752" lon="7.33294">
        <ele>1068</ele>
        <time>2011-11-19T12:03:56Z</time>
      </trkpt>
      <trkpt lat="43.90753" lon="7.33291">
        <ele>1064</ele>
        <time>2011-11-19T12:03:57Z</time>
      </trkpt>
      <trkpt lat="43.90753" lon="7.3329">
        <ele>1067</ele>
        <time>2011-11-19T12:04:05Z</time>
      </trkpt>
      <trkpt lat="43.90752" lon="7.33295">
        <ele>1067</ele>
        <time>2011-11-19T12:04:17Z</time>
      </trkpt>
      <trkpt lat="43.90749" lon="7.33291">
        <ele>1071</ele>
        <time>2011-11-19T12:04:29Z</time>
      </trkpt>
      <trkpt lat="43.9075" lon="7.33285">
        <ele>1073</ele>
        <time>2011-11-19T12:04:41Z</time>
      </trkpt>
      <trkpt lat="43.90755" lon="7.33286">
        <ele>1067</ele>
        <time>2011-11-19T12:04:51Z</time>
      </trkpt>
      <trkpt lat="43.90754" lon="7.33287">
        <ele>1055</ele>
        <time>2011-11-19T12:05:03Z</time>
      </trkpt>
      <trkpt lat="43.90751" lon="7.33286">
        <ele>1053</ele>
        <time>2011-11-19T12:05:15Z</time>
      </trkpt>
      <trkpt lat="43.90749" lon="7.33284">
        <ele>1052</ele>
        <time>2011-11-19T12:05:28Z</time>
      </trkpt>
      <trkpt lat="43.90751" lon="7.33285">
        <ele>1052</ele>
        <time>2011-11-19T12:05:45Z</time>
      </trkpt>
      <trkpt lat="43.90753" lon="7.33284">
        <ele>1061</ele>
        <time>2011-11-19T12:05:56Z</time>
      </trkpt>
      <trkpt lat="43.90753" lon="7.33287">
        <ele>1061</ele>
        <time>2011-11-19T12:06:09Z</time>
      </trkpt>
      <trkpt lat="43.90753" lon="7.33289">
        <ele>1061</ele>
        <time>2011-11-19T12:06:24Z</time>
      </trkpt>
      <trkpt lat="43.90755" lon="7.33289">
        <ele>1059</ele>
        <time>2011-11-19T12:06:41Z</time>
      </trkpt>
      <trkpt lat="43.90757" lon="7.33288">
        <ele>1053</ele>
        <time>2011-11-19T12:06:51Z</time>
      </trkpt>
      <trkpt lat="43.90753" lon="7.33285">
        <ele>1051</ele>
        <time>2011-11-19T12:07:01Z</time>
      </trkpt>
      <trkpt lat="43.90752" lon="7.33288">
        <ele>1051</ele>
        <time>2011-11-19T12:07:11Z</time>
      </trkpt>
      <trkpt lat="43.9075" lon="7.3329">
        <ele>1057</ele>
        <time>2011-11-19T12:07:23Z</time>
      </trkpt>
      <trkpt lat="43.90749" lon="7.33296">
        <ele>1057</ele>
        <time>2011-11-19T12:07:35Z</time>
      </trkpt>
      <trkpt lat="43.90749" lon="7.33297">
        <ele>1057</ele>
        <time>2011-11-19T12:07:45Z</time>
      </trkpt>
      <trkpt lat="43.90752" lon="7.33296">
        <ele>1057</ele>
        <time>2011-11-19T12:07:59Z</time>
      </trkpt>
      <trkpt lat="43.90765" lon="7.33287">
        <ele>1053</ele>
        <time>2011-11-19T12:08:09Z</time>
      </trkpt>
      <trkpt lat="43.90778" lon="7.33281">
        <ele>1052</ele>
        <time>2011-11-19T12:08:19Z</time>
      </trkpt>
      <trkpt lat="43.90794" lon="7.33271">
        <ele>1049</ele>
        <time>2011-11-19T12:08:29Z</time>
      </trkpt>
      <trkpt lat="43.90807" lon="7.33259">
        <ele>1049</ele>
        <time>2011-11-19T12:08:39Z</time>
      </trkpt>
      <trkpt lat="43.90825" lon="7.33243">
        <ele>1049</ele>
        <time>2011-11-19T12:08:49Z</time>
      </trkpt>
      <trkpt lat="43.90846" lon="7.33229">
        <ele>1050</ele>
        <time>2011-11-19T12:08:59Z</time>
      </trkpt>
      <trkpt lat="43.90867" lon="7.33216">
        <ele>1052</ele>
        <time>2011-11-19T12:09:09Z</time>
      </trkpt>
      <trkpt lat="43.90884" lon="7.33202">
        <ele>1057</ele>
        <time>2011-11-19T12:09:19Z</time>
      </trkpt>
      <trkpt lat="43.90894" lon="7.33176">
        <ele>1059</ele>
        <time>2011-11-19T12:09:29Z</time>
      </trkpt>
      <trkpt lat="43.90905" lon="7.33155">
        <ele>1059</ele>
        <time>2011-11-19T12:09:39Z</time>
      </trkpt>
      <trkpt lat="43.90918" lon="7.33139">
        <ele>1061</ele>
        <time>2011-11-19T12:09:49Z</time>
      </trkpt>
      <trkpt lat="43.9093" lon="7.33118">
        <ele>1061</ele>
        <time>2011-11-19T12:09:59Z</time>
      </trkpt>
      <trkpt lat="43.90942" lon="7.331">
        <ele>1063</ele>
        <time>2011-11-19T12:10:10Z</time>
      </trkpt>
      <trkpt lat="43.9095" lon="7.33081">
        <ele>1064</ele>
        <time>2011-11-19T12:10:20Z</time>
      </trkpt>
      <trkpt lat="43.90964" lon="7.33074">
        <ele>1069</ele>
        <time>2011-11-19T12:10:30Z</time>
      </trkpt>
      <trkpt lat="43.9098" lon="7.33077">
        <ele>1065</ele>
        <time>2011-11-19T12:10:40Z</time>
      </trkpt>
      <trkpt lat="43.90995" lon="7.33076">
        <ele>1060</ele>
        <time>2011-11-19T12:10:50Z</time>
      </trkpt>
      <trkpt lat="43.91005" lon="7.33064">
        <ele>1059</ele>
        <time>2011-11-19T12:11:00Z</time>
      </trkpt>
      <trkpt lat="43.91016" lon="7.33055">
        <ele>1066</ele>
        <time>2011-11-19T12:11:10Z</time>
      </trkpt>
      <trkpt lat="43.9103" lon="7.33041">
        <ele>1070</ele>
        <time>2011-11-19T12:11:21Z</time>
      </trkpt>
      <trkpt lat="43.91043" lon="7.33033">
        <ele>1070</ele>
        <time>2011-11-19T12:11:31Z</time>
      </trkpt>
      <trkpt lat="43.91059" lon="7.33028">
        <ele>1070</ele>
        <time>2011-11-19T12:11:42Z</time>
      </trkpt>
      <trkpt lat="43.91075" lon="7.33025">
        <ele>1070</ele>
        <time>2011-11-19T12:11:52Z</time>
      </trkpt>
      <trkpt lat="43.9109" lon="7.33018">
        <ele>1070</ele>
        <time>2011-11-19T12:12:02Z</time>
      </trkpt>
      <trkpt lat="43.91104" lon="7.33012">
        <ele>1070</ele>
        <time>2011-11-19T12:12:12Z</time>
      </trkpt>
      <trkpt lat="43.91117" lon="7.33003">
        <ele>1070</ele>
        <time>2011-11-19T12:12:23Z</time>
      </trkpt>
      <trkpt lat="43.91124" lon="7.32991">
        <ele>1078</ele>
        <time>2011-11-19T12:12:33Z</time>
      </trkpt>
      <trkpt lat="43.91131" lon="7.32976">
        <ele>1083</ele>
        <time>2011-11-19T12:12:43Z</time>
      </trkpt>
      <trkpt lat="43.91141" lon="7.32957">
        <ele>1084</ele>
        <time>2011-11-19T12:12:54Z</time>
      </trkpt>
      <trkpt lat="43.91153" lon="7.32943">
        <ele>1089</ele>
        <time>2011-11-19T12:13:04Z</time>
      </trkpt>
      <trkpt lat="43.91163" lon="7.32924">
        <ele>1091</ele>
        <time>2011-11-19T12:13:14Z</time>
      </trkpt>
      <trkpt lat="43.91178" lon="7.3291">
        <ele>1096</ele>
        <time>2011-11-19T12:13:24Z</time>
      </trkpt>
      <trkpt lat="43.91196" lon="7.32886">
        <ele>1094</ele>
        <time>2011-11-19T12:13:34Z</time>
      </trkpt>
      <trkpt lat="43.91217" lon="7.32871">
        <ele>1085</ele>
        <time>2011-11-19T12:13:44Z</time>
      </trkpt>
      <trkpt lat="43.91252" lon="7.32842">
        <ele>1085</ele>
        <time>2011-11-19T12:13:54Z</time>
      </trkpt>
      <trkpt lat="43.91298" lon="7.32799">
        <ele>1083</ele>
        <time>2011-11-19T12:14:04Z</time>
      </trkpt>
      <trkpt lat="43.91333" lon="7.32776">
        <ele>1087</ele>
        <time>2011-11-19T12:14:14Z</time>
      </trkpt>
      <trkpt lat="43.91359" lon="7.3276">
        <ele>1091</ele>
        <time>2011-11-19T12:14:24Z</time>
      </trkpt>
      <trkpt lat="43.9138" lon="7.32746">
        <ele>1094</ele>
        <time>2011-11-19T12:14:34Z</time>
      </trkpt>
      <trkpt lat="43.91402" lon="7.32728">
        <ele>1094</ele>
        <time>2011-11-19T12:14:44Z</time>
      </trkpt>
      <trkpt lat="43.91421" lon="7.32717">
        <ele>1094</ele>
        <time>2011-11-19T12:14:54Z</time>
      </trkpt>
      <trkpt lat="43.91444" lon="7.32707">
        <ele>1093</ele>
        <time>2011-11-19T12:15:04Z</time>
      </trkpt>
      <trkpt lat="43.91464" lon="7.32692">
        <ele>1092</ele>
        <time>2011-11-19T12:15:14Z</time>
      </trkpt>
      <trkpt lat="43.91465" lon="7.32663">
        <ele>1092</ele>
        <time>2011-11-19T12:15:24Z</time>
      </trkpt>
      <trkpt lat="43.91466" lon="7.32632">
        <ele>1094</ele>
        <time>2011-11-19T12:15:34Z</time>
      </trkpt>
      <trkpt lat="43.91462" lon="7.326">
        <ele>1094</ele>
        <time>2011-11-19T12:15:44Z</time>
      </trkpt>
      <trkpt lat="43.91456" lon="7.32568">
        <ele>1094</ele>
        <time>2011-11-19T12:15:54Z</time>
      </trkpt>
      <trkpt lat="43.91455" lon="7.32538">
        <ele>1094</ele>
        <time>2011-11-19T12:16:04Z</time>
      </trkpt>
      <trkpt lat="43.91437" lon="7.32506">
        <ele>1094</ele>
        <time>2011-11-19T12:16:14Z</time>
      </trkpt>
      <trkpt lat="43.91434" lon="7.32449">
        <ele>1093</ele>
        <time>2011-11-19T12:16:25Z</time>
      </trkpt>
      <trkpt lat="43.91438" lon="7.32393">
        <ele>1091</ele>
        <time>2011-11-19T12:16:35Z</time>
      </trkpt>
      <trkpt lat="43.91437" lon="7.32358">
        <ele>1090</ele>
        <time>2011-11-19T12:16:45Z</time>
      </trkpt>
      <trkpt lat="43.91437" lon="7.32333">
        <ele>1089</ele>
        <time>2011-11-19T12:16:56Z</time>
      </trkpt>
      <trkpt lat="43.91438" lon="7.32308">
        <ele>1089</ele>
        <time>2011-11-19T12:17:06Z</time>
      </trkpt>
      <trkpt lat="43.91446" lon="7.32291">
        <ele>1092</ele>
        <time>2011-11-19T12:17:17Z</time>
      </trkpt>
      <trkpt lat="43.91454" lon="7.32271">
        <ele>1094</ele>
        <time>2011-11-19T12:17:28Z</time>
      </trkpt>
      <trkpt lat="43.91458" lon="7.32253">
        <ele>1094</ele>
        <time>2011-11-19T12:17:38Z</time>
      </trkpt>
      <trkpt lat="43.91461" lon="7.32233">
        <ele>1095</ele>
        <time>2011-11-19T12:17:49Z</time>
      </trkpt>
      <trkpt lat="43.91471" lon="7.3221">
        <ele>1095</ele>
        <time>2011-11-19T12:18:00Z</time>
      </trkpt>
      <trkpt lat="43.91488" lon="7.32179">
        <ele>1095</ele>
        <time>2011-11-19T12:18:10Z</time>
      </trkpt>
      <trkpt lat="43.91494" lon="7.32153">
        <ele>1095</ele>
        <time>2011-11-19T12:18:21Z</time>
      </trkpt>
      <trkpt lat="43.915" lon="7.3213">
        <ele>1096</ele>
        <time>2011-11-19T12:18:32Z</time>
      </trkpt>
      <trkpt lat="43.91511" lon="7.32106">
        <ele>1096</ele>
        <time>2011-11-19T12:18:42Z</time>
      </trkpt>
      <trkpt lat="43.9152" lon="7.32089">
        <ele>1096</ele>
        <time>2011-11-19T12:18:52Z</time>
      </trkpt>
      <trkpt lat="43.9153" lon="7.3207">
        <ele>1096</ele>
        <time>2011-11-19T12:19:02Z</time>
      </trkpt>
      <trkpt lat="43.91538" lon="7.32048">
        <ele>1096</ele>
        <time>2011-11-19T12:19:13Z</time>
      </trkpt>
      <trkpt lat="43.91549" lon="7.32033">
        <ele>1098</ele>
        <time>2011-11-19T12:19:24Z</time>
      </trkpt>
      <trkpt lat="43.91553" lon="7.32013">
        <ele>1104</ele>
        <time>2011-11-19T12:19:34Z</time>
      </trkpt>
      <trkpt lat="43.91558" lon="7.32002">
        <ele>1107</ele>
        <time>2011-11-19T12:19:47Z</time>
      </trkpt>
      <trkpt lat="43.91561" lon="7.31987">
        <ele>1110</ele>
        <time>2011-11-19T12:19:57Z</time>
      </trkpt>
      <trkpt lat="43.91567" lon="7.31973">
        <ele>1114</ele>
        <time>2011-11-19T12:20:09Z</time>
      </trkpt>
      <trkpt lat="43.91571" lon="7.31963">
        <ele>1115</ele>
        <time>2011-11-19T12:20:19Z</time>
      </trkpt>
      <trkpt lat="43.91577" lon="7.31957">
        <ele>1115</ele>
        <time>2011-11-19T12:20:30Z</time>
      </trkpt>
      <trkpt lat="43.91583" lon="7.31949">
        <ele>1119</ele>
        <time>2011-11-19T12:20:41Z</time>
      </trkpt>
      <trkpt lat="43.91586" lon="7.31944">
        <ele>1121</ele>
        <time>2011-11-19T12:20:51Z</time>
      </trkpt>
      <trkpt lat="43.9159" lon="7.31935">
        <ele>1124</ele>
        <time>2011-11-19T12:21:01Z</time>
      </trkpt>
      <trkpt lat="43.91597" lon="7.31928">
        <ele>1125</ele>
        <time>2011-11-19T12:21:11Z</time>
      </trkpt>
      <trkpt lat="43.91601" lon="7.31926">
        <ele>1130</ele>
        <time>2011-11-19T12:21:22Z</time>
      </trkpt>
      <trkpt lat="43.91603" lon="7.31927">
        <ele>1134</ele>
        <time>2011-11-19T12:21:34Z</time>
      </trkpt>
      <trkpt lat="43.91607" lon="7.31923">
        <ele>1134</ele>
        <time>2011-11-19T12:21:45Z</time>
      </trkpt>
      <trkpt lat="43.91606" lon="7.31921">
        <ele>1134</ele>
        <time>2011-11-19T12:22:03Z</time>
      </trkpt>
      <trkpt lat="43.91612" lon="7.31912">
        <ele>1134</ele>
        <time>2011-11-19T12:22:14Z</time>
      </trkpt>
      <trkpt lat="43.91618" lon="7.31903">
        <ele>1134</ele>
        <time>2011-11-19T12:22:24Z</time>
      </trkpt>
      <trkpt lat="43.91625" lon="7.31895">
        <ele>1134</ele>
        <time>2011-11-19T12:22:35Z</time>
      </trkpt>
      <trkpt lat="43.91626" lon="7.3189">
        <ele>1135</ele>
        <time>2011-11-19T12:22:51Z</time>
      </trkpt>
      <trkpt lat="43.91627" lon="7.31885">
        <ele>1135</ele>
        <time>2011-11-19T12:23:01Z</time>
      </trkpt>
      <trkpt lat="43.91629" lon="7.31878">
        <ele>1138</ele>
        <time>2011-11-19T12:23:19Z</time>
      </trkpt>
      <trkpt lat="43.9163" lon="7.31872">
        <ele>1138</ele>
        <time>2011-11-19T12:23:30Z</time>
      </trkpt>
      <trkpt lat="43.9163" lon="7.31866">
        <ele>1138</ele>
        <time>2011-11-19T12:23:41Z</time>
      </trkpt>
      <trkpt lat="43.9163" lon="7.31861">
        <ele>1139</ele>
        <time>2011-11-19T12:23:57Z</time>
      </trkpt>
      <trkpt lat="43.9163" lon="7.31857">
        <ele>1140</ele>
        <time>2011-11-19T12:24:13Z</time>
      </trkpt>
      <trkpt lat="43.9163" lon="7.31855">
        <ele>1140</ele>
        <time>2011-11-19T12:24:23Z</time>
      </trkpt>
      <trkpt lat="43.91632" lon="7.31847">
        <ele>1142</ele>
        <time>2011-11-19T12:24:40Z</time>
      </trkpt>
      <trkpt lat="43.91632" lon="7.31843">
        <ele>1144</ele>
        <time>2011-11-19T12:24:50Z</time>
      </trkpt>
      <trkpt lat="43.91629" lon="7.31836">
        <ele>1144</ele>
        <time>2011-11-19T12:25:02Z</time>
      </trkpt>
      <trkpt lat="43.91631" lon="7.31834">
        <ele>1145</ele>
        <time>2011-11-19T12:25:18Z</time>
      </trkpt>
      <trkpt lat="43.91638" lon="7.31827">
        <ele>1149</ele>
        <time>2011-11-19T12:25:30Z</time>
      </trkpt>
      <trkpt lat="43.91636" lon="7.31824">
        <ele>1151</ele>
        <time>2011-11-19T12:25:43Z</time>
      </trkpt>
      <trkpt lat="43.91628" lon="7.31822">
        <ele>1152</ele>
        <time>2011-11-19T12:25:56Z</time>
      </trkpt>
      <trkpt lat="43.91624" lon="7.31819">
        <ele>1152</ele>
        <time>2011-11-19T12:26:06Z</time>
      </trkpt>
      <trkpt lat="43.91617" lon="7.31817">
        <ele>1153</ele>
        <time>2011-11-19T12:26:16Z</time>
      </trkpt>
      <trkpt lat="43.91615" lon="7.31815">
        <ele>1153</ele>
        <time>2011-11-19T12:26:26Z</time>
      </trkpt>
      <trkpt lat="43.91606" lon="7.31814">
        <ele>1154</ele>
        <time>2011-11-19T12:26:46Z</time>
      </trkpt>
      <trkpt lat="43.91599" lon="7.31805">
        <ele>1155</ele>
        <time>2011-11-19T12:26:57Z</time>
      </trkpt>
      <trkpt lat="43.91594" lon="7.31797">
        <ele>1157</ele>
        <time>2011-11-19T12:27:09Z</time>
      </trkpt>
      <trkpt lat="43.91592" lon="7.31792">
        <ele>1159</ele>
        <time>2011-11-19T12:27:20Z</time>
      </trkpt>
      <trkpt lat="43.91591" lon="7.31788">
        <ele>1161</ele>
        <time>2011-11-19T12:27:41Z</time>
      </trkpt>
      <trkpt lat="43.91586" lon="7.31784">
        <ele>1161</ele>
        <time>2011-11-19T12:27:53Z</time>
      </trkpt>
      <trkpt lat="43.91579" lon="7.31783">
        <ele>1163</ele>
        <time>2011-11-19T12:28:07Z</time>
      </trkpt>
      <trkpt lat="43.9158" lon="7.31782">
        <ele>1165</ele>
        <time>2011-11-19T12:28:18Z</time>
      </trkpt>
      <trkpt lat="43.91581" lon="7.31784">
        <ele>1165</ele>
        <time>2011-11-19T12:28:31Z</time>
      </trkpt>
      <trkpt lat="43.9158" lon="7.31784">
        <ele>1165</ele>
        <time>2011-11-19T12:28:47Z</time>
      </trkpt>
      <trkpt lat="43.91579" lon="7.31785">
        <ele>1165</ele>
        <time>2011-11-19T12:29:00Z</time>
      </trkpt>
      <trkpt lat="43.91568" lon="7.31783">
        <ele>1165</ele>
        <time>2011-11-19T12:29:10Z</time>
      </trkpt>
      <trkpt lat="43.91559" lon="7.31778">
        <ele>1165</ele>
        <time>2011-11-19T12:29:20Z</time>
      </trkpt>
      <trkpt lat="43.91554" lon="7.31774">
        <ele>1165</ele>
        <time>2011-11-19T12:29:30Z</time>
      </trkpt>
      <trkpt lat="43.91551" lon="7.31769">
        <ele>1165</ele>
        <time>2011-11-19T12:29:40Z</time>
      </trkpt>
      <trkpt lat="43.91544" lon="7.31766">
        <ele>1167</ele>
        <time>2011-11-19T12:29:51Z</time>
      </trkpt>
      <trkpt lat="43.91539" lon="7.31764">
        <ele>1168</ele>
        <time>2011-11-19T12:30:02Z</time>
      </trkpt>
      <trkpt lat="43.9153" lon="7.3176">
        <ele>1171</ele>
        <time>2011-11-19T12:30:14Z</time>
      </trkpt>
      <trkpt lat="43.91527" lon="7.31757">
        <ele>1173</ele>
        <time>2011-11-19T12:30:24Z</time>
      </trkpt>
      <trkpt lat="43.9152" lon="7.31752">
        <ele>1175</ele>
        <time>2011-11-19T12:30:34Z</time>
      </trkpt>
      <trkpt lat="43.91515" lon="7.31749">
        <ele>1179</ele>
        <time>2011-11-19T12:30:44Z</time>
      </trkpt>
      <trkpt lat="43.91508" lon="7.31745">
        <ele>1182</ele>
        <time>2011-11-19T12:30:55Z</time>
      </trkpt>
      <trkpt lat="43.91498" lon="7.31744">
        <ele>1183</ele>
        <time>2011-11-19T12:31:06Z</time>
      </trkpt>
      <trkpt lat="43.91489" lon="7.31738">
        <ele>1184</ele>
        <time>2011-11-19T12:31:16Z</time>
      </trkpt>
      <trkpt lat="43.9148" lon="7.31734">
        <ele>1185</ele>
        <time>2011-11-19T12:31:27Z</time>
      </trkpt>
      <trkpt lat="43.91472" lon="7.31731">
        <ele>1187</ele>
        <time>2011-11-19T12:31:37Z</time>
      </trkpt>
      <trkpt lat="43.9146" lon="7.31727">
        <ele>1189</ele>
        <time>2011-11-19T12:31:49Z</time>
      </trkpt>
      <trkpt lat="43.91451" lon="7.31719">
        <ele>1190</ele>
        <time>2011-11-19T12:32:01Z</time>
      </trkpt>
      <trkpt lat="43.91444" lon="7.31716">
        <ele>1190</ele>
        <time>2011-11-19T12:32:11Z</time>
      </trkpt>
      <trkpt lat="43.91436" lon="7.31711">
        <ele>1190</ele>
        <time>2011-11-19T12:32:21Z</time>
      </trkpt>
      <trkpt lat="43.91431" lon="7.31708">
        <ele>1193</ele>
        <time>2011-11-19T12:32:38Z</time>
      </trkpt>
      <trkpt lat="43.91432" lon="7.31708">
        <ele>1194</ele>
        <time>2011-11-19T12:32:50Z</time>
      </trkpt>
      <trkpt lat="43.91434" lon="7.31709">
        <ele>1196</ele>
        <time>2011-11-19T12:33:00Z</time>
      </trkpt>
      <trkpt lat="43.91428" lon="7.31718">
        <ele>1200</ele>
        <time>2011-11-19T12:33:11Z</time>
      </trkpt>
      <trkpt lat="43.91431" lon="7.31722">
        <ele>1208</ele>
        <time>2011-11-19T12:33:22Z</time>
      </trkpt>
      <trkpt lat="43.91431" lon="7.31717">
        <ele>1208</ele>
        <time>2011-11-19T12:33:34Z</time>
      </trkpt>
      <trkpt lat="43.91429" lon="7.31713">
        <ele>1206</ele>
        <time>2011-11-19T12:33:44Z</time>
      </trkpt>
      <trkpt lat="43.91422" lon="7.31703">
        <ele>1206</ele>
        <time>2011-11-19T12:33:55Z</time>
      </trkpt>
      <trkpt lat="43.91414" lon="7.31699">
        <ele>1206</ele>
        <time>2011-11-19T12:34:06Z</time>
      </trkpt>
      <trkpt lat="43.91406" lon="7.31686">
        <ele>1205</ele>
        <time>2011-11-19T12:34:17Z</time>
      </trkpt>
      <trkpt lat="43.91398" lon="7.3168">
        <ele>1204</ele>
        <time>2011-11-19T12:34:28Z</time>
      </trkpt>
      <trkpt lat="43.9139" lon="7.31677">
        <ele>1204</ele>
        <time>2011-11-19T12:34:38Z</time>
      </trkpt>
      <trkpt lat="43.91385" lon="7.31668">
        <ele>1204</ele>
        <time>2011-11-19T12:34:50Z</time>
      </trkpt>
      <trkpt lat="43.91382" lon="7.31669">
        <ele>1205</ele>
        <time>2011-11-19T12:35:05Z</time>
      </trkpt>
      <trkpt lat="43.91374" lon="7.31664">
        <ele>1206</ele>
        <time>2011-11-19T12:35:16Z</time>
      </trkpt>
      <trkpt lat="43.91367" lon="7.31658">
        <ele>1208</ele>
        <time>2011-11-19T12:35:26Z</time>
      </trkpt>
      <trkpt lat="43.91364" lon="7.31655">
        <ele>1210</ele>
        <time>2011-11-19T12:35:46Z</time>
      </trkpt>
      <trkpt lat="43.91357" lon="7.31648">
        <ele>1212</ele>
        <time>2011-11-19T12:35:56Z</time>
      </trkpt>
      <trkpt lat="43.9135" lon="7.31641">
        <ele>1214</ele>
        <time>2011-11-19T12:36:08Z</time>
      </trkpt>
      <trkpt lat="43.91345" lon="7.31636">
        <ele>1216</ele>
        <time>2011-11-19T12:36:18Z</time>
      </trkpt>
      <trkpt lat="43.91335" lon="7.31628">
        <ele>1217</ele>
        <time>2011-11-19T12:36:30Z</time>
      </trkpt>
      <trkpt lat="43.91327" lon="7.3162">
        <ele>1219</ele>
        <time>2011-11-19T12:36:41Z</time>
      </trkpt>
      <trkpt lat="43.91323" lon="7.31615">
        <ele>1219</ele>
        <time>2011-11-19T12:36:55Z</time>
      </trkpt>
      <trkpt lat="43.91317" lon="7.31609">
        <ele>1219</ele>
        <time>2011-11-19T12:37:06Z</time>
      </trkpt>
      <trkpt lat="43.91312" lon="7.31602">
        <ele>1222</ele>
        <time>2011-11-19T12:37:17Z</time>
      </trkpt>
      <trkpt lat="43.91307" lon="7.31589">
        <ele>1222</ele>
        <time>2011-11-19T12:37:28Z</time>
      </trkpt>
      <trkpt lat="43.91301" lon="7.31575">
        <ele>1222</ele>
        <time>2011-11-19T12:37:38Z</time>
      </trkpt>
      <trkpt lat="43.91297" lon="7.3156">
        <ele>1222</ele>
        <time>2011-11-19T12:37:49Z</time>
      </trkpt>
      <trkpt lat="43.91296" lon="7.31545">
        <ele>1222</ele>
        <time>2011-11-19T12:38:00Z</time>
      </trkpt>
      <trkpt lat="43.91294" lon="7.31532">
        <ele>1222</ele>
        <time>2011-11-19T12:38:10Z</time>
      </trkpt>
      <trkpt lat="43.91293" lon="7.31519">
        <ele>1222</ele>
        <time>2011-11-19T12:38:20Z</time>
      </trkpt>
      <trkpt lat="43.91293" lon="7.31507">
        <ele>1222</ele>
        <time>2011-11-19T12:38:30Z</time>
      </trkpt>
      <trkpt lat="43.91294" lon="7.31494">
        <ele>1223</ele>
        <time>2011-11-19T12:38:41Z</time>
      </trkpt>
      <trkpt lat="43.91298" lon="7.31485">
        <ele>1224</ele>
        <time>2011-11-19T12:38:51Z</time>
      </trkpt>
      <trkpt lat="43.91301" lon="7.31481">
        <ele>1229</ele>
        <time>2011-11-19T12:39:08Z</time>
      </trkpt>
      <trkpt lat="43.91304" lon="7.31481">
        <ele>1232</ele>
        <time>2011-11-19T12:39:19Z</time>
      </trkpt>
      <trkpt lat="43.91305" lon="7.31484">
        <ele>1241</ele>
        <time>2011-11-19T12:39:30Z</time>
      </trkpt>
      <trkpt lat="43.91309" lon="7.31483">
        <ele>1244</ele>
        <time>2011-11-19T12:39:46Z</time>
      </trkpt>
      <trkpt lat="43.91305" lon="7.31486">
        <ele>1248</ele>
        <time>2011-11-19T12:39:59Z</time>
      </trkpt>
      <trkpt lat="43.91301" lon="7.31489">
        <ele>1248</ele>
        <time>2011-11-19T12:40:11Z</time>
      </trkpt>
      <trkpt lat="43.91301" lon="7.31489">
        <ele>1248</ele>
        <time>2011-11-19T12:40:23Z</time>
      </trkpt>
      <trkpt lat="43.91304" lon="7.31489">
        <ele>1248</ele>
        <time>2011-11-19T12:40:44Z</time>
      </trkpt>
      <trkpt lat="43.91304" lon="7.31488">
        <ele>1244</ele>
        <time>2011-11-19T12:41:06Z</time>
      </trkpt>
      <trkpt lat="43.91303" lon="7.31483">
        <ele>1247</ele>
        <time>2011-11-19T12:41:17Z</time>
      </trkpt>
      <trkpt lat="43.91301" lon="7.31475">
        <ele>1261</ele>
        <time>2011-11-19T12:41:31Z</time>
      </trkpt>
      <trkpt lat="43.91301" lon="7.31479">
        <ele>1271</ele>
        <time>2011-11-19T12:41:44Z</time>
      </trkpt>
      <trkpt lat="43.91304" lon="7.31481">
        <ele>1266</ele>
        <time>2011-11-19T12:42:00Z</time>
      </trkpt>
      <trkpt lat="43.91304" lon="7.31483">
        <ele>1258</ele>
        <time>2011-11-19T12:42:13Z</time>
      </trkpt>
      <trkpt lat="43.91305" lon="7.3148">
        <ele>1256</ele>
        <time>2011-11-19T12:42:24Z</time>
      </trkpt>
      <trkpt lat="43.91315" lon="7.31483">
        <ele>1258</ele>
        <time>2011-11-19T12:42:36Z</time>
      </trkpt>
      <trkpt lat="43.91315" lon="7.31486">
        <ele>1266</ele>
        <time>2011-11-19T12:42:51Z</time>
      </trkpt>
      <trkpt lat="43.91315" lon="7.31489">
        <ele>1267</ele>
        <time>2011-11-19T12:43:04Z</time>
      </trkpt>
      <trkpt lat="43.91315" lon="7.31488">
        <ele>1267</ele>
        <time>2011-11-19T12:43:18Z</time>
      </trkpt>
      <trkpt lat="43.91307" lon="7.31488">
        <ele>1258</ele>
        <time>2011-11-19T12:43:30Z</time>
      </trkpt>
      <trkpt lat="43.91308" lon="7.31481">
        <ele>1248</ele>
        <time>2011-11-19T12:43:44Z</time>
      </trkpt>
      <trkpt lat="43.9131" lon="7.31482">
        <ele>1247</ele>
        <time>2011-11-19T12:43:57Z</time>
      </trkpt>
      <trkpt lat="43.91306" lon="7.31483">
        <ele>1247</ele>
        <time>2011-11-19T12:44:07Z</time>
      </trkpt>
      <trkpt lat="43.91301" lon="7.31482">
        <ele>1247</ele>
        <time>2011-11-19T12:44:25Z</time>
      </trkpt>
      <trkpt lat="43.91301" lon="7.31478">
        <ele>1254</ele>
        <time>2011-11-19T12:44:37Z</time>
      </trkpt>
      <trkpt lat="43.91301" lon="7.31475">
        <ele>1258</ele>
        <time>2011-11-19T12:44:47Z</time>
      </trkpt>
      <trkpt lat="43.91306" lon="7.31475">
        <ele>1258</ele>
        <time>2011-11-19T12:44:59Z</time>
      </trkpt>
      <trkpt lat="43.91311" lon="7.31476">
        <ele>1250</ele>
        <time>2011-11-19T12:45:10Z</time>
      </trkpt>
      <trkpt lat="43.91317" lon="7.31472">
        <ele>1248</ele>
        <time>2011-11-19T12:45:21Z</time>
      </trkpt>
      <trkpt lat="43.91323" lon="7.31468">
        <ele>1248</ele>
        <time>2011-11-19T12:45:40Z</time>
      </trkpt>
      <trkpt lat="43.91321" lon="7.31466">
        <ele>1254</ele>
        <time>2011-11-19T12:45:51Z</time>
      </trkpt>
      <trkpt lat="43.91318" lon="7.31471">
        <ele>1258</ele>
        <time>2011-11-19T12:46:01Z</time>
      </trkpt>
      <trkpt lat="43.91322" lon="7.31463">
        <ele>1256</ele>
        <time>2011-11-19T12:46:12Z</time>
      </trkpt>
      <trkpt lat="43.91355" lon="7.31416">
        <ele>1253</ele>
        <time>2011-11-19T12:46:22Z</time>
      </trkpt>
      <trkpt lat="43.91395" lon="7.31346">
        <ele>1247</ele>
        <time>2011-11-19T12:46:33Z</time>
      </trkpt>
      <trkpt lat="43.91449" lon="7.31287">
        <ele>1244</ele>
        <time>2011-11-19T12:46:44Z</time>
      </trkpt>
      <trkpt lat="43.91453" lon="7.31239">
        <ele>1240</ele>
        <time>2011-11-19T12:46:54Z</time>
      </trkpt>
      <trkpt lat="43.91446" lon="7.31168">
        <ele>1240</ele>
        <time>2011-11-19T12:47:04Z</time>
      </trkpt>
      <trkpt lat="43.91468" lon="7.31102">
        <ele>1239</ele>
        <time>2011-11-19T12:47:14Z</time>
      </trkpt>
      <trkpt lat="43.91492" lon="7.31061">
        <ele>1234</ele>
        <time>2011-11-19T12:47:24Z</time>
      </trkpt>
      <trkpt lat="43.91517" lon="7.30993">
        <ele>1228</ele>
        <time>2011-11-19T12:47:34Z</time>
      </trkpt>
      <trkpt lat="43.91522" lon="7.30979">
        <ele>1224</ele>
        <time>2011-11-19T12:47:44Z</time>
      </trkpt>
      <trkpt lat="43.9155" lon="7.30934">
        <ele>1221</ele>
        <time>2011-11-19T12:47:54Z</time>
      </trkpt>
      <trkpt lat="43.9158" lon="7.30885">
        <ele>1217</ele>
        <time>2011-11-19T12:48:04Z</time>
      </trkpt>
      <trkpt lat="43.91611" lon="7.30835">
        <ele>1214</ele>
        <time>2011-11-19T12:48:14Z</time>
      </trkpt>
      <trkpt lat="43.91634" lon="7.30781">
        <ele>1213</ele>
        <time>2011-11-19T12:48:25Z</time>
      </trkpt>
      <trkpt lat="43.91649" lon="7.30747">
        <ele>1213</ele>
        <time>2011-11-19T12:48:36Z</time>
      </trkpt>
      <trkpt lat="43.91653" lon="7.30737">
        <ele>1213</ele>
        <time>2011-11-19T12:48:46Z</time>
      </trkpt>
      <trkpt lat="43.91655" lon="7.30725">
        <ele>1215</ele>
        <time>2011-11-19T12:48:56Z</time>
      </trkpt>
      <trkpt lat="43.91664" lon="7.30713">
        <ele>1215</ele>
        <time>2011-11-19T12:49:06Z</time>
      </trkpt>
      <trkpt lat="43.91685" lon="7.3068">
        <ele>1215</ele>
        <time>2011-11-19T12:49:16Z</time>
      </trkpt>
      <trkpt lat="43.91699" lon="7.30645">
        <ele>1215</ele>
        <time>2011-11-19T12:49:26Z</time>
      </trkpt>
      <trkpt lat="43.91702" lon="7.30607">
        <ele>1216</ele>
        <time>2011-11-19T12:49:37Z</time>
      </trkpt>
      <trkpt lat="43.91711" lon="7.30575">
        <ele>1221</ele>
        <time>2011-11-19T12:49:47Z</time>
      </trkpt>
      <trkpt lat="43.91719" lon="7.30544">
        <ele>1223</ele>
        <time>2011-11-19T12:49:57Z</time>
      </trkpt>
      <trkpt lat="43.91715" lon="7.30539">
        <ele>1223</ele>
        <time>2011-11-19T12:50:07Z</time>
      </trkpt>
      <trkpt lat="43.91714" lon="7.30533">
        <ele>1223</ele>
        <time>2011-11-19T12:50:20Z</time>
      </trkpt>
      <trkpt lat="43.91713" lon="7.30524">
        <ele>1223</ele>
        <time>2011-11-19T12:50:31Z</time>
      </trkpt>
      <trkpt lat="43.91712" lon="7.30514">
        <ele>1223</ele>
        <time>2011-11-19T12:50:41Z</time>
      </trkpt>
      <trkpt lat="43.9171" lon="7.30501">
        <ele>1223</ele>
        <time>2011-11-19T12:50:53Z</time>
      </trkpt>
      <trkpt lat="43.91708" lon="7.30492">
        <ele>1223</ele>
        <time>2011-11-19T12:51:03Z</time>
      </trkpt>
      <trkpt lat="43.91707" lon="7.30477">
        <ele>1223</ele>
        <time>2011-11-19T12:51:13Z</time>
      </trkpt>
      <trkpt lat="43.91707" lon="7.30464">
        <ele>1223</ele>
        <time>2011-11-19T12:51:23Z</time>
      </trkpt>
      <trkpt lat="43.91708" lon="7.30452">
        <ele>1223</ele>
        <time>2011-11-19T12:51:34Z</time>
      </trkpt>
      <trkpt lat="43.91712" lon="7.30435">
        <ele>1223</ele>
        <time>2011-11-19T12:51:45Z</time>
      </trkpt>
      <trkpt lat="43.91714" lon="7.3042">
        <ele>1223</ele>
        <time>2011-11-19T12:51:55Z</time>
      </trkpt>
      <trkpt lat="43.91713" lon="7.30411">
        <ele>1223</ele>
        <time>2011-11-19T12:52:05Z</time>
      </trkpt>
      <trkpt lat="43.91716" lon="7.30398">
        <ele>1223</ele>
        <time>2011-11-19T12:52:15Z</time>
      </trkpt>
      <trkpt lat="43.91727" lon="7.30359">
        <ele>1223</ele>
        <time>2011-11-19T12:52:25Z</time>
      </trkpt>
      <trkpt lat="43.9173" lon="7.30349">
        <ele>1223</ele>
        <time>2011-11-19T12:52:36Z</time>
      </trkpt>
      <trkpt lat="43.9173" lon="7.30338">
        <ele>1225</ele>
        <time>2011-11-19T12:52:47Z</time>
      </trkpt>
      <trkpt lat="43.91731" lon="7.30329">
        <ele>1225</ele>
        <time>2011-11-19T12:52:57Z</time>
      </trkpt>
      <trkpt lat="43.91727" lon="7.30319">
        <ele>1225</ele>
        <time>2011-11-19T12:53:09Z</time>
      </trkpt>
      <trkpt lat="43.91723" lon="7.30299">
        <ele>1225</ele>
        <time>2011-11-19T12:53:20Z</time>
      </trkpt>
      <trkpt lat="43.91717" lon="7.30269">
        <ele>1229</ele>
        <time>2011-11-19T12:53:31Z</time>
      </trkpt>
      <trkpt lat="43.91712" lon="7.30261">
        <ele>1229</ele>
        <time>2011-11-19T12:53:42Z</time>
      </trkpt>
      <trkpt lat="43.91705" lon="7.30255">
        <ele>1226</ele>
        <time>2011-11-19T12:53:52Z</time>
      </trkpt>
      <trkpt lat="43.917" lon="7.30246">
        <ele>1225</ele>
        <time>2011-11-19T12:54:02Z</time>
      </trkpt>
      <trkpt lat="43.91693" lon="7.30237">
        <ele>1225</ele>
        <time>2011-11-19T12:54:12Z</time>
      </trkpt>
      <trkpt lat="43.91685" lon="7.30228">
        <ele>1225</ele>
        <time>2011-11-19T12:54:23Z</time>
      </trkpt>
      <trkpt lat="43.91679" lon="7.30219">
        <ele>1225</ele>
        <time>2011-11-19T12:54:33Z</time>
      </trkpt>
      <trkpt lat="43.91673" lon="7.30205">
        <ele>1225</ele>
        <time>2011-11-19T12:54:46Z</time>
      </trkpt>
      <trkpt lat="43.91667" lon="7.30198">
        <ele>1226</ele>
        <time>2011-11-19T12:54:56Z</time>
      </trkpt>
      <trkpt lat="43.91664" lon="7.30186">
        <ele>1229</ele>
        <time>2011-11-19T12:55:08Z</time>
      </trkpt>
      <trkpt lat="43.91663" lon="7.30183">
        <ele>1229</ele>
        <time>2011-11-19T12:55:24Z</time>
      </trkpt>
      <trkpt lat="43.91661" lon="7.30185">
        <ele>1229</ele>
        <time>2011-11-19T12:55:34Z</time>
      </trkpt>
      <trkpt lat="43.91658" lon="7.30186">
        <ele>1228</ele>
        <time>2011-11-19T12:55:49Z</time>
      </trkpt>
      <trkpt lat="43.9166" lon="7.30187">
        <ele>1227</ele>
        <time>2011-11-19T12:56:00Z</time>
      </trkpt>
      <trkpt lat="43.91657" lon="7.30184">
        <ele>1227</ele>
        <time>2011-11-19T12:56:13Z</time>
      </trkpt>
      <trkpt lat="43.91659" lon="7.3018">
        <ele>1227</ele>
        <time>2011-11-19T12:56:25Z</time>
      </trkpt>
      <trkpt lat="43.91642" lon="7.30165">
        <ele>1228</ele>
        <time>2011-11-19T12:56:36Z</time>
      </trkpt>
      <trkpt lat="43.91622" lon="7.30155">
        <ele>1228</ele>
        <time>2011-11-19T12:56:46Z</time>
      </trkpt>
      <trkpt lat="43.91603" lon="7.30149">
        <ele>1228</ele>
        <time>2011-11-19T12:56:57Z</time>
      </trkpt>
      <trkpt lat="43.91595" lon="7.30147">
        <ele>1228</ele>
        <time>2011-11-19T12:57:11Z</time>
      </trkpt>
      <trkpt lat="43.91579" lon="7.30144">
        <ele>1228</ele>
        <time>2011-11-19T12:57:21Z</time>
      </trkpt>
      <trkpt lat="43.91562" lon="7.30122">
        <ele>1228</ele>
        <time>2011-11-19T12:57:31Z</time>
      </trkpt>
      <trkpt lat="43.91533" lon="7.30068">
        <ele>1228</ele>
        <time>2011-11-19T12:57:41Z</time>
      </trkpt>
      <trkpt lat="43.91515" lon="7.30035">
        <ele>1228</ele>
        <time>2011-11-19T12:57:51Z</time>
      </trkpt>
      <trkpt lat="43.91494" lon="7.30006">
        <ele>1224</ele>
        <time>2011-11-19T12:58:01Z</time>
      </trkpt>
      <trkpt lat="43.91494" lon="7.29984">
        <ele>1224</ele>
        <time>2011-11-19T12:58:11Z</time>
      </trkpt>
      <trkpt lat="43.91501" lon="7.29972">
        <ele>1224</ele>
        <time>2011-11-19T12:58:21Z</time>
      </trkpt>
      <trkpt lat="43.91509" lon="7.29956">
        <ele>1227</ele>
        <time>2011-11-19T12:58:33Z</time>
      </trkpt>
      <trkpt lat="43.91511" lon="7.29943">
        <ele>1227</ele>
        <time>2011-11-19T12:58:45Z</time>
      </trkpt>
      <trkpt lat="43.91511" lon="7.29935">
        <ele>1229</ele>
        <time>2011-11-19T12:59:00Z</time>
      </trkpt>
      <trkpt lat="43.91513" lon="7.29919">
        <ele>1229</ele>
        <time>2011-11-19T12:59:11Z</time>
      </trkpt>
      <trkpt lat="43.91514" lon="7.29911">
        <ele>1230</ele>
        <time>2011-11-19T12:59:22Z</time>
      </trkpt>
      <trkpt lat="43.91514" lon="7.29899">
        <ele>1232</ele>
        <time>2011-11-19T12:59:34Z</time>
      </trkpt>
      <trkpt lat="43.91514" lon="7.2989">
        <ele>1233</ele>
        <time>2011-11-19T12:59:46Z</time>
      </trkpt>
      <trkpt lat="43.91515" lon="7.29881">
        <ele>1236</ele>
        <time>2011-11-19T12:59:56Z</time>
      </trkpt>
      <trkpt lat="43.91516" lon="7.29867">
        <ele>1237</ele>
        <time>2011-11-19T13:00:06Z</time>
      </trkpt>
      <trkpt lat="43.91521" lon="7.29853">
        <ele>1237</ele>
        <time>2011-11-19T13:00:16Z</time>
      </trkpt>
      <trkpt lat="43.91524" lon="7.2984">
        <ele>1237</ele>
        <time>2011-11-19T13:00:26Z</time>
      </trkpt>
      <trkpt lat="43.91528" lon="7.29837">
        <ele>1237</ele>
        <time>2011-11-19T13:00:42Z</time>
      </trkpt>
      <trkpt lat="43.91527" lon="7.29836">
        <ele>1237</ele>
        <time>2011-11-19T13:00:55Z</time>
      </trkpt>
      <trkpt lat="43.91528" lon="7.29835">
        <ele>1237</ele>
        <time>2011-11-19T13:01:18Z</time>
      </trkpt>
      <trkpt lat="43.91528" lon="7.29837">
        <ele>1237</ele>
        <time>2011-11-19T13:01:28Z</time>
      </trkpt>
      <trkpt lat="43.9153" lon="7.29834">
        <ele>1237</ele>
        <time>2011-11-19T13:01:41Z</time>
      </trkpt>
      <trkpt lat="43.91524" lon="7.29839">
        <ele>1237</ele>
        <time>2011-11-19T13:01:52Z</time>
      </trkpt>
      <trkpt lat="43.91524" lon="7.29836">
        <ele>1238</ele>
        <time>2011-11-19T13:02:09Z</time>
      </trkpt>
      <trkpt lat="43.91522" lon="7.29837">
        <ele>1240</ele>
        <time>2011-11-19T13:02:20Z</time>
      </trkpt>
      <trkpt lat="43.91514" lon="7.29842">
        <ele>1241</ele>
        <time>2011-11-19T13:02:33Z</time>
      </trkpt>
      <trkpt lat="43.91512" lon="7.2984">
        <ele>1241</ele>
        <time>2011-11-19T13:02:45Z</time>
      </trkpt>
      <trkpt lat="43.91514" lon="7.29838">
        <ele>1241</ele>
        <time>2011-11-19T13:03:02Z</time>
      </trkpt>
      <trkpt lat="43.91517" lon="7.29835">
        <ele>1240</ele>
        <time>2011-11-19T13:03:12Z</time>
      </trkpt>
      <trkpt lat="43.91519" lon="7.29832">
        <ele>1240</ele>
        <time>2011-11-19T13:03:23Z</time>
      </trkpt>
      <trkpt lat="43.91519" lon="7.29823">
        <ele>1240</ele>
        <time>2011-11-19T13:03:33Z</time>
      </trkpt>
      <trkpt lat="43.9151" lon="7.29812">
        <ele>1240</ele>
        <time>2011-11-19T13:03:51Z</time>
      </trkpt>
      <trkpt lat="43.91494" lon="7.29799">
        <ele>1236</ele>
        <time>2011-11-19T13:04:01Z</time>
      </trkpt>
      <trkpt lat="43.91468" lon="7.29788">
        <ele>1231</ele>
        <time>2011-11-19T13:04:11Z</time>
      </trkpt>
      <trkpt lat="43.91467" lon="7.29787">
        <ele>1231</ele>
        <time>2011-11-19T13:04:25Z</time>
      </trkpt>
      <trkpt lat="43.91464" lon="7.29784">
        <ele>1231</ele>
        <time>2011-11-19T13:04:35Z</time>
      </trkpt>
      <trkpt lat="43.91461" lon="7.2976">
        <ele>1231</ele>
        <time>2011-11-19T13:04:45Z</time>
      </trkpt>
      <trkpt lat="43.91446" lon="7.29732">
        <ele>1225</ele>
        <time>2011-11-19T13:04:56Z</time>
      </trkpt>
      <trkpt lat="43.91421" lon="7.29711">
        <ele>1218</ele>
        <time>2011-11-19T13:05:06Z</time>
      </trkpt>
      <trkpt lat="43.91397" lon="7.29706">
        <ele>1212</ele>
        <time>2011-11-19T13:05:16Z</time>
      </trkpt>
      <trkpt lat="43.91369" lon="7.29692">
        <ele>1208</ele>
        <time>2011-11-19T13:05:27Z</time>
      </trkpt>
      <trkpt lat="43.9135" lon="7.29679">
        <ele>1208</ele>
        <time>2011-11-19T13:05:37Z</time>
      </trkpt>
      <trkpt lat="43.91336" lon="7.29674">
        <ele>1208</ele>
        <time>2011-11-19T13:05:47Z</time>
      </trkpt>
      <trkpt lat="43.91326" lon="7.29665">
        <ele>1209</ele>
        <time>2011-11-19T13:05:58Z</time>
      </trkpt>
      <trkpt lat="43.91326" lon="7.29661">
        <ele>1211</ele>
        <time>2011-11-19T13:06:09Z</time>
      </trkpt>
      <trkpt lat="43.91317" lon="7.29654">
        <ele>1212</ele>
        <time>2011-11-19T13:06:20Z</time>
      </trkpt>
      <trkpt lat="43.91306" lon="7.29652">
        <ele>1212</ele>
        <time>2011-11-19T13:06:30Z</time>
      </trkpt>
      <trkpt lat="43.91295" lon="7.29645">
        <ele>1212</ele>
        <time>2011-11-19T13:06:41Z</time>
      </trkpt>
      <trkpt lat="43.91285" lon="7.29636">
        <ele>1212</ele>
        <time>2011-11-19T13:06:53Z</time>
      </trkpt>
      <trkpt lat="43.91272" lon="7.29632">
        <ele>1216</ele>
        <time>2011-11-19T13:07:05Z</time>
      </trkpt>
      <trkpt lat="43.9126" lon="7.29635">
        <ele>1217</ele>
        <time>2011-11-19T13:07:15Z</time>
      </trkpt>
      <trkpt lat="43.91248" lon="7.29637">
        <ele>1217</ele>
        <time>2011-11-19T13:07:26Z</time>
      </trkpt>
      <trkpt lat="43.91243" lon="7.29637">
        <ele>1218</ele>
        <time>2011-11-19T13:07:37Z</time>
      </trkpt>
      <trkpt lat="43.91238" lon="7.29646">
        <ele>1220</ele>
        <time>2011-11-19T13:07:48Z</time>
      </trkpt>
      <trkpt lat="43.91219" lon="7.29665">
        <ele>1220</ele>
        <time>2011-11-19T13:07:58Z</time>
      </trkpt>
      <trkpt lat="43.91197" lon="7.29676">
        <ele>1218</ele>
        <time>2011-11-19T13:08:08Z</time>
      </trkpt>
      <trkpt lat="43.91183" lon="7.29684">
        <ele>1213</ele>
        <time>2011-11-19T13:08:19Z</time>
      </trkpt>
      <trkpt lat="43.91156" lon="7.29698">
        <ele>1210</ele>
        <time>2011-11-19T13:08:29Z</time>
      </trkpt>
      <trkpt lat="43.91134" lon="7.29714">
        <ele>1204</ele>
        <time>2011-11-19T13:08:39Z</time>
      </trkpt>
      <trkpt lat="43.91114" lon="7.29724">
        <ele>1203</ele>
        <time>2011-11-19T13:08:49Z</time>
      </trkpt>
      <trkpt lat="43.91103" lon="7.29725">
        <ele>1203</ele>
        <time>2011-11-19T13:08:59Z</time>
      </trkpt>
      <trkpt lat="43.91097" lon="7.29722">
        <ele>1203</ele>
        <time>2011-11-19T13:09:09Z</time>
      </trkpt>
      <trkpt lat="43.91082" lon="7.29719">
        <ele>1203</ele>
        <time>2011-11-19T13:09:21Z</time>
      </trkpt>
      <trkpt lat="43.91072" lon="7.29721">
        <ele>1204</ele>
        <time>2011-11-19T13:09:32Z</time>
      </trkpt>
      <trkpt lat="43.9106" lon="7.29721">
        <ele>1206</ele>
        <time>2011-11-19T13:09:43Z</time>
      </trkpt>
      <trkpt lat="43.91049" lon="7.29713">
        <ele>1208</ele>
        <time>2011-11-19T13:09:54Z</time>
      </trkpt>
      <trkpt lat="43.91034" lon="7.29702">
        <ele>1214</ele>
        <time>2011-11-19T13:10:04Z</time>
      </trkpt>
      <trkpt lat="43.91012" lon="7.29709">
        <ele>1211</ele>
        <time>2011-11-19T13:10:17Z</time>
      </trkpt>
      <trkpt lat="43.91004" lon="7.29709">
        <ele>1211</ele>
        <time>2011-11-19T13:10:28Z</time>
      </trkpt>
      <trkpt lat="43.90994" lon="7.29708">
        <ele>1211</ele>
        <time>2011-11-19T13:10:38Z</time>
      </trkpt>
      <trkpt lat="43.90986" lon="7.297">
        <ele>1216</ele>
        <time>2011-11-19T13:10:48Z</time>
      </trkpt>
      <trkpt lat="43.90979" lon="7.29688">
        <ele>1220</ele>
        <time>2011-11-19T13:10:58Z</time>
      </trkpt>
      <trkpt lat="43.9097" lon="7.29672">
        <ele>1220</ele>
        <time>2011-11-19T13:11:10Z</time>
      </trkpt>
      <trkpt lat="43.9096" lon="7.29661">
        <ele>1222</ele>
        <time>2011-11-19T13:11:21Z</time>
      </trkpt>
      <trkpt lat="43.9095" lon="7.29654">
        <ele>1223</ele>
        <time>2011-11-19T13:11:32Z</time>
      </trkpt>
      <trkpt lat="43.90941" lon="7.29658">
        <ele>1223</ele>
        <time>2011-11-19T13:11:42Z</time>
      </trkpt>
      <trkpt lat="43.90935" lon="7.29662">
        <ele>1223</ele>
        <time>2011-11-19T13:11:53Z</time>
      </trkpt>
      <trkpt lat="43.90916" lon="7.29674">
        <ele>1222</ele>
        <time>2011-11-19T13:12:03Z</time>
      </trkpt>
      <trkpt lat="43.90901" lon="7.29678">
        <ele>1219</ele>
        <time>2011-11-19T13:12:17Z</time>
      </trkpt>
      <trkpt lat="43.90897" lon="7.2968">
        <ele>1218</ele>
        <time>2011-11-19T13:12:28Z</time>
      </trkpt>
      <trkpt lat="43.9088" lon="7.29682">
        <ele>1218</ele>
        <time>2011-11-19T13:12:38Z</time>
      </trkpt>
      <trkpt lat="43.90864" lon="7.29673">
        <ele>1218</ele>
        <time>2011-11-19T13:12:48Z</time>
      </trkpt>
      <trkpt lat="43.90835" lon="7.29676">
        <ele>1215</ele>
        <time>2011-11-19T13:12:59Z</time>
      </trkpt>
      <trkpt lat="43.90807" lon="7.29674">
        <ele>1212</ele>
        <time>2011-11-19T13:13:09Z</time>
      </trkpt>
      <trkpt lat="43.90794" lon="7.29679">
        <ele>1211</ele>
        <time>2011-11-19T13:13:23Z</time>
      </trkpt>
      <trkpt lat="43.90783" lon="7.29677">
        <ele>1211</ele>
        <time>2011-11-19T13:13:34Z</time>
      </trkpt>
      <trkpt lat="43.90773" lon="7.29679">
        <ele>1211</ele>
        <time>2011-11-19T13:13:45Z</time>
      </trkpt>
      <trkpt lat="43.9077" lon="7.2967">
        <ele>1215</ele>
        <time>2011-11-19T13:13:56Z</time>
      </trkpt>
      <trkpt lat="43.90749" lon="7.29669">
        <ele>1216</ele>
        <time>2011-11-19T13:14:06Z</time>
      </trkpt>
      <trkpt lat="43.90739" lon="7.29658">
        <ele>1216</ele>
        <time>2011-11-19T13:14:17Z</time>
      </trkpt>
      <trkpt lat="43.90728" lon="7.29636">
        <ele>1223</ele>
        <time>2011-11-19T13:14:27Z</time>
      </trkpt>
      <trkpt lat="43.90709" lon="7.29624">
        <ele>1223</ele>
        <time>2011-11-19T13:14:37Z</time>
      </trkpt>
      <trkpt lat="43.90698" lon="7.29621">
        <ele>1221</ele>
        <time>2011-11-19T13:14:50Z</time>
      </trkpt>
      <trkpt lat="43.90687" lon="7.29618">
        <ele>1218</ele>
        <time>2011-11-19T13:15:01Z</time>
      </trkpt>
      <trkpt lat="43.9068" lon="7.2961">
        <ele>1218</ele>
        <time>2011-11-19T13:15:11Z</time>
      </trkpt>
      <trkpt lat="43.90671" lon="7.29606">
        <ele>1218</ele>
        <time>2011-11-19T13:15:23Z</time>
      </trkpt>
      <trkpt lat="43.90661" lon="7.29597">
        <ele>1218</ele>
        <time>2011-11-19T13:15:33Z</time>
      </trkpt>
      <trkpt lat="43.90654" lon="7.29584">
        <ele>1226</ele>
        <time>2011-11-19T13:15:43Z</time>
      </trkpt>
      <trkpt lat="43.90646" lon="7.29572">
        <ele>1230</ele>
        <time>2011-11-19T13:15:54Z</time>
      </trkpt>
      <trkpt lat="43.90639" lon="7.29561">
        <ele>1232</ele>
        <time>2011-11-19T13:16:04Z</time>
      </trkpt>
      <trkpt lat="43.9063" lon="7.29552">
        <ele>1233</ele>
        <time>2011-11-19T13:16:14Z</time>
      </trkpt>
      <trkpt lat="43.90626" lon="7.29537">
        <ele>1233</ele>
        <time>2011-11-19T13:16:25Z</time>
      </trkpt>
      <trkpt lat="43.90617" lon="7.29525">
        <ele>1233</ele>
        <time>2011-11-19T13:16:35Z</time>
      </trkpt>
      <trkpt lat="43.90614" lon="7.29515">
        <ele>1232</ele>
        <time>2011-11-19T13:16:45Z</time>
      </trkpt>
      <trkpt lat="43.90613" lon="7.29503">
        <ele>1239</ele>
        <time>2011-11-19T13:16:56Z</time>
      </trkpt>
      <trkpt lat="43.90606" lon="7.29494">
        <ele>1240</ele>
        <time>2011-11-19T13:17:06Z</time>
      </trkpt>
      <trkpt lat="43.90599" lon="7.29484">
        <ele>1242</ele>
        <time>2011-11-19T13:17:16Z</time>
      </trkpt>
      <trkpt lat="43.90593" lon="7.29473">
        <ele>1244</ele>
        <time>2011-11-19T13:17:26Z</time>
      </trkpt>
      <trkpt lat="43.90585" lon="7.29461">
        <ele>1244</ele>
        <time>2011-11-19T13:17:36Z</time>
      </trkpt>
      <trkpt lat="43.90571" lon="7.29451">
        <ele>1244</ele>
        <time>2011-11-19T13:17:47Z</time>
      </trkpt>
      <trkpt lat="43.90565" lon="7.29445">
        <ele>1244</ele>
        <time>2011-11-19T13:17:58Z</time>
      </trkpt>
      <trkpt lat="43.90557" lon="7.29437">
        <ele>1244</ele>
        <time>2011-11-19T13:18:09Z</time>
      </trkpt>
      <trkpt lat="43.90548" lon="7.29425">
        <ele>1248</ele>
        <time>2011-11-19T13:18:21Z</time>
      </trkpt>
      <trkpt lat="43.90538" lon="7.29416">
        <ele>1248</ele>
        <time>2011-11-19T13:18:31Z</time>
      </trkpt>
      <trkpt lat="43.90526" lon="7.29408">
        <ele>1247</ele>
        <time>2011-11-19T13:18:43Z</time>
      </trkpt>
      <trkpt lat="43.90521" lon="7.29397">
        <ele>1246</ele>
        <time>2011-11-19T13:18:53Z</time>
      </trkpt>
      <trkpt lat="43.90513" lon="7.29384">
        <ele>1246</ele>
        <time>2011-11-19T13:19:03Z</time>
      </trkpt>
      <trkpt lat="43.90507" lon="7.29375">
        <ele>1246</ele>
        <time>2011-11-19T13:19:15Z</time>
      </trkpt>
      <trkpt lat="43.905" lon="7.29364">
        <ele>1246</ele>
        <time>2011-11-19T13:19:26Z</time>
      </trkpt>
      <trkpt lat="43.90497" lon="7.29349">
        <ele>1250</ele>
        <time>2011-11-19T13:19:37Z</time>
      </trkpt>
      <trkpt lat="43.90492" lon="7.29339">
        <ele>1252</ele>
        <time>2011-11-19T13:19:47Z</time>
      </trkpt>
      <trkpt lat="43.90483" lon="7.29325">
        <ele>1251</ele>
        <time>2011-11-19T13:19:58Z</time>
      </trkpt>
      <trkpt lat="43.90484" lon="7.29319">
        <ele>1249</ele>
        <time>2011-11-19T13:20:08Z</time>
      </trkpt>
      <trkpt lat="43.90479" lon="7.29315">
        <ele>1241</ele>
        <time>2011-11-19T13:20:20Z</time>
      </trkpt>
      <trkpt lat="43.9048" lon="7.29304">
        <ele>1241</ele>
        <time>2011-11-19T13:20:30Z</time>
      </trkpt>
      <trkpt lat="43.90483" lon="7.29294">
        <ele>1249</ele>
        <time>2011-11-19T13:20:41Z</time>
      </trkpt>
      <trkpt lat="43.90483" lon="7.29277">
        <ele>1249</ele>
        <time>2011-11-19T13:20:51Z</time>
      </trkpt>
      <trkpt lat="43.90484" lon="7.29258">
        <ele>1247</ele>
        <time>2011-11-19T13:21:01Z</time>
      </trkpt>
      <trkpt lat="43.90485" lon="7.29243">
        <ele>1244</ele>
        <time>2011-11-19T13:21:12Z</time>
      </trkpt>
      <trkpt lat="43.90486" lon="7.29231">
        <ele>1247</ele>
        <time>2011-11-19T13:21:24Z</time>
      </trkpt>
      <trkpt lat="43.90484" lon="7.29226">
        <ele>1244</ele>
        <time>2011-11-19T13:21:37Z</time>
      </trkpt>
      <trkpt lat="43.90486" lon="7.29223">
        <ele>1245</ele>
        <time>2011-11-19T13:21:48Z</time>
      </trkpt>
      <trkpt lat="43.90485" lon="7.29207">
        <ele>1246</ele>
        <time>2011-11-19T13:21:59Z</time>
      </trkpt>
      <trkpt lat="43.90484" lon="7.29199">
        <ele>1246</ele>
        <time>2011-11-19T13:22:09Z</time>
      </trkpt>
      <trkpt lat="43.90487" lon="7.29184">
        <ele>1249</ele>
        <time>2011-11-19T13:22:20Z</time>
      </trkpt>
      <trkpt lat="43.90489" lon="7.2917">
        <ele>1249</ele>
        <time>2011-11-19T13:22:30Z</time>
      </trkpt>
      <trkpt lat="43.90493" lon="7.29158">
        <ele>1252</ele>
        <time>2011-11-19T13:22:40Z</time>
      </trkpt>
      <trkpt lat="43.90496" lon="7.29143">
        <ele>1255</ele>
        <time>2011-11-19T13:22:50Z</time>
      </trkpt>
      <trkpt lat="43.90501" lon="7.29131">
        <ele>1255</ele>
        <time>2011-11-19T13:23:01Z</time>
      </trkpt>
      <trkpt lat="43.90508" lon="7.29128">
        <ele>1256</ele>
        <time>2011-11-19T13:23:11Z</time>
      </trkpt>
      <trkpt lat="43.90515" lon="7.2912">
        <ele>1256</ele>
        <time>2011-11-19T13:23:21Z</time>
      </trkpt>
      <trkpt lat="43.90524" lon="7.2911">
        <ele>1256</ele>
        <time>2011-11-19T13:23:33Z</time>
      </trkpt>
      <trkpt lat="43.90532" lon="7.29099">
        <ele>1256</ele>
        <time>2011-11-19T13:23:44Z</time>
      </trkpt>
      <trkpt lat="43.90535" lon="7.29089">
        <ele>1256</ele>
        <time>2011-11-19T13:24:01Z</time>
      </trkpt>
      <trkpt lat="43.90537" lon="7.29074">
        <ele>1259</ele>
        <time>2011-11-19T13:24:12Z</time>
      </trkpt>
      <trkpt lat="43.9054" lon="7.29059">
        <ele>1261</ele>
        <time>2011-11-19T13:24:22Z</time>
      </trkpt>
      <trkpt lat="43.9054" lon="7.29041">
        <ele>1261</ele>
        <time>2011-11-19T13:24:33Z</time>
      </trkpt>
      <trkpt lat="43.90536" lon="7.29027">
        <ele>1262</ele>
        <time>2011-11-19T13:24:44Z</time>
      </trkpt>
      <trkpt lat="43.90537" lon="7.29012">
        <ele>1262</ele>
        <time>2011-11-19T13:24:55Z</time>
      </trkpt>
      <trkpt lat="43.9054" lon="7.28996">
        <ele>1263</ele>
        <time>2011-11-19T13:25:05Z</time>
      </trkpt>
      <trkpt lat="43.90544" lon="7.28981">
        <ele>1263</ele>
        <time>2011-11-19T13:25:15Z</time>
      </trkpt>
      <trkpt lat="43.90545" lon="7.28968">
        <ele>1263</ele>
        <time>2011-11-19T13:25:33Z</time>
      </trkpt>
      <trkpt lat="43.90544" lon="7.2897">
        <ele>1263</ele>
        <time>2011-11-19T13:25:51Z</time>
      </trkpt>
      <trkpt lat="43.90546" lon="7.28969">
        <ele>1260</ele>
        <time>2011-11-19T13:26:15Z</time>
      </trkpt>
      <trkpt lat="43.90547" lon="7.28969">
        <ele>1260</ele>
        <time>2011-11-19T13:26:15Z</time>
      </trkpt>
      <trkpt lat="43.90545" lon="7.28969">
        <ele>1264</ele>
        <time>2011-11-19T13:26:35Z</time>
      </trkpt>
      <trkpt lat="43.90546" lon="7.28968">
        <ele>1264</ele>
        <time>2011-11-19T13:26:46Z</time>
      </trkpt>
      <trkpt lat="43.90544" lon="7.28967">
        <ele>1264</ele>
        <time>2011-11-19T13:26:56Z</time>
      </trkpt>
      <trkpt lat="43.90545" lon="7.28968">
        <ele>1265</ele>
        <time>2011-11-19T13:27:07Z</time>
      </trkpt>
      <trkpt lat="43.90542" lon="7.28969">
        <ele>1265</ele>
        <time>2011-11-19T13:27:19Z</time>
      </trkpt>
      <trkpt lat="43.90541" lon="7.28973">
        <ele>1265</ele>
        <time>2011-11-19T13:27:31Z</time>
      </trkpt>
      <trkpt lat="43.90542" lon="7.28973">
        <ele>1265</ele>
        <time>2011-11-19T13:27:41Z</time>
      </trkpt>
      <trkpt lat="43.90543" lon="7.2897">
        <ele>1265</ele>
        <time>2011-11-19T13:28:01Z</time>
      </trkpt>
      <trkpt lat="43.90545" lon="7.2897">
        <ele>1265</ele>
        <time>2011-11-19T13:28:13Z</time>
      </trkpt>
      <trkpt lat="43.9054" lon="7.28968">
        <ele>1265</ele>
        <time>2011-11-19T13:28:23Z</time>
      </trkpt>
      <trkpt lat="43.90542" lon="7.28969">
        <ele>1265</ele>
        <time>2011-11-19T13:28:35Z</time>
      </trkpt>
      <trkpt lat="43.90543" lon="7.2897">
        <ele>1265</ele>
        <time>2011-11-19T13:28:56Z</time>
      </trkpt>
      <trkpt lat="43.90543" lon="7.28971">
        <ele>1265</ele>
        <time>2011-11-19T13:29:15Z</time>
      </trkpt>
      <trkpt lat="43.90544" lon="7.2897">
        <ele>1266</ele>
        <time>2011-11-19T13:29:30Z</time>
      </trkpt>
      <trkpt lat="43.90543" lon="7.2897">
        <ele>1266</ele>
        <time>2011-11-19T13:29:40Z</time>
      </trkpt>
      <trkpt lat="43.9054" lon="7.28971">
        <ele>1266</ele>
        <time>2011-11-19T13:29:56Z</time>
      </trkpt>
      <trkpt lat="43.90539" lon="7.28972">
        <ele>1266</ele>
        <time>2011-11-19T13:30:04Z</time>
      </trkpt>
      <trkpt lat="43.9054" lon="7.28973">
        <ele>1266</ele>
        <time>2011-11-19T13:30:07Z</time>
      </trkpt>
      <trkpt lat="43.90539" lon="7.28973">
        <ele>1266</ele>
        <time>2011-11-19T13:30:31Z</time>
      </trkpt>
      <trkpt lat="43.9054" lon="7.28972">
        <ele>1266</ele>
        <time>2011-11-19T13:30:46Z</time>
      </trkpt>
      <trkpt lat="43.90541" lon="7.2897">
        <ele>1266</ele>
        <time>2011-11-19T13:30:57Z</time>
      </trkpt>
      <trkpt lat="43.90542" lon="7.28969">
        <ele>1266</ele>
        <time>2011-11-19T13:31:17Z</time>
      </trkpt>
      <trkpt lat="43.90543" lon="7.28969">
        <ele>1266</ele>
        <time>2011-11-19T13:31:41Z</time>
      </trkpt>
      <trkpt lat="43.90544" lon="7.28969">
        <ele>1266</ele>
        <time>2011-11-19T13:32:02Z</time>
      </trkpt>
      <trkpt lat="43.90544" lon="7.28969">
        <ele>1266</ele>
        <time>2011-11-19T13:32:08Z</time>
      </trkpt>
      <trkpt lat="43.90544" lon="7.2897">
        <ele>1266</ele>
        <time>2011-11-19T13:32:20Z</time>
      </trkpt>
      <trkpt lat="43.90541" lon="7.28969">
        <ele>1266</ele>
        <time>2011-11-19T13:32:32Z</time>
      </trkpt>
      <trkpt lat="43.90541" lon="7.28966">
        <ele>1266</ele>
        <time>2011-11-19T13:32:42Z</time>
      </trkpt>
      <trkpt lat="43.9054" lon="7.28965">
        <ele>1267</ele>
        <time>2011-11-19T13:32:52Z</time>
      </trkpt>
      <trkpt lat="43.90519" lon="7.28958">
        <ele>1267</ele>
        <time>2011-11-19T13:33:03Z</time>
      </trkpt>
      <trkpt lat="43.905" lon="7.28951">
        <ele>1267</ele>
        <time>2011-11-19T13:33:13Z</time>
      </trkpt>
      <trkpt lat="43.90463" lon="7.28951">
        <ele>1267</ele>
        <time>2011-11-19T13:33:23Z</time>
      </trkpt>
      <trkpt lat="43.90427" lon="7.28959">
        <ele>1267</ele>
        <time>2011-11-19T13:33:33Z</time>
      </trkpt>
      <trkpt lat="43.90404" lon="7.28947">
        <ele>1267</ele>
        <time>2011-11-19T13:33:43Z</time>
      </trkpt>
      <trkpt lat="43.90386" lon="7.28919">
        <ele>1268</ele>
        <time>2011-11-19T13:33:53Z</time>
      </trkpt>
      <trkpt lat="43.90365" lon="7.28886">
        <ele>1268</ele>
        <time>2011-11-19T13:34:04Z</time>
      </trkpt>
      <trkpt lat="43.90347" lon="7.28856">
        <ele>1268</ele>
        <time>2011-11-19T13:34:14Z</time>
      </trkpt>
      <trkpt lat="43.90328" lon="7.28838">
        <ele>1268</ele>
        <time>2011-11-19T13:34:24Z</time>
      </trkpt>
      <trkpt lat="43.90326" lon="7.28834">
        <ele>1270</ele>
        <time>2011-11-19T13:34:35Z</time>
      </trkpt>
      <trkpt lat="43.90321" lon="7.28825">
        <ele>1270</ele>
        <time>2011-11-19T13:34:45Z</time>
      </trkpt>
      <trkpt lat="43.90305" lon="7.28819">
        <ele>1270</ele>
        <time>2011-11-19T13:34:55Z</time>
      </trkpt>
      <trkpt lat="43.90278" lon="7.28785">
        <ele>1269</ele>
        <time>2011-11-19T13:35:05Z</time>
      </trkpt>
      <trkpt lat="43.90257" lon="7.28769">
        <ele>1269</ele>
        <time>2011-11-19T13:35:16Z</time>
      </trkpt>
      <trkpt lat="43.90251" lon="7.28765">
        <ele>1268</ele>
        <time>2011-11-19T13:35:26Z</time>
      </trkpt>
      <trkpt lat="43.90228" lon="7.28742">
        <ele>1265</ele>
        <time>2011-11-19T13:35:36Z</time>
      </trkpt>
      <trkpt lat="43.90205" lon="7.28727">
        <ele>1258</ele>
        <time>2011-11-19T13:35:50Z</time>
      </trkpt>
      <trkpt lat="43.90194" lon="7.28722">
        <ele>1254</ele>
        <time>2011-11-19T13:36:00Z</time>
      </trkpt>
      <trkpt lat="43.90184" lon="7.28718">
        <ele>1248</ele>
        <time>2011-11-19T13:36:11Z</time>
      </trkpt>
      <trkpt lat="43.90168" lon="7.28698">
        <ele>1245</ele>
        <time>2011-11-19T13:36:21Z</time>
      </trkpt>
      <trkpt lat="43.90157" lon="7.28696">
        <ele>1244</ele>
        <time>2011-11-19T13:36:32Z</time>
      </trkpt>
      <trkpt lat="43.90137" lon="7.28699">
        <ele>1238</ele>
        <time>2011-11-19T13:36:43Z</time>
      </trkpt>
      <trkpt lat="43.90124" lon="7.28698">
        <ele>1235</ele>
        <time>2011-11-19T13:36:53Z</time>
      </trkpt>
      <trkpt lat="43.9012" lon="7.28691">
        <ele>1233</ele>
        <time>2011-11-19T13:37:07Z</time>
      </trkpt>
      <trkpt lat="43.90119" lon="7.28688">
        <ele>1231</ele>
        <time>2011-11-19T13:37:17Z</time>
      </trkpt>
      <trkpt lat="43.90112" lon="7.28684">
        <ele>1229</ele>
        <time>2011-11-19T13:37:27Z</time>
      </trkpt>
      <trkpt lat="43.90099" lon="7.28671">
        <ele>1225</ele>
        <time>2011-11-19T13:37:37Z</time>
      </trkpt>
      <trkpt lat="43.90093" lon="7.28664">
        <ele>1219</ele>
        <time>2011-11-19T13:37:54Z</time>
      </trkpt>
      <trkpt lat="43.90084" lon="7.28654">
        <ele>1218</ele>
        <time>2011-11-19T13:38:04Z</time>
      </trkpt>
      <trkpt lat="43.90067" lon="7.28648">
        <ele>1212</ele>
        <time>2011-11-19T13:38:14Z</time>
      </trkpt>
      <trkpt lat="43.90035" lon="7.28649">
        <ele>1207</ele>
        <time>2011-11-19T13:38:24Z</time>
      </trkpt>
      <trkpt lat="43.90001" lon="7.28641">
        <ele>1204</ele>
        <time>2011-11-19T13:38:40Z</time>
      </trkpt>
      <trkpt lat="43.89999" lon="7.28641">
        <ele>1204</ele>
        <time>2011-11-19T13:38:51Z</time>
      </trkpt>
      <trkpt lat="43.89968" lon="7.28644">
        <ele>1204</ele>
        <time>2011-11-19T13:39:02Z</time>
      </trkpt>
      <trkpt lat="43.89925" lon="7.28629">
        <ele>1204</ele>
        <time>2011-11-19T13:39:12Z</time>
      </trkpt>
      <trkpt lat="43.89888" lon="7.2863">
        <ele>1199</ele>
        <time>2011-11-19T13:39:22Z</time>
      </trkpt>
      <trkpt lat="43.89848" lon="7.28624">
        <ele>1194</ele>
        <time>2011-11-19T13:39:32Z</time>
      </trkpt>
      <trkpt lat="43.89822" lon="7.28618">
        <ele>1191</ele>
        <time>2011-11-19T13:39:42Z</time>
      </trkpt>
      <trkpt lat="43.89787" lon="7.28616">
        <ele>1190</ele>
        <time>2011-11-19T13:39:52Z</time>
      </trkpt>
      <trkpt lat="43.89753" lon="7.2863">
        <ele>1182</ele>
        <time>2011-11-19T13:40:02Z</time>
      </trkpt>
      <trkpt lat="43.89721" lon="7.28645">
        <ele>1173</ele>
        <time>2011-11-19T13:40:12Z</time>
      </trkpt>
      <trkpt lat="43.89719" lon="7.28643">
        <ele>1169</ele>
        <time>2011-11-19T13:40:21Z</time>
      </trkpt>
      <trkpt lat="43.89716" lon="7.28644">
        <ele>1169</ele>
        <time>2011-11-19T13:40:36Z</time>
      </trkpt>
      <trkpt lat="43.89713" lon="7.28643">
        <ele>1166</ele>
        <time>2011-11-19T13:40:47Z</time>
      </trkpt>
      <trkpt lat="43.89711" lon="7.28642">
        <ele>1161</ele>
        <time>2011-11-19T13:41:00Z</time>
      </trkpt>
      <trkpt lat="43.89709" lon="7.28642">
        <ele>1158</ele>
        <time>2011-11-19T13:41:04Z</time>
      </trkpt>
      <trkpt lat="43.89699" lon="7.28646">
        <ele>1156</ele>
        <time>2011-11-19T13:41:15Z</time>
      </trkpt>
      <trkpt lat="43.89678" lon="7.28657">
        <ele>1156</ele>
        <time>2011-11-19T13:41:25Z</time>
      </trkpt>
      <trkpt lat="43.89654" lon="7.28667">
        <ele>1156</ele>
        <time>2011-11-19T13:41:36Z</time>
      </trkpt>
      <trkpt lat="43.89652" lon="7.28668">
        <ele>1156</ele>
        <time>2011-11-19T13:41:49Z</time>
      </trkpt>
      <trkpt lat="43.89649" lon="7.28668">
        <ele>1156</ele>
        <time>2011-11-19T13:42:02Z</time>
      </trkpt>
      <trkpt lat="43.89646" lon="7.2867">
        <ele>1156</ele>
        <time>2011-11-19T13:42:13Z</time>
      </trkpt>
      <trkpt lat="43.89618" lon="7.28684">
        <ele>1151</ele>
        <time>2011-11-19T13:42:23Z</time>
      </trkpt>
      <trkpt lat="43.89589" lon="7.2868">
        <ele>1144</ele>
        <time>2011-11-19T13:42:33Z</time>
      </trkpt>
      <trkpt lat="43.8957" lon="7.28663">
        <ele>1141</ele>
        <time>2011-11-19T13:42:48Z</time>
      </trkpt>
      <trkpt lat="43.89566" lon="7.28662">
        <ele>1141</ele>
        <time>2011-11-19T13:43:01Z</time>
      </trkpt>
      <trkpt lat="43.8955" lon="7.28665">
        <ele>1138</ele>
        <time>2011-11-19T13:43:12Z</time>
      </trkpt>
      <trkpt lat="43.8953" lon="7.28674">
        <ele>1133</ele>
        <time>2011-11-19T13:43:23Z</time>
      </trkpt>
      <trkpt lat="43.89502" lon="7.28685">
        <ele>1129</ele>
        <time>2011-11-19T13:43:34Z</time>
      </trkpt>
      <trkpt lat="43.89482" lon="7.28706">
        <ele>1122</ele>
        <time>2011-11-19T13:43:44Z</time>
      </trkpt>
      <trkpt lat="43.89477" lon="7.28705">
        <ele>1122</ele>
        <time>2011-11-19T13:43:56Z</time>
      </trkpt>
      <trkpt lat="43.89457" lon="7.28714">
        <ele>1121</ele>
        <time>2011-11-19T13:44:06Z</time>
      </trkpt>
      <trkpt lat="43.89433" lon="7.28726">
        <ele>1120</ele>
        <time>2011-11-19T13:44:17Z</time>
      </trkpt>
      <trkpt lat="43.89409" lon="7.28747">
        <ele>1115</ele>
        <time>2011-11-19T13:44:27Z</time>
      </trkpt>
      <trkpt lat="43.89394" lon="7.28765">
        <ele>1110</ele>
        <time>2011-11-19T13:44:37Z</time>
      </trkpt>
      <trkpt lat="43.89378" lon="7.28779">
        <ele>1103</ele>
        <time>2011-11-19T13:44:52Z</time>
      </trkpt>
      <trkpt lat="43.89375" lon="7.28779">
        <ele>1098</ele>
        <time>2011-11-19T13:45:08Z</time>
      </trkpt>
      <trkpt lat="43.8937" lon="7.28782">
        <ele>1097</ele>
        <time>2011-11-19T13:45:19Z</time>
      </trkpt>
      <trkpt lat="43.89367" lon="7.28782">
        <ele>1097</ele>
        <time>2011-11-19T13:45:29Z</time>
      </trkpt>
      <trkpt lat="43.89361" lon="7.28779">
        <ele>1097</ele>
        <time>2011-11-19T13:45:39Z</time>
      </trkpt>
      <trkpt lat="43.89354" lon="7.28777">
        <ele>1096</ele>
        <time>2011-11-19T13:45:50Z</time>
      </trkpt>
      <trkpt lat="43.89348" lon="7.28774">
        <ele>1096</ele>
        <time>2011-11-19T13:46:00Z</time>
      </trkpt>
      <trkpt lat="43.89345" lon="7.28774">
        <ele>1094</ele>
        <time>2011-11-19T13:46:15Z</time>
      </trkpt>
      <trkpt lat="43.89343" lon="7.28772">
        <ele>1093</ele>
        <time>2011-11-19T13:46:25Z</time>
      </trkpt>
      <trkpt lat="43.89344" lon="7.28766">
        <ele>1091</ele>
        <time>2011-11-19T13:46:35Z</time>
      </trkpt>
      <trkpt lat="43.89342" lon="7.28757">
        <ele>1091</ele>
        <time>2011-11-19T13:46:45Z</time>
      </trkpt>
      <trkpt lat="43.89333" lon="7.28753">
        <ele>1093</ele>
        <time>2011-11-19T13:46:58Z</time>
      </trkpt>
      <trkpt lat="43.89331" lon="7.28747">
        <ele>1093</ele>
        <time>2011-11-19T13:47:08Z</time>
      </trkpt>
      <trkpt lat="43.89328" lon="7.28741">
        <ele>1092</ele>
        <time>2011-11-19T13:47:20Z</time>
      </trkpt>
      <trkpt lat="43.89321" lon="7.28738">
        <ele>1089</ele>
        <time>2011-11-19T13:47:31Z</time>
      </trkpt>
      <trkpt lat="43.89313" lon="7.28738">
        <ele>1088</ele>
        <time>2011-11-19T13:47:42Z</time>
      </trkpt>
      <trkpt lat="43.89304" lon="7.28739">
        <ele>1088</ele>
        <time>2011-11-19T13:47:52Z</time>
      </trkpt>
      <trkpt lat="43.89285" lon="7.28728">
        <ele>1082</ele>
        <time>2011-11-19T13:48:04Z</time>
      </trkpt>
      <trkpt lat="43.89274" lon="7.28719">
        <ele>1080</ele>
        <time>2011-11-19T13:48:15Z</time>
      </trkpt>
      <trkpt lat="43.89248" lon="7.28691">
        <ele>1078</ele>
        <time>2011-11-19T13:48:26Z</time>
      </trkpt>
      <trkpt lat="43.89242" lon="7.28673">
        <ele>1076</ele>
        <time>2011-11-19T13:48:37Z</time>
      </trkpt>
      <trkpt lat="43.89245" lon="7.28664">
        <ele>1076</ele>
        <time>2011-11-19T13:48:37Z</time>
      </trkpt>
      <trkpt lat="43.89247" lon="7.28662">
        <ele>1074</ele>
        <time>2011-11-19T13:48:55Z</time>
      </trkpt>
      <trkpt lat="43.89253" lon="7.28658">
        <ele>1074</ele>
        <time>2011-11-19T13:49:05Z</time>
      </trkpt>
      <trkpt lat="43.89266" lon="7.28653">
        <ele>1072</ele>
        <time>2011-11-19T13:49:22Z</time>
      </trkpt>
      <trkpt lat="43.89267" lon="7.28645">
        <ele>1068</ele>
        <time>2011-11-19T13:49:35Z</time>
      </trkpt>
      <trkpt lat="43.89271" lon="7.28639">
        <ele>1065</ele>
        <time>2011-11-19T13:49:46Z</time>
      </trkpt>
      <trkpt lat="43.89273" lon="7.28633">
        <ele>1058</ele>
        <time>2011-11-19T13:49:58Z</time>
      </trkpt>
      <trkpt lat="43.89271" lon="7.28632">
        <ele>1055</ele>
        <time>2011-11-19T13:50:10Z</time>
      </trkpt>
      <trkpt lat="43.89271" lon="7.28626">
        <ele>1053</ele>
        <time>2011-11-19T13:50:21Z</time>
      </trkpt>
      <trkpt lat="43.89273" lon="7.28623">
        <ele>1052</ele>
        <time>2011-11-19T13:50:31Z</time>
      </trkpt>
      <trkpt lat="43.89274" lon="7.28619">
        <ele>1052</ele>
        <time>2011-11-19T13:50:41Z</time>
      </trkpt>
      <trkpt lat="43.89277" lon="7.28616">
        <ele>1053</ele>
        <time>2011-11-19T13:50:51Z</time>
      </trkpt>
      <trkpt lat="43.89281" lon="7.28615">
        <ele>1053</ele>
        <time>2011-11-19T13:51:01Z</time>
      </trkpt>
      <trkpt lat="43.89287" lon="7.28617">
        <ele>1046</ele>
        <time>2011-11-19T13:51:13Z</time>
      </trkpt>
      <trkpt lat="43.89293" lon="7.28616">
        <ele>1042</ele>
        <time>2011-11-19T13:51:23Z</time>
      </trkpt>
      <trkpt lat="43.89293" lon="7.28609">
        <ele>1042</ele>
        <time>2011-11-19T13:51:36Z</time>
      </trkpt>
      <trkpt lat="43.89294" lon="7.28603">
        <ele>1042</ele>
        <time>2011-11-19T13:51:47Z</time>
      </trkpt>
      <trkpt lat="43.89285" lon="7.28592">
        <ele>1042</ele>
        <time>2011-11-19T13:51:57Z</time>
      </trkpt>
      <trkpt lat="43.89268" lon="7.28591">
        <ele>1043</ele>
        <time>2011-11-19T13:52:08Z</time>
      </trkpt>
      <trkpt lat="43.89266" lon="7.28591">
        <ele>1042</ele>
        <time>2011-11-19T13:52:23Z</time>
      </trkpt>
      <trkpt lat="43.89263" lon="7.28594">
        <ele>1041</ele>
        <time>2011-11-19T13:52:33Z</time>
      </trkpt>
      <trkpt lat="43.89261" lon="7.28595">
        <ele>1037</ele>
        <time>2011-11-19T13:52:44Z</time>
      </trkpt>
      <trkpt lat="43.89258" lon="7.28591">
        <ele>1033</ele>
        <time>2011-11-19T13:52:58Z</time>
      </trkpt>
      <trkpt lat="43.89256" lon="7.28591">
        <ele>1031</ele>
        <time>2011-11-19T13:53:09Z</time>
      </trkpt>
      <trkpt lat="43.89252" lon="7.28593">
        <ele>1028</ele>
        <time>2011-11-19T13:53:20Z</time>
      </trkpt>
      <trkpt lat="43.89247" lon="7.28592">
        <ele>1027</ele>
        <time>2011-11-19T13:53:30Z</time>
      </trkpt>
      <trkpt lat="43.89241" lon="7.2859">
        <ele>1028</ele>
        <time>2011-11-19T13:53:40Z</time>
      </trkpt>
      <trkpt lat="43.89245" lon="7.28573">
        <ele>1022</ele>
        <time>2011-11-19T13:54:01Z</time>
      </trkpt>
      <trkpt lat="43.89245" lon="7.28568">
        <ele>1017</ele>
        <time>2011-11-19T13:54:13Z</time>
      </trkpt>
      <trkpt lat="43.8924" lon="7.28569">
        <ele>1017</ele>
        <time>2011-11-19T13:54:25Z</time>
      </trkpt>
      <trkpt lat="43.89232" lon="7.28579">
        <ele>1017</ele>
        <time>2011-11-19T13:54:35Z</time>
      </trkpt>
      <trkpt lat="43.89225" lon="7.28584">
        <ele>1017</ele>
        <time>2011-11-19T13:54:49Z</time>
      </trkpt>
      <trkpt lat="43.89221" lon="7.28581">
        <ele>1017</ele>
        <time>2011-11-19T13:55:00Z</time>
      </trkpt>
      <trkpt lat="43.89227" lon="7.28571">
        <ele>1016</ele>
        <time>2011-11-19T13:55:11Z</time>
      </trkpt>
      <trkpt lat="43.89229" lon="7.28565">
        <ele>1010</ele>
        <time>2011-11-19T13:55:22Z</time>
      </trkpt>
      <trkpt lat="43.89225" lon="7.28569">
        <ele>1007</ele>
        <time>2011-11-19T13:55:34Z</time>
      </trkpt>
      <trkpt lat="43.89221" lon="7.28567">
        <ele>1002</ele>
        <time>2011-11-19T13:55:48Z</time>
      </trkpt>
      <trkpt lat="43.89215" lon="7.28565">
        <ele>996</ele>
        <time>2011-11-19T13:56:03Z</time>
      </trkpt>
      <trkpt lat="43.89213" lon="7.28562">
        <ele>996</ele>
        <time>2011-11-19T13:56:14Z</time>
      </trkpt>
      <trkpt lat="43.89209" lon="7.2856">
        <ele>994</ele>
        <time>2011-11-19T13:56:24Z</time>
      </trkpt>
      <trkpt lat="43.89205" lon="7.28562">
        <ele>993</ele>
        <time>2011-11-19T13:56:36Z</time>
      </trkpt>
      <trkpt lat="43.89201" lon="7.28563">
        <ele>991</ele>
        <time>2011-11-19T13:56:46Z</time>
      </trkpt>
      <trkpt lat="43.89183" lon="7.28562">
        <ele>987</ele>
        <time>2011-11-19T13:56:56Z</time>
      </trkpt>
      <trkpt lat="43.89171" lon="7.28558">
        <ele>987</ele>
        <time>2011-11-19T13:57:07Z</time>
      </trkpt>
      <trkpt lat="43.89163" lon="7.28562">
        <ele>986</ele>
        <time>2011-11-19T13:57:18Z</time>
      </trkpt>
      <trkpt lat="43.8915" lon="7.28572">
        <ele>980</ele>
        <time>2011-11-19T13:57:28Z</time>
      </trkpt>
      <trkpt lat="43.89123" lon="7.28591">
        <ele>978</ele>
        <time>2011-11-19T13:57:39Z</time>
      </trkpt>
      <trkpt lat="43.89102" lon="7.28607">
        <ele>978</ele>
        <time>2011-11-19T13:57:49Z</time>
      </trkpt>
      <trkpt lat="43.89096" lon="7.28612">
        <ele>977</ele>
        <time>2011-11-19T13:58:02Z</time>
      </trkpt>
      <trkpt lat="43.89087" lon="7.28617">
        <ele>976</ele>
        <time>2011-11-19T13:58:12Z</time>
      </trkpt>
      <trkpt lat="43.89079" lon="7.28623">
        <ele>976</ele>
        <time>2011-11-19T13:58:23Z</time>
      </trkpt>
      <trkpt lat="43.89068" lon="7.28625">
        <ele>975</ele>
        <time>2011-11-19T13:58:33Z</time>
      </trkpt>
      <trkpt lat="43.89052" lon="7.28636">
        <ele>970</ele>
        <time>2011-11-19T13:58:44Z</time>
      </trkpt>
      <trkpt lat="43.89047" lon="7.2864">
        <ele>967</ele>
        <time>2011-11-19T13:58:55Z</time>
      </trkpt>
      <trkpt lat="43.89039" lon="7.2865">
        <ele>965</ele>
        <time>2011-11-19T13:59:06Z</time>
      </trkpt>
      <trkpt lat="43.89003" lon="7.28675">
        <ele>958</ele>
        <time>2011-11-19T13:59:17Z</time>
      </trkpt>
      <trkpt lat="43.88999" lon="7.28677">
        <ele>957</ele>
        <time>2011-11-19T13:59:29Z</time>
      </trkpt>
      <trkpt lat="43.88998" lon="7.28678">
        <ele>955</ele>
        <time>2011-11-19T13:59:46Z</time>
      </trkpt>
      <trkpt lat="43.88985" lon="7.2869">
        <ele>955</ele>
        <time>2011-11-19T13:59:56Z</time>
      </trkpt>
      <trkpt lat="43.88973" lon="7.28682">
        <ele>955</ele>
        <time>2011-11-19T14:00:06Z</time>
      </trkpt>
      <trkpt lat="43.88963" lon="7.28666">
        <ele>963</ele>
        <time>2011-11-19T14:00:18Z</time>
      </trkpt>
      <trkpt lat="43.88949" lon="7.28658">
        <ele>969</ele>
        <time>2011-11-19T14:00:29Z</time>
      </trkpt>
      <trkpt lat="43.88933" lon="7.28652">
        <ele>970</ele>
        <time>2011-11-19T14:00:39Z</time>
      </trkpt>
      <trkpt lat="43.8892" lon="7.28643">
        <ele>972</ele>
        <time>2011-11-19T14:00:49Z</time>
      </trkpt>
      <trkpt lat="43.88912" lon="7.28627">
        <ele>977</ele>
        <time>2011-11-19T14:01:00Z</time>
      </trkpt>
      <trkpt lat="43.889" lon="7.28615">
        <ele>982</ele>
        <time>2011-11-19T14:01:10Z</time>
      </trkpt>
      <trkpt lat="43.88894" lon="7.28611">
        <ele>982</ele>
        <time>2011-11-19T14:01:28Z</time>
      </trkpt>
      <trkpt lat="43.88896" lon="7.2861">
        <ele>982</ele>
        <time>2011-11-19T14:01:38Z</time>
      </trkpt>
      <trkpt lat="43.88892" lon="7.28611">
        <ele>983</ele>
        <time>2011-11-19T14:01:53Z</time>
      </trkpt>
      <trkpt lat="43.88893" lon="7.28607">
        <ele>983</ele>
        <time>2011-11-19T14:02:05Z</time>
      </trkpt>
      <trkpt lat="43.88892" lon="7.28606">
        <ele>983</ele>
        <time>2011-11-19T14:02:16Z</time>
      </trkpt>
      <trkpt lat="43.88889" lon="7.28609">
        <ele>980</ele>
        <time>2011-11-19T14:02:34Z</time>
      </trkpt>
      <trkpt lat="43.88889" lon="7.28607">
        <ele>980</ele>
        <time>2011-11-19T14:02:49Z</time>
      </trkpt>
      <trkpt lat="43.88882" lon="7.28594">
        <ele>980</ele>
        <time>2011-11-19T14:03:00Z</time>
      </trkpt>
      <trkpt lat="43.88872" lon="7.28578">
        <ele>982</ele>
        <time>2011-11-19T14:03:10Z</time>
      </trkpt>
      <trkpt lat="43.88865" lon="7.28565">
        <ele>985</ele>
        <time>2011-11-19T14:03:20Z</time>
      </trkpt>
      <trkpt lat="43.88857" lon="7.28552">
        <ele>989</ele>
        <time>2011-11-19T14:03:30Z</time>
      </trkpt>
      <trkpt lat="43.88847" lon="7.28539">
        <ele>993</ele>
        <time>2011-11-19T14:03:41Z</time>
      </trkpt>
      <trkpt lat="43.88831" lon="7.28526">
        <ele>996</ele>
        <time>2011-11-19T14:03:52Z</time>
      </trkpt>
      <trkpt lat="43.8882" lon="7.28508">
        <ele>996</ele>
        <time>2011-11-19T14:04:03Z</time>
      </trkpt>
      <trkpt lat="43.88808" lon="7.28491">
        <ele>996</ele>
        <time>2011-11-19T14:04:13Z</time>
      </trkpt>
      <trkpt lat="43.888" lon="7.28475">
        <ele>996</ele>
        <time>2011-11-19T14:04:24Z</time>
      </trkpt>
      <trkpt lat="43.88791" lon="7.28464">
        <ele>996</ele>
        <time>2011-11-19T14:04:35Z</time>
      </trkpt>
      <trkpt lat="43.8879" lon="7.28462">
        <ele>994</ele>
        <time>2011-11-19T14:04:46Z</time>
      </trkpt>
      <trkpt lat="43.8879" lon="7.28457">
        <ele>991</ele>
        <time>2011-11-19T14:04:49Z</time>
      </trkpt>
      <trkpt lat="43.88773" lon="7.28467">
        <ele>989</ele>
        <time>2011-11-19T14:04:59Z</time>
      </trkpt>
      <trkpt lat="43.88741" lon="7.28484">
        <ele>988</ele>
        <time>2011-11-19T14:05:09Z</time>
      </trkpt>
      <trkpt lat="43.88735" lon="7.28476">
        <ele>985</ele>
        <time>2011-11-19T14:05:19Z</time>
      </trkpt>
      <trkpt lat="43.88725" lon="7.28473">
        <ele>982</ele>
        <time>2011-11-19T14:05:29Z</time>
      </trkpt>
      <trkpt lat="43.887" lon="7.28483">
        <ele>978</ele>
        <time>2011-11-19T14:05:39Z</time>
      </trkpt>
      <trkpt lat="43.88695" lon="7.28498">
        <ele>974</ele>
        <time>2011-11-19T14:05:53Z</time>
      </trkpt>
      <trkpt lat="43.88694" lon="7.285">
        <ele>973</ele>
        <time>2011-11-19T14:06:04Z</time>
      </trkpt>
      <trkpt lat="43.88695" lon="7.285">
        <ele>973</ele>
        <time>2011-11-19T14:06:15Z</time>
      </trkpt>
      <trkpt lat="43.88684" lon="7.28484">
        <ele>973</ele>
        <time>2011-11-19T14:06:26Z</time>
      </trkpt>
      <trkpt lat="43.88662" lon="7.2849">
        <ele>974</ele>
        <time>2011-11-19T14:06:40Z</time>
      </trkpt>
      <trkpt lat="43.88656" lon="7.28487">
        <ele>974</ele>
        <time>2011-11-19T14:06:51Z</time>
      </trkpt>
      <trkpt lat="43.8865" lon="7.28484">
        <ele>972</ele>
        <time>2011-11-19T14:07:01Z</time>
      </trkpt>
      <trkpt lat="43.88637" lon="7.28476">
        <ele>969</ele>
        <time>2011-11-19T14:07:11Z</time>
      </trkpt>
      <trkpt lat="43.8863" lon="7.28478">
        <ele>964</ele>
        <time>2011-11-19T14:07:22Z</time>
      </trkpt>
      <trkpt lat="43.88606" lon="7.28481">
        <ele>955</ele>
        <time>2011-11-19T14:07:32Z</time>
      </trkpt>
      <trkpt lat="43.88582" lon="7.28475">
        <ele>955</ele>
        <time>2011-11-19T14:07:43Z</time>
      </trkpt>
      <trkpt lat="43.88576" lon="7.28467">
        <ele>965</ele>
        <time>2011-11-19T14:07:54Z</time>
      </trkpt>
      <trkpt lat="43.88571" lon="7.28465">
        <ele>968</ele>
        <time>2011-11-19T14:08:05Z</time>
      </trkpt>
      <trkpt lat="43.88549" lon="7.2844">
        <ele>973</ele>
        <time>2011-11-19T14:08:16Z</time>
      </trkpt>
      <trkpt lat="43.88522" lon="7.28425">
        <ele>973</ele>
        <time>2011-11-19T14:08:26Z</time>
      </trkpt>
      <trkpt lat="43.88495" lon="7.28421">
        <ele>972</ele>
        <time>2011-11-19T14:08:36Z</time>
      </trkpt>
      <trkpt lat="43.88468" lon="7.28403">
        <ele>969</ele>
        <time>2011-11-19T14:08:47Z</time>
      </trkpt>
      <trkpt lat="43.88443" lon="7.28393">
        <ele>964</ele>
        <time>2011-11-19T14:08:58Z</time>
      </trkpt>
      <trkpt lat="43.88425" lon="7.28365">
        <ele>960</ele>
        <time>2011-11-19T14:09:09Z</time>
      </trkpt>
      <trkpt lat="43.88389" lon="7.28338">
        <ele>960</ele>
        <time>2011-11-19T14:09:20Z</time>
      </trkpt>
      <trkpt lat="43.88361" lon="7.28316">
        <ele>958</ele>
        <time>2011-11-19T14:09:30Z</time>
      </trkpt>
      <trkpt lat="43.88353" lon="7.28313">
        <ele>951</ele>
        <time>2011-11-19T14:09:41Z</time>
      </trkpt>
      <trkpt lat="43.88343" lon="7.28317">
        <ele>950</ele>
        <time>2011-11-19T14:09:52Z</time>
      </trkpt>
      <trkpt lat="43.88335" lon="7.28313">
        <ele>948</ele>
        <time>2011-11-19T14:10:03Z</time>
      </trkpt>
      <trkpt lat="43.88327" lon="7.28312">
        <ele>946</ele>
        <time>2011-11-19T14:10:14Z</time>
      </trkpt>
      <trkpt lat="43.88317" lon="7.28315">
        <ele>946</ele>
        <time>2011-11-19T14:10:25Z</time>
      </trkpt>
      <trkpt lat="43.88309" lon="7.28314">
        <ele>945</ele>
        <time>2011-11-19T14:10:37Z</time>
      </trkpt>
      <trkpt lat="43.88312" lon="7.28311">
        <ele>945</ele>
        <time>2011-11-19T14:10:48Z</time>
      </trkpt>
      <trkpt lat="43.88314" lon="7.28296">
        <ele>945</ele>
        <time>2011-11-19T14:10:58Z</time>
      </trkpt>
      <trkpt lat="43.88311" lon="7.28263">
        <ele>947</ele>
        <time>2011-11-19T14:11:08Z</time>
      </trkpt>
      <trkpt lat="43.88304" lon="7.28218">
        <ele>948</ele>
        <time>2011-11-19T14:11:18Z</time>
      </trkpt>
      <trkpt lat="43.8832" lon="7.28186">
        <ele>946</ele>
        <time>2011-11-19T14:11:28Z</time>
      </trkpt>
      <trkpt lat="43.88316" lon="7.28138">
        <ele>942</ele>
        <time>2011-11-19T14:11:39Z</time>
      </trkpt>
      <trkpt lat="43.88306" lon="7.28076">
        <ele>935</ele>
        <time>2011-11-19T14:11:49Z</time>
      </trkpt>
      <trkpt lat="43.8828" lon="7.28052">
        <ele>924</ele>
        <time>2011-11-19T14:12:00Z</time>
      </trkpt>
      <trkpt lat="43.88296" lon="7.28035">
        <ele>917</ele>
        <time>2011-11-19T14:12:11Z</time>
      </trkpt>
      <trkpt lat="43.88262" lon="7.28028">
        <ele>910</ele>
        <time>2011-11-19T14:12:21Z</time>
      </trkpt>
      <trkpt lat="43.88251" lon="7.28029">
        <ele>909</ele>
        <time>2011-11-19T14:12:31Z</time>
      </trkpt>
      <trkpt lat="43.88249" lon="7.28028">
        <ele>905</ele>
        <time>2011-11-19T14:12:42Z</time>
      </trkpt>
      <trkpt lat="43.88264" lon="7.28004">
        <ele>903</ele>
        <time>2011-11-19T14:12:53Z</time>
      </trkpt>
      <trkpt lat="43.88272" lon="7.27993">
        <ele>902</ele>
        <time>2011-11-19T14:13:05Z</time>
      </trkpt>
      <trkpt lat="43.88276" lon="7.27996">
        <ele>902</ele>
        <time>2011-11-19T14:13:17Z</time>
      </trkpt>
      <trkpt lat="43.88283" lon="7.27991">
        <ele>897</ele>
        <time>2011-11-19T14:13:27Z</time>
      </trkpt>
      <trkpt lat="43.88289" lon="7.27989">
        <ele>897</ele>
        <time>2011-11-19T14:13:39Z</time>
      </trkpt>
      <trkpt lat="43.88292" lon="7.27987">
        <ele>897</ele>
        <time>2011-11-19T14:13:54Z</time>
      </trkpt>
      <trkpt lat="43.88296" lon="7.2799">
        <ele>897</ele>
        <time>2011-11-19T14:14:04Z</time>
      </trkpt>
      <trkpt lat="43.883" lon="7.27993">
        <ele>895</ele>
        <time>2011-11-19T14:14:18Z</time>
      </trkpt>
      <trkpt lat="43.88302" lon="7.27996">
        <ele>892</ele>
        <time>2011-11-19T14:14:30Z</time>
      </trkpt>
      <trkpt lat="43.88302" lon="7.27991">
        <ele>892</ele>
        <time>2011-11-19T14:14:40Z</time>
      </trkpt>
      <trkpt lat="43.88307" lon="7.28">
        <ele>892</ele>
        <time>2011-11-19T14:14:51Z</time>
      </trkpt>
      <trkpt lat="43.88314" lon="7.28007">
        <ele>892</ele>
        <time>2011-11-19T14:15:01Z</time>
      </trkpt>
      <trkpt lat="43.88317" lon="7.28015">
        <ele>888</ele>
        <time>2011-11-19T14:15:13Z</time>
      </trkpt>
      <trkpt lat="43.88322" lon="7.28019">
        <ele>887</ele>
        <time>2011-11-19T14:15:23Z</time>
      </trkpt>
      <trkpt lat="43.88322" lon="7.28025">
        <ele>881</ele>
        <time>2011-11-19T14:15:33Z</time>
      </trkpt>
      <trkpt lat="43.88326" lon="7.28029">
        <ele>880</ele>
        <time>2011-11-19T14:15:44Z</time>
      </trkpt>
      <trkpt lat="43.88329" lon="7.28039">
        <ele>883</ele>
        <time>2011-11-19T14:15:58Z</time>
      </trkpt>
      <trkpt lat="43.88333" lon="7.28048">
        <ele>887</ele>
        <time>2011-11-19T14:16:09Z</time>
      </trkpt>
      <trkpt lat="43.88337" lon="7.28064">
        <ele>887</ele>
        <time>2011-11-19T14:16:19Z</time>
      </trkpt>
      <trkpt lat="43.88341" lon="7.28066">
        <ele>890</ele>
        <time>2011-11-19T14:16:32Z</time>
      </trkpt>
      <trkpt lat="43.88346" lon="7.28067">
        <ele>890</ele>
        <time>2011-11-19T14:16:43Z</time>
      </trkpt>
      <trkpt lat="43.88349" lon="7.28074">
        <ele>886</ele>
        <time>2011-11-19T14:16:55Z</time>
      </trkpt>
      <trkpt lat="43.88352" lon="7.28076">
        <ele>881</ele>
        <time>2011-11-19T14:17:05Z</time>
      </trkpt>
      <trkpt lat="43.88359" lon="7.28082">
        <ele>873</ele>
        <time>2011-11-19T14:17:16Z</time>
      </trkpt>
      <trkpt lat="43.88378" lon="7.28095">
        <ele>870</ele>
        <time>2011-11-19T14:17:27Z</time>
      </trkpt>
      <trkpt lat="43.88383" lon="7.28097">
        <ele>869</ele>
        <time>2011-11-19T14:17:37Z</time>
      </trkpt>
      <trkpt lat="43.88394" lon="7.28111">
        <ele>865</ele>
        <time>2011-11-19T14:17:48Z</time>
      </trkpt>
      <trkpt lat="43.88405" lon="7.28124">
        <ele>862</ele>
        <time>2011-11-19T14:17:58Z</time>
      </trkpt>
      <trkpt lat="43.8841" lon="7.28139">
        <ele>860</ele>
        <time>2011-11-19T14:18:08Z</time>
      </trkpt>
      <trkpt lat="43.88415" lon="7.28149">
        <ele>858</ele>
        <time>2011-11-19T14:18:20Z</time>
      </trkpt>
      <trkpt lat="43.88418" lon="7.28155">
        <ele>853</ele>
        <time>2011-11-19T14:18:31Z</time>
      </trkpt>
      <trkpt lat="43.88428" lon="7.28155">
        <ele>854</ele>
        <time>2011-11-19T14:18:41Z</time>
      </trkpt>
      <trkpt lat="43.88424" lon="7.28158">
        <ele>855</ele>
        <time>2011-11-19T14:18:51Z</time>
      </trkpt>
      <trkpt lat="43.88427" lon="7.28161">
        <ele>855</ele>
        <time>2011-11-19T14:19:02Z</time>
      </trkpt>
      <trkpt lat="43.88434" lon="7.28163">
        <ele>865</ele>
        <time>2011-11-19T14:19:14Z</time>
      </trkpt>
      <trkpt lat="43.88436" lon="7.28164">
        <ele>874</ele>
        <time>2011-11-19T14:19:25Z</time>
      </trkpt>
      <trkpt lat="43.88431" lon="7.28168">
        <ele>885</ele>
        <time>2011-11-19T14:19:36Z</time>
      </trkpt>
      <trkpt lat="43.88426" lon="7.28171">
        <ele>887</ele>
        <time>2011-11-19T14:19:53Z</time>
      </trkpt>
      <trkpt lat="43.88431" lon="7.2817">
        <ele>880</ele>
        <time>2011-11-19T14:20:05Z</time>
      </trkpt>
      <trkpt lat="43.8844" lon="7.28173">
        <ele>875</ele>
        <time>2011-11-19T14:20:15Z</time>
      </trkpt>
      <trkpt lat="43.88448" lon="7.28174">
        <ele>875</ele>
        <time>2011-11-19T14:20:25Z</time>
      </trkpt>
      <trkpt lat="43.88456" lon="7.28173">
        <ele>875</ele>
        <time>2011-11-19T14:20:35Z</time>
      </trkpt>
      <trkpt lat="43.88465" lon="7.28172">
        <ele>873</ele>
        <time>2011-11-19T14:20:47Z</time>
      </trkpt>
      <trkpt lat="43.88474" lon="7.2817">
        <ele>865</ele>
        <time>2011-11-19T14:20:59Z</time>
      </trkpt>
      <trkpt lat="43.88479" lon="7.28171">
        <ele>865</ele>
        <time>2011-11-19T14:21:11Z</time>
      </trkpt>
      <trkpt lat="43.88485" lon="7.28168">
        <ele>865</ele>
        <time>2011-11-19T14:21:24Z</time>
      </trkpt>
      <trkpt lat="43.88493" lon="7.28166">
        <ele>865</ele>
        <time>2011-11-19T14:21:36Z</time>
      </trkpt>
      <trkpt lat="43.885" lon="7.28162">
        <ele>865</ele>
        <time>2011-11-19T14:21:46Z</time>
      </trkpt>
      <trkpt lat="43.88506" lon="7.28157">
        <ele>864</ele>
        <time>2011-11-19T14:21:56Z</time>
      </trkpt>
      <trkpt lat="43.88511" lon="7.28148">
        <ele>864</ele>
        <time>2011-11-19T14:22:08Z</time>
      </trkpt>
      <trkpt lat="43.88515" lon="7.28139">
        <ele>864</ele>
        <time>2011-11-19T14:22:18Z</time>
      </trkpt>
      <trkpt lat="43.88524" lon="7.28128">
        <ele>864</ele>
        <time>2011-11-19T14:22:29Z</time>
      </trkpt>
      <trkpt lat="43.88526" lon="7.28124">
        <ele>864</ele>
        <time>2011-11-19T14:22:39Z</time>
      </trkpt>
      <trkpt lat="43.88528" lon="7.28119">
        <ele>867</ele>
        <time>2011-11-19T14:22:50Z</time>
      </trkpt>
      <trkpt lat="43.88532" lon="7.28113">
        <ele>872</ele>
        <time>2011-11-19T14:23:01Z</time>
      </trkpt>
      <trkpt lat="43.88536" lon="7.28106">
        <ele>873</ele>
        <time>2011-11-19T14:23:11Z</time>
      </trkpt>
      <trkpt lat="43.88542" lon="7.281">
        <ele>870</ele>
        <time>2011-11-19T14:23:21Z</time>
      </trkpt>
      <trkpt lat="43.88544" lon="7.28096">
        <ele>865</ele>
        <time>2011-11-19T14:23:32Z</time>
      </trkpt>
      <trkpt lat="43.88541" lon="7.28091">
        <ele>862</ele>
        <time>2011-11-19T14:23:43Z</time>
      </trkpt>
      <trkpt lat="43.88545" lon="7.28089">
        <ele>856</ele>
        <time>2011-11-19T14:23:57Z</time>
      </trkpt>
      <trkpt lat="43.88552" lon="7.28088">
        <ele>856</ele>
        <time>2011-11-19T14:24:11Z</time>
      </trkpt>
      <trkpt lat="43.88554" lon="7.28087">
        <ele>856</ele>
        <time>2011-11-19T14:24:21Z</time>
      </trkpt>
      <trkpt lat="43.88565" lon="7.28089">
        <ele>858</ele>
        <time>2011-11-19T14:24:34Z</time>
      </trkpt>
      <trkpt lat="43.8857" lon="7.2809">
        <ele>858</ele>
        <time>2011-11-19T14:24:44Z</time>
      </trkpt>
      <trkpt lat="43.88573" lon="7.28088">
        <ele>858</ele>
        <time>2011-11-19T14:24:57Z</time>
      </trkpt>
      <trkpt lat="43.88577" lon="7.28089">
        <ele>856</ele>
        <time>2011-11-19T14:25:12Z</time>
      </trkpt>
      <trkpt lat="43.8858" lon="7.2808">
        <ele>856</ele>
        <time>2011-11-19T14:25:23Z</time>
      </trkpt>
      <trkpt lat="43.88581" lon="7.28077">
        <ele>853</ele>
        <time>2011-11-19T14:25:34Z</time>
      </trkpt>
      <trkpt lat="43.88585" lon="7.28069">
        <ele>851</ele>
        <time>2011-11-19T14:25:47Z</time>
      </trkpt>
      <trkpt lat="43.8858" lon="7.28063">
        <ele>849</ele>
        <time>2011-11-19T14:25:59Z</time>
      </trkpt>
      <trkpt lat="43.88584" lon="7.28059">
        <ele>849</ele>
        <time>2011-11-19T14:26:10Z</time>
      </trkpt>
      <trkpt lat="43.8859" lon="7.28061">
        <ele>842</ele>
        <time>2011-11-19T14:26:21Z</time>
      </trkpt>
      <trkpt lat="43.88595" lon="7.28063">
        <ele>835</ele>
        <time>2011-11-19T14:26:35Z</time>
      </trkpt>
      <trkpt lat="43.88595" lon="7.28059">
        <ele>836</ele>
        <time>2011-11-19T14:26:49Z</time>
      </trkpt>
      <trkpt lat="43.88595" lon="7.28058">
        <ele>836</ele>
        <time>2011-11-19T14:27:11Z</time>
      </trkpt>
      <trkpt lat="43.88596" lon="7.28056">
        <ele>836</ele>
        <time>2011-11-19T14:27:28Z</time>
      </trkpt>
      <trkpt lat="43.88601" lon="7.28054">
        <ele>837</ele>
        <time>2011-11-19T14:27:52Z</time>
      </trkpt>
      <trkpt lat="43.88602" lon="7.28059">
        <ele>837</ele>
        <time>2011-11-19T14:28:03Z</time>
      </trkpt>
      <trkpt lat="43.88602" lon="7.28064">
        <ele>837</ele>
        <time>2011-11-19T14:28:13Z</time>
      </trkpt>
      <trkpt lat="43.88601" lon="7.28066">
        <ele>837</ele>
        <time>2011-11-19T14:28:29Z</time>
      </trkpt>
      <trkpt lat="43.88602" lon="7.28065">
        <ele>837</ele>
        <time>2011-11-19T14:28:42Z</time>
      </trkpt>
      <trkpt lat="43.88614" lon="7.28075">
        <ele>837</ele>
        <time>2011-11-19T14:28:52Z</time>
      </trkpt>
      <trkpt lat="43.8862" lon="7.28078">
        <ele>837</ele>
        <time>2011-11-19T14:29:04Z</time>
      </trkpt>
      <trkpt lat="43.88619" lon="7.28083">
        <ele>837</ele>
        <time>2011-11-19T14:29:15Z</time>
      </trkpt>
      <trkpt lat="43.88622" lon="7.28085">
        <ele>834</ele>
        <time>2011-11-19T14:29:25Z</time>
      </trkpt>
      <trkpt lat="43.88623" lon="7.28071">
        <ele>834</ele>
        <time>2011-11-19T14:29:40Z</time>
      </trkpt>
      <trkpt lat="43.88635" lon="7.28076">
        <ele>834</ele>
        <time>2011-11-19T14:29:54Z</time>
      </trkpt>
      <trkpt lat="43.88637" lon="7.28069">
        <ele>833</ele>
        <time>2011-11-19T14:30:07Z</time>
      </trkpt>
      <trkpt lat="43.88639" lon="7.28059">
        <ele>833</ele>
        <time>2011-11-19T14:30:18Z</time>
      </trkpt>
      <trkpt lat="43.88643" lon="7.28049">
        <ele>834</ele>
        <time>2011-11-19T14:30:30Z</time>
      </trkpt>
      <trkpt lat="43.88651" lon="7.28053">
        <ele>832</ele>
        <time>2011-11-19T14:30:40Z</time>
      </trkpt>
      <trkpt lat="43.88679" lon="7.28071">
        <ele>823</ele>
        <time>2011-11-19T14:30:50Z</time>
      </trkpt>
      <trkpt lat="43.88695" lon="7.28092">
        <ele>816</ele>
        <time>2011-11-19T14:31:00Z</time>
      </trkpt>
      <trkpt lat="43.88706" lon="7.28086">
        <ele>816</ele>
        <time>2011-11-19T14:31:11Z</time>
      </trkpt>
      <trkpt lat="43.88709" lon="7.28073">
        <ele>816</ele>
        <time>2011-11-19T14:31:23Z</time>
      </trkpt>
      <trkpt lat="43.88727" lon="7.28064">
        <ele>815</ele>
        <time>2011-11-19T14:31:34Z</time>
      </trkpt>
      <trkpt lat="43.88745" lon="7.28042">
        <ele>810</ele>
        <time>2011-11-19T14:31:44Z</time>
      </trkpt>
      <trkpt lat="43.88768" lon="7.28018">
        <ele>804</ele>
        <time>2011-11-19T14:31:55Z</time>
      </trkpt>
      <trkpt lat="43.8878" lon="7.28005">
        <ele>798</ele>
        <time>2011-11-19T14:32:06Z</time>
      </trkpt>
      <trkpt lat="43.88785" lon="7.27999">
        <ele>793</ele>
        <time>2011-11-19T14:32:18Z</time>
      </trkpt>
      <trkpt lat="43.88793" lon="7.27986">
        <ele>791</ele>
        <time>2011-11-19T14:32:28Z</time>
      </trkpt>
      <trkpt lat="43.8881" lon="7.27971">
        <ele>786</ele>
        <time>2011-11-19T14:32:40Z</time>
      </trkpt>
      <trkpt lat="43.88827" lon="7.27951">
        <ele>782</ele>
        <time>2011-11-19T14:32:50Z</time>
      </trkpt>
      <trkpt lat="43.88841" lon="7.27927">
        <ele>777</ele>
        <time>2011-11-19T14:33:01Z</time>
      </trkpt>
      <trkpt lat="43.88844" lon="7.27924">
        <ele>773</ele>
        <time>2011-11-19T14:33:15Z</time>
      </trkpt>
      <trkpt lat="43.88862" lon="7.2794">
        <ele>768</ele>
        <time>2011-11-19T14:33:25Z</time>
      </trkpt>
      <trkpt lat="43.88879" lon="7.27951">
        <ele>766</ele>
        <time>2011-11-19T14:33:35Z</time>
      </trkpt>
      <trkpt lat="43.88893" lon="7.27954">
        <ele>761</ele>
        <time>2011-11-19T14:33:46Z</time>
      </trkpt>
      <trkpt lat="43.88897" lon="7.27951">
        <ele>757</ele>
        <time>2011-11-19T14:33:59Z</time>
      </trkpt>
      <trkpt lat="43.88896" lon="7.27944">
        <ele>754</ele>
        <time>2011-11-19T14:34:10Z</time>
      </trkpt>
      <trkpt lat="43.88909" lon="7.27939">
        <ele>749</ele>
        <time>2011-11-19T14:34:20Z</time>
      </trkpt>
      <trkpt lat="43.88913" lon="7.27927">
        <ele>741</ele>
        <time>2011-11-19T14:34:30Z</time>
      </trkpt>
      <trkpt lat="43.88915" lon="7.27922">
        <ele>741</ele>
        <time>2011-11-19T14:34:44Z</time>
      </trkpt>
      <trkpt lat="43.88923" lon="7.27942">
        <ele>737</ele>
        <time>2011-11-19T14:34:55Z</time>
      </trkpt>
      <trkpt lat="43.8893" lon="7.27954">
        <ele>731</ele>
        <time>2011-11-19T14:35:05Z</time>
      </trkpt>
      <trkpt lat="43.88929" lon="7.27959">
        <ele>730</ele>
        <time>2011-11-19T14:35:24Z</time>
      </trkpt>
      <trkpt lat="43.88933" lon="7.27966">
        <ele>730</ele>
        <time>2011-11-19T14:35:36Z</time>
      </trkpt>
      <trkpt lat="43.88939" lon="7.2797">
        <ele>730</ele>
        <time>2011-11-19T14:35:46Z</time>
      </trkpt>
      <trkpt lat="43.88942" lon="7.27972">
        <ele>730</ele>
        <time>2011-11-19T14:35:59Z</time>
      </trkpt>
      <trkpt lat="43.88947" lon="7.27979">
        <ele>725</ele>
        <time>2011-11-19T14:36:11Z</time>
      </trkpt>
      <trkpt lat="43.88952" lon="7.27987">
        <ele>722</ele>
        <time>2011-11-19T14:36:22Z</time>
      </trkpt>
      <trkpt lat="43.88958" lon="7.2799">
        <ele>719</ele>
        <time>2011-11-19T14:36:36Z</time>
      </trkpt>
      <trkpt lat="43.88962" lon="7.27995">
        <ele>717</ele>
        <time>2011-11-19T14:36:46Z</time>
      </trkpt>
      <trkpt lat="43.88968" lon="7.28005">
        <ele>714</ele>
        <time>2011-11-19T14:36:58Z</time>
      </trkpt>
      <trkpt lat="43.8897" lon="7.28007">
        <ele>712</ele>
        <time>2011-11-19T14:36:58Z</time>
      </trkpt>
      <trkpt lat="43.88978" lon="7.28015">
        <ele>712</ele>
        <time>2011-11-19T14:37:09Z</time>
      </trkpt>
      <trkpt lat="43.88989" lon="7.28024">
        <ele>714</ele>
        <time>2011-11-19T14:37:19Z</time>
      </trkpt>
      <trkpt lat="43.89013" lon="7.28">
        <ele>714</ele>
        <time>2011-11-19T14:37:30Z</time>
      </trkpt>
      <trkpt lat="43.89043" lon="7.27989">
        <ele>710</ele>
        <time>2011-11-19T14:37:41Z</time>
      </trkpt>
      <trkpt lat="43.89071" lon="7.27965">
        <ele>702</ele>
        <time>2011-11-19T14:37:52Z</time>
      </trkpt>
      <trkpt lat="43.89082" lon="7.27962">
        <ele>694</ele>
        <time>2011-11-19T14:38:02Z</time>
      </trkpt>
      <trkpt lat="43.89107" lon="7.27988">
        <ele>692</ele>
        <time>2011-11-19T14:38:13Z</time>
      </trkpt>
      <trkpt lat="43.8912" lon="7.28">
        <ele>691</ele>
        <time>2011-11-19T14:38:23Z</time>
      </trkpt>
      <trkpt lat="43.89127" lon="7.28014">
        <ele>689</ele>
        <time>2011-11-19T14:38:33Z</time>
      </trkpt>
      <trkpt lat="43.89128" lon="7.28026">
        <ele>689</ele>
        <time>2011-11-19T14:38:44Z</time>
      </trkpt>
      <trkpt lat="43.8913" lon="7.28035">
        <ele>689</ele>
        <time>2011-11-19T14:38:54Z</time>
      </trkpt>
      <trkpt lat="43.89136" lon="7.28043">
        <ele>695</ele>
        <time>2011-11-19T14:39:07Z</time>
      </trkpt>
      <trkpt lat="43.89139" lon="7.28041">
        <ele>697</ele>
        <time>2011-11-19T14:39:18Z</time>
      </trkpt>
      <trkpt lat="43.89144" lon="7.28032">
        <ele>703</ele>
        <time>2011-11-19T14:39:29Z</time>
      </trkpt>
      <trkpt lat="43.89161" lon="7.28013">
        <ele>705</ele>
        <time>2011-11-19T14:39:39Z</time>
      </trkpt>
      <trkpt lat="43.89174" lon="7.27991">
        <ele>702</ele>
        <time>2011-11-19T14:39:49Z</time>
      </trkpt>
      <trkpt lat="43.89177" lon="7.27985">
        <ele>691</ele>
        <time>2011-11-19T14:40:00Z</time>
      </trkpt>
      <trkpt lat="43.89178" lon="7.27979">
        <ele>684</ele>
        <time>2011-11-19T14:40:10Z</time>
      </trkpt>
      <trkpt lat="43.89183" lon="7.27979">
        <ele>673</ele>
        <time>2011-11-19T14:40:22Z</time>
      </trkpt>
      <trkpt lat="43.89183" lon="7.27975">
        <ele>679</ele>
        <time>2011-11-19T14:40:35Z</time>
      </trkpt>
      <trkpt lat="43.89188" lon="7.27974">
        <ele>683</ele>
        <time>2011-11-19T14:40:45Z</time>
      </trkpt>
      <trkpt lat="43.89192" lon="7.27961">
        <ele>671</ele>
        <time>2011-11-19T14:40:59Z</time>
      </trkpt>
      <trkpt lat="43.8919" lon="7.27951">
        <ele>668</ele>
        <time>2011-11-19T14:41:10Z</time>
      </trkpt>
      <trkpt lat="43.89193" lon="7.27941">
        <ele>667</ele>
        <time>2011-11-19T14:41:20Z</time>
      </trkpt>
      <trkpt lat="43.89191" lon="7.279">
        <ele>659</ele>
        <time>2011-11-19T14:41:30Z</time>
      </trkpt>
      <trkpt lat="43.89185" lon="7.27869">
        <ele>651</ele>
        <time>2011-11-19T14:41:40Z</time>
      </trkpt>
      <trkpt lat="43.89186" lon="7.27841">
        <ele>649</ele>
        <time>2011-11-19T14:41:51Z</time>
      </trkpt>
      <trkpt lat="43.8918" lon="7.27828">
        <ele>645</ele>
        <time>2011-11-19T14:42:04Z</time>
      </trkpt>
      <trkpt lat="43.89174" lon="7.27812">
        <ele>643</ele>
        <time>2011-11-19T14:42:14Z</time>
      </trkpt>
      <trkpt lat="43.8917" lon="7.27806">
        <ele>643</ele>
        <time>2011-11-19T14:42:24Z</time>
      </trkpt>
      <trkpt lat="43.89167" lon="7.27799">
        <ele>643</ele>
        <time>2011-11-19T14:42:35Z</time>
      </trkpt>
      <trkpt lat="43.89158" lon="7.2778">
        <ele>637</ele>
        <time>2011-11-19T14:42:45Z</time>
      </trkpt>
      <trkpt lat="43.89153" lon="7.27752">
        <ele>633</ele>
        <time>2011-11-19T14:42:55Z</time>
      </trkpt>
      <trkpt lat="43.89147" lon="7.27714">
        <ele>626</ele>
        <time>2011-11-19T14:43:05Z</time>
      </trkpt>
      <trkpt lat="43.89137" lon="7.27683">
        <ele>619</ele>
        <time>2011-11-19T14:43:15Z</time>
      </trkpt>
      <trkpt lat="43.89128" lon="7.27659">
        <ele>612</ele>
        <time>2011-11-19T14:43:25Z</time>
      </trkpt>
      <trkpt lat="43.89122" lon="7.27631">
        <ele>605</ele>
        <time>2011-11-19T14:43:36Z</time>
      </trkpt>
      <trkpt lat="43.89111" lon="7.27606">
        <ele>598</ele>
        <time>2011-11-19T14:43:46Z</time>
      </trkpt>
      <trkpt lat="43.89104" lon="7.27575">
        <ele>591</ele>
        <time>2011-11-19T14:43:57Z</time>
      </trkpt>
      <trkpt lat="43.89124" lon="7.27558">
        <ele>583</ele>
        <time>2011-11-19T14:44:08Z</time>
      </trkpt>
      <trkpt lat="43.8913" lon="7.27545">
        <ele>577</ele>
        <time>2011-11-19T14:44:18Z</time>
      </trkpt>
      <trkpt lat="43.89114" lon="7.2751">
        <ele>574</ele>
        <time>2011-11-19T14:44:29Z</time>
      </trkpt>
      <trkpt lat="43.891" lon="7.27465">
        <ele>568</ele>
        <time>2011-11-19T14:44:39Z</time>
      </trkpt>
      <trkpt lat="43.89114" lon="7.27431">
        <ele>561</ele>
        <time>2011-11-19T14:44:49Z</time>
      </trkpt>
      <trkpt lat="43.89137" lon="7.27412">
        <ele>557</ele>
        <time>2011-11-19T14:44:59Z</time>
      </trkpt>
      <trkpt lat="43.89159" lon="7.27399">
        <ele>553</ele>
        <time>2011-11-19T14:45:11Z</time>
      </trkpt>
      <trkpt lat="43.89161" lon="7.27394">
        <ele>551</ele>
        <time>2011-11-19T14:45:22Z</time>
      </trkpt>
      <trkpt lat="43.89158" lon="7.27382">
        <ele>551</ele>
        <time>2011-11-19T14:45:32Z</time>
      </trkpt>
      <trkpt lat="43.89153" lon="7.27372">
        <ele>551</ele>
        <time>2011-11-19T14:45:43Z</time>
      </trkpt>
      <trkpt lat="43.89147" lon="7.27365">
        <ele>551</ele>
        <time>2011-11-19T14:45:53Z</time>
      </trkpt>
      <trkpt lat="43.89126" lon="7.2734">
        <ele>547</ele>
        <time>2011-11-19T14:46:03Z</time>
      </trkpt>
      <trkpt lat="43.89107" lon="7.2731">
        <ele>542</ele>
        <time>2011-11-19T14:46:14Z</time>
      </trkpt>
      <trkpt lat="43.89089" lon="7.27288">
        <ele>536</ele>
        <time>2011-11-19T14:46:24Z</time>
      </trkpt>
      <trkpt lat="43.8908" lon="7.27272">
        <ele>529</ele>
        <time>2011-11-19T14:46:37Z</time>
      </trkpt>
      <trkpt lat="43.89071" lon="7.27248">
        <ele>525</ele>
        <time>2011-11-19T14:46:47Z</time>
      </trkpt>
      <trkpt lat="43.89066" lon="7.2722">
        <ele>518</ele>
        <time>2011-11-19T14:46:58Z</time>
      </trkpt>
      <trkpt lat="43.89064" lon="7.27193">
        <ele>516</ele>
        <time>2011-11-19T14:47:08Z</time>
      </trkpt>
      <trkpt lat="43.89067" lon="7.27174">
        <ele>511</ele>
        <time>2011-11-19T14:47:18Z</time>
      </trkpt>
      <trkpt lat="43.89068" lon="7.27144">
        <ele>506</ele>
        <time>2011-11-19T14:47:28Z</time>
      </trkpt>
      <trkpt lat="43.89066" lon="7.2711">
        <ele>500</ele>
        <time>2011-11-19T14:47:39Z</time>
      </trkpt>
      <trkpt lat="43.89068" lon="7.27075">
        <ele>493</ele>
        <time>2011-11-19T14:47:49Z</time>
      </trkpt>
      <trkpt lat="43.89071" lon="7.27058">
        <ele>488</ele>
        <time>2011-11-19T14:48:00Z</time>
      </trkpt>
      <trkpt lat="43.89071" lon="7.27056">
        <ele>481</ele>
        <time>2011-11-19T14:48:10Z</time>
      </trkpt>
      <trkpt lat="43.89073" lon="7.2705">
        <ele>476</ele>
        <time>2011-11-19T14:48:21Z</time>
      </trkpt>
      <trkpt lat="43.89076" lon="7.27032">
        <ele>476</ele>
        <time>2011-11-19T14:48:31Z</time>
      </trkpt>
      <trkpt lat="43.89076" lon="7.2703">
        <ele>476</ele>
        <time>2011-11-19T14:48:46Z</time>
      </trkpt>
      <trkpt lat="43.89086" lon="7.26998">
        <ele>476</ele>
        <time>2011-11-19T14:48:56Z</time>
      </trkpt>
      <trkpt lat="43.89104" lon="7.26974">
        <ele>472</ele>
        <time>2011-11-19T14:49:07Z</time>
      </trkpt>
      <trkpt lat="43.89108" lon="7.26971">
        <ele>471</ele>
        <time>2011-11-19T14:49:19Z</time>
      </trkpt>
      <trkpt lat="43.89096" lon="7.2695">
        <ele>469</ele>
        <time>2011-11-19T14:49:30Z</time>
      </trkpt>
      <trkpt lat="43.89089" lon="7.26908">
        <ele>463</ele>
        <time>2011-11-19T14:49:40Z</time>
      </trkpt>
      <trkpt lat="43.89095" lon="7.26854">
        <ele>458</ele>
        <time>2011-11-19T14:49:51Z</time>
      </trkpt>
      <trkpt lat="43.89104" lon="7.26819">
        <ele>454</ele>
        <time>2011-11-19T14:50:01Z</time>
      </trkpt>
      <trkpt lat="43.89106" lon="7.26764">
        <ele>450</ele>
        <time>2011-11-19T14:50:12Z</time>
      </trkpt>
      <trkpt lat="43.89114" lon="7.26706">
        <ele>446</ele>
        <time>2011-11-19T14:50:22Z</time>
      </trkpt>
      <trkpt lat="43.89123" lon="7.2667">
        <ele>442</ele>
        <time>2011-11-19T14:50:32Z</time>
      </trkpt>
      <trkpt lat="43.89138" lon="7.26657">
        <ele>440</ele>
        <time>2011-11-19T14:50:42Z</time>
      </trkpt>
      <trkpt lat="43.89157" lon="7.2665">
        <ele>436</ele>
        <time>2011-11-19T14:50:59Z</time>
      </trkpt>
      <trkpt lat="43.89161" lon="7.26644">
        <ele>435</ele>
        <time>2011-11-19T14:51:12Z</time>
      </trkpt>
      <trkpt lat="43.89167" lon="7.26645">
        <ele>433</ele>
        <time>2011-11-19T14:51:22Z</time>
      </trkpt>
      <trkpt lat="43.89163" lon="7.26627">
        <ele>430</ele>
        <time>2011-11-19T14:51:33Z</time>
      </trkpt>
      <trkpt lat="43.89154" lon="7.26601">
        <ele>430</ele>
        <time>2011-11-19T14:51:43Z</time>
      </trkpt>
      <trkpt lat="43.8916" lon="7.26582">
        <ele>425</ele>
        <time>2011-11-19T14:51:53Z</time>
      </trkpt>
      <trkpt lat="43.89171" lon="7.26574">
        <ele>419</ele>
        <time>2011-11-19T14:52:07Z</time>
      </trkpt>
      <trkpt lat="43.89171" lon="7.26573">
        <ele>414</ele>
        <time>2011-11-19T14:52:17Z</time>
      </trkpt>
      <trkpt lat="43.89172" lon="7.2657">
        <ele>412</ele>
        <time>2011-11-19T14:52:28Z</time>
      </trkpt>
      <trkpt lat="43.89186" lon="7.26568">
        <ele>413</ele>
        <time>2011-11-19T14:52:38Z</time>
      </trkpt>
      <trkpt lat="43.89199" lon="7.26561">
        <ele>418</ele>
        <time>2011-11-19T14:52:48Z</time>
      </trkpt>
      <trkpt lat="43.89216" lon="7.26563">
        <ele>419</ele>
        <time>2011-11-19T14:53:01Z</time>
      </trkpt>
      <trkpt lat="43.89203" lon="7.26533">
        <ele>424</ele>
        <time>2011-11-19T14:53:11Z</time>
      </trkpt>
      <trkpt lat="43.89202" lon="7.26506">
        <ele>424</ele>
        <time>2011-11-19T14:53:21Z</time>
      </trkpt>
      <trkpt lat="43.89208" lon="7.26485">
        <ele>424</ele>
        <time>2011-11-19T14:53:31Z</time>
      </trkpt>
      <trkpt lat="43.89216" lon="7.26468">
        <ele>424</ele>
        <time>2011-11-19T14:53:41Z</time>
      </trkpt>
      <trkpt lat="43.89219" lon="7.26446">
        <ele>423</ele>
        <time>2011-11-19T14:53:51Z</time>
      </trkpt>
      <trkpt lat="43.89218" lon="7.26424">
        <ele>423</ele>
        <time>2011-11-19T14:54:01Z</time>
      </trkpt>
      <trkpt lat="43.89222" lon="7.26402">
        <ele>423</ele>
        <time>2011-11-19T14:54:11Z</time>
      </trkpt>
      <trkpt lat="43.8923" lon="7.26385">
        <ele>423</ele>
        <time>2011-11-19T14:54:21Z</time>
      </trkpt>
      <trkpt lat="43.89243" lon="7.26378">
        <ele>423</ele>
        <time>2011-11-19T14:54:31Z</time>
      </trkpt>
      <trkpt lat="43.89256" lon="7.26372">
        <ele>425</ele>
        <time>2011-11-19T14:54:42Z</time>
      </trkpt>
      <trkpt lat="43.89266" lon="7.26361">
        <ele>430</ele>
        <time>2011-11-19T14:54:52Z</time>
      </trkpt>
      <trkpt lat="43.89276" lon="7.26347">
        <ele>431</ele>
        <time>2011-11-19T14:55:03Z</time>
      </trkpt>
      <trkpt lat="43.89281" lon="7.26333">
        <ele>430</ele>
        <time>2011-11-19T14:55:13Z</time>
      </trkpt>
      <trkpt lat="43.89283" lon="7.26307">
        <ele>430</ele>
        <time>2011-11-19T14:55:24Z</time>
      </trkpt>
      <trkpt lat="43.89288" lon="7.26287">
        <ele>430</ele>
        <time>2011-11-19T14:55:34Z</time>
      </trkpt>
      <trkpt lat="43.89296" lon="7.26269">
        <ele>432</ele>
        <time>2011-11-19T14:55:44Z</time>
      </trkpt>
      <trkpt lat="43.89296" lon="7.26247">
        <ele>433</ele>
        <time>2011-11-19T14:55:54Z</time>
      </trkpt>
      <trkpt lat="43.89292" lon="7.26225">
        <ele>435</ele>
        <time>2011-11-19T14:56:05Z</time>
      </trkpt>
      <trkpt lat="43.89291" lon="7.26204">
        <ele>436</ele>
        <time>2011-11-19T14:56:15Z</time>
      </trkpt>
      <trkpt lat="43.89298" lon="7.26187">
        <ele>438</ele>
        <time>2011-11-19T14:56:25Z</time>
      </trkpt>
      <trkpt lat="43.89311" lon="7.26179">
        <ele>440</ele>
        <time>2011-11-19T14:56:36Z</time>
      </trkpt>
      <trkpt lat="43.89327" lon="7.26176">
        <ele>445</ele>
        <time>2011-11-19T14:56:46Z</time>
      </trkpt>
      <trkpt lat="43.8934" lon="7.26164">
        <ele>445</ele>
        <time>2011-11-19T14:56:57Z</time>
      </trkpt>
      <trkpt lat="43.89354" lon="7.26154">
        <ele>447</ele>
        <time>2011-11-19T14:57:07Z</time>
      </trkpt>
      <trkpt lat="43.89368" lon="7.26149">
        <ele>447</ele>
        <time>2011-11-19T14:57:18Z</time>
      </trkpt>
      <trkpt lat="43.89386" lon="7.26146">
        <ele>449</ele>
        <time>2011-11-19T14:57:29Z</time>
      </trkpt>
      <trkpt lat="43.894" lon="7.26132">
        <ele>452</ele>
        <time>2011-11-19T14:57:40Z</time>
      </trkpt>
      <trkpt lat="43.89405" lon="7.26112">
        <ele>452</ele>
        <time>2011-11-19T14:57:51Z</time>
      </trkpt>
      <trkpt lat="43.89404" lon="7.26083">
        <ele>454</ele>
        <time>2011-11-19T14:58:02Z</time>
      </trkpt>
      <trkpt lat="43.89406" lon="7.26057">
        <ele>454</ele>
        <time>2011-11-19T14:58:12Z</time>
      </trkpt>
      <trkpt lat="43.89414" lon="7.26034">
        <ele>454</ele>
        <time>2011-11-19T14:58:23Z</time>
      </trkpt>
      <trkpt lat="43.89425" lon="7.26018">
        <ele>454</ele>
        <time>2011-11-19T14:58:33Z</time>
      </trkpt>
      <trkpt lat="43.89435" lon="7.25997">
        <ele>457</ele>
        <time>2011-11-19T14:58:44Z</time>
      </trkpt>
      <trkpt lat="43.89443" lon="7.25976">
        <ele>458</ele>
        <time>2011-11-19T14:58:55Z</time>
      </trkpt>
      <trkpt lat="43.89449" lon="7.25955">
        <ele>461</ele>
        <time>2011-11-19T14:59:05Z</time>
      </trkpt>
      <trkpt lat="43.89459" lon="7.25937">
        <ele>465</ele>
        <time>2011-11-19T14:59:15Z</time>
      </trkpt>
      <trkpt lat="43.89473" lon="7.25924">
        <ele>465</ele>
        <time>2011-11-19T14:59:26Z</time>
      </trkpt>
      <trkpt lat="43.89488" lon="7.25916">
        <ele>468</ele>
        <time>2011-11-19T14:59:36Z</time>
      </trkpt>
      <trkpt lat="43.89503" lon="7.25909">
        <ele>469</ele>
        <time>2011-11-19T14:59:46Z</time>
      </trkpt>
      <trkpt lat="43.89515" lon="7.25892">
        <ele>470</ele>
        <time>2011-11-19T14:59:56Z</time>
      </trkpt>
      <trkpt lat="43.89508" lon="7.2586">
        <ele>473</ele>
        <time>2011-11-19T15:00:06Z</time>
      </trkpt>
      <trkpt lat="43.89492" lon="7.25794">
        <ele>473</ele>
        <time>2011-11-19T15:00:16Z</time>
      </trkpt>
      <trkpt lat="43.89502" lon="7.25769">
        <ele>473</ele>
        <time>2011-11-19T15:00:26Z</time>
      </trkpt>
      <trkpt lat="43.89505" lon="7.25766">
        <ele>468</ele>
        <time>2011-11-19T15:00:41Z</time>
      </trkpt>
      <trkpt lat="43.89506" lon="7.25764">
        <ele>463</ele>
        <time>2011-11-19T15:00:58Z</time>
      </trkpt>
      <trkpt lat="43.89505" lon="7.25762">
        <ele>463</ele>
        <time>2011-11-19T15:01:12Z</time>
      </trkpt>
      <trkpt lat="43.89505" lon="7.25762">
        <ele>463</ele>
        <time>2011-11-19T15:01:13Z</time>
      </trkpt>
    </trkseg>
  </trk>
</gpx>